[[{"header":{"parameterUnit":"m.s-1","parameterCategory":1,"la1":30.6,"la2":29.2853,"lo1":-89.7004,"lo2":-87.6739,"dy":0.0162,"dx":0.0183,"nx":112,"ny":82,"refTime":"2024-05-20T00:00:00:Z","depth":0,"parameterNumber":2,"parameterNumberName":"U-component_of_WINDS"},"data":[0.0,0.0,0.0,0.0,0.0,0.0,0.0,0.0,0.0,0.0,0.0,0.0,0.0,0.0,0.0,0.0,0.0,0.0,0.0,0.0,0.0,0.0,0.0,0.0,0.0,0.0,0.0,0.0,0.0,0.0,0.0,0.0,0.0,0.0,0.0,0.0,0.0,0.0,0.0,0.0,0.0,0.0,0.0,0.0,0.0,0.0,0.0,0.0,0.0,0.0,0.0,0.0,0.0,0.0,0.0,0.0,0.0,0.0,0.0,0.0,0.0,0.0,0.0,0.0,0.0,0.0,0.0,0.0,0.0,0.0,0.0,0.0,0.0,0.0,0.0,0.0,0.0,0.0,0.0,0.0,0.0,0.0,0.0,0.0,0.0,0.0,0.0,0.0,0.0,0.0,0.0,-2.0535,-2.2363,-2.3051,-2.2154,-2.1663,-2.0164,-1.7229,0.0,0.0,0.0,0.0,0.0,0.0,0.0,0.0,0.0,0.0,0.0,0.0,0.0,0.0,0.0,0.0,0.0,0.0,0.0,0.0,0.0,0.0,0.0,0.0,0.0,0.0,0.0,0.0,0.0,0.0,0.0,0.0,0.0,0.0,0.0,0.0,0.0,0.0,0.0,0.0,0.0,0.0,0.0,0.0,0.0,0.0,0.0,0.0,0.0,0.0,0.0,0.0,0.0,0.0,0.0,0.0,0.0,0.0,0.0,0.0,0.0,0.0,0.0,0.0,0.0,0.0,0.0,0.0,0.0,0.0,0.0,0.0,0.0,0.0,0.0,0.0,0.0,0.0,0.0,0.0,0.0,0.0,0.0,0.0,0.0,0.0,0.0,0.0,0.0,0.0,0.0,0.0,0.0,0.0,0.0,0.0,0.0,0.0,0.0,0.0,0.0,0.0,0.0,0.0,-1.753,-2.1823,-2.2945,-2.3259,-2.2882,-2.1948,-2.0362,-1.7899,0.0,0.0,0.0,0.0,0.0,0.0,0.0,0.0,0.0,0.0,0.0,0.0,0.0,0.0,0.0,0.0,0.0,0.0,0.0,0.0,0.0,0.0,0.0,0.0,0.0,0.0,0.0,0.0,0.0,0.0,0.0,0.0,0.0,0.0,0.0,0.0,0.0,0.0,0.0,0.0,0.0,0.0,0.0,0.0,0.0,0.0,0.0,0.0,0.0,0.0,0.0,0.0,0.0,0.0,0.0,0.0,0.0,0.0,0.0,0.0,0.0,0.0,0.0,0.0,0.0,0.0,0.0,0.0,0.0,0.0,0.0,0.0,0.0,0.0,0.0,0.0,0.0,0.0,0.0,0.0,0.0,0.0,0.0,0.0,0.0,0.0,0.0,0.0,0.0,0.0,0.0,0.0,0.0,0.0,0.0,0.0,0.0,0.0,0.0,0.0,0.0,0.0,0.0,-1.7858,-1.9635,-2.3103,-2.3433,-2.3341,-2.317,-2.2089,-2.0396,-1.8058,-1.5573,0.0,0.0,0.0,0.0,0.0,0.0,0.0,0.0,0.0,0.0,0.0,0.0,0.0,0.0,0.0,0.0,0.0,0.0,0.0,0.0,0.0,0.0,0.0,0.0,0.0,0.0,0.0,0.0,0.0,0.0,0.0,0.0,0.0,0.0,0.0,0.0,0.0,0.0,0.0,0.0,0.0,0.0,0.0,0.0,0.0,0.0,0.0,0.0,0.0,0.0,0.0,0.0,0.0,0.0,0.0,0.0,0.0,0.0,0.0,0.0,0.0,0.0,0.0,0.0,0.0,0.0,0.0,0.0,0.0,0.0,0.0,0.0,0.0,0.0,0.0,0.0,0.0,0.0,0.0,0.0,0.0,0.0,0.0,0.0,0.0,0.0,0.0,0.0,0.0,0.0,0.0,0.0,0.0,0.0,0.0,0.0,0.0,0.0,0.0,0.0,0.0,0.0,-2.0437,-2.1675,-2.3951,-2.3703,-2.3357,-2.3288,-2.1948,-2.0201,-1.8008,-1.5456,0.0,0.0,0.0,0.0,0.0,0.0,0.0,0.0,0.0,0.0,0.0,0.0,0.0,0.0,0.0,0.0,0.0,0.0,0.0,0.0,0.0,0.0,0.0,0.0,0.0,0.0,0.0,0.0,0.0,0.0,0.0,0.0,0.0,0.0,0.0,0.0,0.0,0.0,0.0,0.0,0.0,0.0,0.0,0.0,0.0,0.0,0.0,0.0,0.0,0.0,0.0,0.0,0.0,0.0,0.0,0.0,0.0,0.0,0.0,0.0,0.0,0.0,0.0,0.0,0.0,0.0,0.0,0.0,0.0,0.0,0.0,0.0,0.0,0.0,0.0,0.0,0.0,0.0,0.0,0.0,0.0,0.0,0.0,0.0,0.0,0.0,0.0,0.0,0.0,0.0,0.0,0.0,0.0,0.0,0.0,0.0,0.0,0.0,0.0,0.0,0.0,0.0,-2.028,-2.2345,-2.4025,-2.3671,-2.3288,-2.3212,-2.1418,-1.9571,-1.7912,-1.4965,0.0,0.0,0.0,0.0,0.0,0.0,0.0,0.0,0.0,0.0,0.0,0.0,0.0,0.0,0.0,0.0,0.0,0.0,0.0,0.0,0.0,0.0,0.0,0.0,0.0,0.0,0.0,0.0,0.0,0.0,0.0,0.0,0.0,0.0,0.0,0.0,0.0,0.0,0.0,0.0,0.0,0.0,0.0,0.0,0.0,0.0,0.0,0.0,0.0,0.0,0.0,0.0,0.0,0.0,0.0,0.0,0.0,0.0,0.0,0.0,0.0,0.0,0.0,0.0,0.0,0.0,0.0,0.0,0.0,0.0,0.0,0.0,0.0,0.0,0.0,0.0,0.0,0.0,0.0,0.0,0.0,0.0,0.0,0.0,0.0,0.0,0.0,0.0,0.0,0.0,0.0,0.0,0.0,0.0,0.0,0.0,0.0,0.0,0.0,0.0,0.0,0.0,-2.0582,-2.2418,0.0,-2.3806,-2.3448,-2.3212,-2.1929,-2.0178,-1.7941,0.0,0.0,0.0,0.0,0.0,0.0,0.0,0.0,0.0,0.0,0.0,0.0,0.0,0.0,0.0,0.0,0.0,0.0,0.0,0.0,0.0,0.0,0.0,0.0,0.0,0.0,0.0,0.0,0.0,0.0,0.0,0.0,0.0,0.0,0.0,0.0,0.0,0.0,0.0,0.0,0.0,0.0,0.0,0.0,0.0,0.0,0.0,0.0,0.0,0.0,0.0,0.0,0.0,0.0,0.0,0.0,0.0,0.0,0.0,0.0,0.0,0.0,0.0,0.0,0.0,0.0,0.0,0.0,0.0,0.0,0.0,0.0,0.0,0.0,0.0,0.0,0.0,0.0,0.0,0.0,0.0,0.0,0.0,0.0,0.0,0.0,0.0,0.0,0.0,0.0,0.0,0.0,0.0,0.0,0.0,0.0,0.0,0.0,0.0,0.0,0.0,0.0,-1.8911,-2.0986,-2.2685,0.0,-2.3795,-2.3437,-2.3189,-2.1725,-1.9847,-1.7585,0.0,0.0,0.0,0.0,0.0,0.0,0.0,0.0,0.0,0.0,0.0,0.0,0.0,0.0,0.0,0.0,0.0,0.0,0.0,0.0,0.0,0.0,0.0,0.0,0.0,0.0,0.0,0.0,0.0,0.0,0.0,0.0,0.0,0.0,0.0,0.0,0.0,0.0,0.0,0.0,0.0,0.0,0.0,0.0,0.0,0.0,0.0,0.0,0.0,0.0,0.0,0.0,0.0,0.0,0.0,0.0,0.0,0.0,0.0,0.0,0.0,0.0,0.0,0.0,0.0,0.0,0.0,0.0,0.0,0.0,0.0,0.0,0.0,0.0,0.0,0.0,0.0,0.0,0.0,0.0,0.0,0.0,0.0,0.0,0.0,0.0,0.0,0.0,0.0,0.0,0.0,0.0,0.0,0.0,0.0,0.0,0.0,0.0,0.0,0.0,0.0,0.0,-1.8985,-2.1473,-2.3281,-2.403,-2.3566,-2.3177,-2.3105,-2.0539,-1.8279,0.0,0.0,0.0,0.0,0.0,0.0,0.0,0.0,0.0,0.0,0.0,0.0,0.0,0.0,0.0,0.0,0.0,0.0,0.0,0.0,0.0,0.0,0.0,0.0,0.0,0.0,0.0,0.0,0.0,0.0,0.0,0.0,0.0,0.0,0.0,0.0,0.0,0.0,0.0,0.0,0.0,0.0,0.0,0.0,0.0,0.0,0.0,0.0,0.0,0.0,0.0,0.0,0.0,0.0,0.0,0.0,0.0,0.0,0.0,0.0,0.0,0.0,0.0,0.0,0.0,0.0,0.0,0.0,0.0,0.0,0.0,0.0,0.0,0.0,0.0,0.0,0.0,0.0,0.0,0.0,0.0,0.0,0.0,0.0,0.0,0.0,0.0,0.0,0.0,0.0,0.0,0.0,0.0,0.0,0.0,0.0,0.0,0.0,0.0,0.0,0.0,0.0,0.0,-1.9058,-2.1951,-2.3923,-2.4152,-2.3976,-2.3724,-2.3471,-2.1523,-1.9589,-1.788,0.0,0.0,0.0,0.0,0.0,0.0,0.0,0.0,0.0,0.0,0.0,0.0,0.0,0.0,0.0,0.0,0.0,0.0,0.0,0.0,0.0,0.0,0.0,0.0,0.0,0.0,0.0,0.0,0.0,0.0,0.0,0.0,0.0,0.0,0.0,0.0,0.0,0.0,0.0,0.0,0.0,0.0,0.0,0.0,0.0,0.0,0.0,0.0,0.0,0.0,0.0,0.0,0.0,0.0,0.0,0.0,0.0,0.0,0.0,0.0,0.0,0.0,0.0,0.0,0.0,0.0,0.0,0.0,0.0,0.0,0.0,0.0,0.0,0.0,0.0,0.0,0.0,0.0,0.0,0.0,0.0,0.0,0.0,0.0,0.0,0.0,0.0,0.0,0.0,0.0,0.0,0.0,0.0,0.0,0.0,0.0,0.0,0.0,0.0,0.0,0.0,0.0,-1.9095,-2.218,-2.418,-2.4132,-2.3996,-2.3813,-2.358,-2.2098,-2.0195,-1.7916,0.0,0.0,0.0,0.0,0.0,0.0,0.0,0.0,0.0,0.0,0.0,0.0,0.0,0.0,0.0,0.0,0.0,0.0,0.0,0.0,0.0,0.0,0.0,0.0,0.0,0.0,0.0,0.0,0.0,0.0,0.0,0.0,0.0,0.0,0.0,0.0,0.0,0.0,0.0,0.0,0.0,0.0,0.0,0.0,0.0,0.0,0.0,0.0,0.0,0.0,0.0,0.0,0.0,0.0,0.0,0.0,0.0,0.0,0.0,0.0,0.0,0.0,0.0,0.0,0.0,0.0,0.0,0.0,0.0,0.0,0.0,0.0,0.0,0.0,0.0,0.0,0.0,0.0,0.0,0.0,0.0,0.0,0.0,0.0,0.0,0.0,0.0,0.0,0.0,0.0,0.0,0.0,0.0,0.0,0.0,0.0,0.0,0.0,0.0,0.0,0.0,0.0,-1.9095,-2.218,-2.4161,-2.4026,-2.3795,-2.3617,-2.3542,-2.2364,-2.042,-1.7514,0.0,0.0,0.0,0.0,0.0,0.0,0.0,0.0,0.0,0.0,0.0,0.0,0.0,0.0,0.0,0.0,0.0,0.0,0.0,0.0,0.0,0.0,0.0,0.0,0.0,0.0,0.0,0.0,0.0,0.0,0.0,0.0,0.0,0.0,0.0,0.0,0.0,0.0,0.0,0.0,0.0,0.0,0.0,0.0,0.0,0.0,0.0,0.0,0.0,0.0,0.0,0.0,0.0,0.0,0.0,0.0,0.0,0.0,0.0,0.0,-1.8167,0.0,0.0,0.0,0.0,0.0,0.0,0.0,0.0,0.0,0.0,0.0,0.0,0.0,0.0,0.0,0.0,0.0,0.0,0.0,0.0,0.0,0.0,0.0,0.0,0.0,0.0,0.0,0.0,0.0,0.0,0.0,0.0,0.0,0.0,0.0,0.0,0.0,0.0,0.0,0.0,0.0,-1.9095,-2.218,-2.418,-2.4161,-2.4064,-2.3966,-2.3904,-2.2692,-2.1117,-1.9255,-1.6767,0.0,0.0,0.0,0.0,0.0,0.0,0.0,0.0,0.0,0.0,0.0,0.0,0.0,0.0,0.0,0.0,0.0,0.0,0.0,0.0,0.0,0.0,0.0,0.0,0.0,0.0,0.0,0.0,0.0,0.0,0.0,0.0,0.0,0.0,0.0,0.0,0.0,0.0,0.0,0.0,0.0,0.0,0.0,0.0,0.0,0.0,0.0,0.0,0.0,0.0,0.0,0.0,0.0,0.0,0.0,0.0,0.0,0.0,0.0,0.0,-2.0364,0.0,0.0,0.0,0.0,0.0,0.0,0.0,0.0,0.0,0.0,0.0,0.0,0.0,0.0,0.0,0.0,0.0,0.0,0.0,0.0,0.0,0.0,0.0,0.0,0.0,0.0,0.0,0.0,0.0,0.0,0.0,0.0,0.0,0.0,0.0,0.0,0.0,0.0,0.0,0.0,-1.9675,-2.2409,-2.418,-2.4161,-2.4094,-2.4016,-2.3966,-2.3203,-2.2018,-2.0336,-1.8097,0.0,0.0,0.0,0.0,0.0,0.0,0.0,0.0,0.0,0.0,0.0,0.0,0.0,0.0,0.0,0.0,0.0,0.0,0.0,0.0,0.0,0.0,0.0,0.0,0.0,0.0,0.0,0.0,0.0,0.0,0.0,0.0,0.0,0.0,0.0,0.0,0.0,0.0,0.0,0.0,0.0,0.0,0.0,0.0,0.0,0.0,0.0,0.0,0.0,0.0,0.0,0.0,0.0,-2.7402,-2.8236,-2.8809,-2.8943,-2.9308,-2.968,-2.6861,-2.4983,-2.387,-2.301,0.0,0.0,0.0,0.0,0.0,0.0,0.0,0.0,0.0,0.0,0.0,0.0,0.0,0.0,0.0,0.0,0.0,0.0,0.0,0.0,0.0,0.0,0.0,0.0,-2.307,-2.2987,-2.0984,0.0,0.0,0.0,0.0,0.0,0.0,0.0,0.0,0.0,0.0,0.0,-2.0511,-2.2758,-2.418,-2.4113,-2.4064,-2.3996,-2.3917,-2.3664,-2.2805,-2.1163,-1.951,-1.7483,0.0,0.0,0.0,0.0,0.0,0.0,0.0,0.0,0.0,0.0,0.0,0.0,0.0,0.0,0.0,0.0,0.0,0.0,0.0,0.0,0.0,0.0,0.0,0.0,0.0,0.0,0.0,0.0,0.0,0.0,0.0,0.0,-1.6655,-1.9138,0.0,0.0,0.0,0.0,0.0,0.0,0.0,0.0,0.0,0.0,0.0,0.0,0.0,-2.644,-2.7905,-3.0331,-3.1228,-3.0605,-3.2936,-3.3738,-3.3192,-3.3891,-3.4257,-3.4326,-3.3879,0.0,-2.6358,-2.5374,0.0,0.0,0.0,0.0,0.0,0.0,0.0,0.0,0.0,0.0,0.0,0.0,0.0,0.0,0.0,0.0,0.0,0.0,0.0,0.0,0.0,0.0,-2.5,-2.5643,-2.5909,-2.5941,0.0,-2.2713,-1.9704,-1.8096,-1.7711,0.0,0.0,0.0,0.0,0.0,0.0,0.0,-2.1408,-2.3125,-2.4208,-2.418,-2.4141,-2.4064,-2.3996,-2.3682,-2.3101,-2.2153,-2.084,-1.91,-1.6847,-1.5023,0.0,0.0,0.0,0.0,0.0,0.0,0.0,0.0,0.0,0.0,0.0,0.0,0.0,0.0,0.0,0.0,0.0,0.0,0.0,0.0,0.0,0.0,0.0,0.0,0.0,0.0,0.0,0.0,0.0,-1.7079,-1.9606,-2.0695,-2.0924,-2.081,0.0,0.0,0.0,0.0,0.0,0.0,0.0,0.0,0.0,-2.7956,-2.9268,-3.0522,-3.1752,-3.331,-3.4151,-3.4284,-3.5392,-3.5974,-3.6088,-3.6432,-3.6604,-3.6596,-3.6499,-3.4708,-3.1751,-2.993,-2.7642,-2.5292,0.0,0.0,0.0,0.0,-2.4006,-2.4052,-2.4911,-2.4929,-2.4398,-2.3491,0.0,0.0,0.0,0.0,0.0,0.0,0.0,0.0,0.0,0.0,-2.6232,-2.7006,-2.6852,-2.668,-2.713,-2.5491,-2.3318,0.0,-2.0963,-2.0185,-1.7518,0.0,0.0,0.0,0.0,-2.1133,-2.2318,-2.3474,-2.419,-2.419,-2.4103,-2.4026,-2.4006,-2.3795,-2.3473,-2.3008,-2.2025,-2.0582,-1.8583,-1.6872,-1.4926,0.0,0.0,0.0,0.0,0.0,0.0,0.0,0.0,0.0,0.0,0.0,0.0,0.0,0.0,0.0,0.0,0.0,0.0,0.0,0.0,0.0,0.0,0.0,0.0,0.0,0.0,0.0,0.0,-1.9739,-2.1866,-2.2324,-2.3083,-2.3255,0.0,0.0,0.0,0.0,0.0,0.0,-2.7892,-2.8848,-3.0089,-3.1752,-3.3024,-3.4074,-3.495,-3.5974,-3.6825,-3.7474,-3.7913,-3.8438,-3.8992,-3.8763,-3.8667,-3.8648,-3.8299,-3.7552,-3.6403,-3.3732,-3.1327,-2.9316,-2.8902,-2.7897,-2.6866,-2.8004,-2.8044,-2.7684,-2.883,-2.8849,-2.8171,-2.7193,-2.6174,-2.5021,-2.3217,0.0,0.0,0.0,0.0,-2.6366,-2.6568,-2.7071,-2.7732,-2.8521,-2.8264,-2.7934,-2.8319,-2.7978,-2.6859,0.0,-2.4044,-2.3189,-2.0184,0.0,0.0,0.0,0.0,-2.2391,-2.3189,-2.3823,-2.419,-2.419,-2.4103,-2.4044,-2.4006,-2.3907,-2.3764,-2.3587,-2.2958,-2.1914,-2.0361,-1.8656,-1.6807,-1.4823,0.0,0.0,0.0,0.0,0.0,0.0,0.0,0.0,0.0,0.0,0.0,0.0,0.0,0.0,0.0,0.0,0.0,0.0,0.0,0.0,0.0,0.0,0.0,0.0,0.0,0.0,0.0,0.0,0.0,-2.4809,-2.572,0.0,0.0,0.0,0.0,-2.7377,-2.8924,-3.0567,-3.2298,-3.3203,-3.4445,-3.6137,-3.6252,-3.6691,-3.7502,-3.9202,-4.0072,-4.0129,-4.1724,-4.2507,-4.2526,-4.1686,-4.1304,-4.1266,-4.0492,-3.9652,-3.8584,-3.5409,-3.3562,-3.2653,-3.163,-3.0859,-3.032,-3.0143,-3.0063,-3.0026,-3.0106,-3.0106,-3.0191,-3.087,-3.0032,-2.873,-2.862,-2.8081,0.0,0.0,-2.8136,-2.8987,-2.9769,-2.9989,-3.0228,-3.1029,-3.1195,-3.0962,-3.0246,-3.0201,-2.9532,0.0,-2.6429,-2.5888,-2.419,0.0,-2.3694,-2.2933,-2.2896,-2.3226,-2.4043,-2.4171,-2.419,-2.419,-2.419,-2.4141,-2.4006,-2.3996,-2.3927,-2.3795,-2.3573,-2.3068,-2.2193,-2.0424,-1.8753,-1.7259,-1.4939,0.0,0.0,0.0,0.0,0.0,0.0,0.0,0.0,0.0,0.0,0.0,0.0,0.0,0.0,0.0,0.0,0.0,0.0,0.0,0.0,0.0,0.0,0.0,0.0,0.0,0.0,0.0,0.0,-2.8224,-2.9612,0.0,-3.0051,-3.0293,-3.0815,-3.1694,-3.2313,-3.3375,-3.5068,-3.543,-3.6634,-3.8868,-3.8945,-3.9594,-4.096,-4.1609,-4.1915,-4.1915,-4.2507,-4.2794,-4.2794,-4.2488,-4.2335,-4.2316,-4.203,-4.1626,-4.107,-3.9719,-3.7831,-3.5754,-3.507,-3.4346,-3.3719,-3.4018,-3.377,-3.3371,-3.3935,-3.377,-3.317,-3.2417,-3.1091,-2.9757,-2.9757,-2.9567,-2.9347,-2.9347,-2.9916,-3.0613,-3.0889,-3.0962,-3.1035,-3.1342,-3.1397,-3.1323,-3.1017,-3.1035,-3.0795,-2.9866,-2.8533,-2.7009,-2.5276,-2.5401,-2.5474,-2.4677,-2.4997,-2.5236,-2.5007,-2.497,-2.4759,-2.4206,-2.4094,-2.4026,-2.3937,-2.3896,-2.3847,-2.3806,-2.3732,-2.313,-2.185,-2.0996,-1.9661,-1.7764,-1.6183,-1.4427,0.0,0.0,0.0,0.0,0.0,0.0,0.0,0.0,0.0,0.0,0.0,0.0,0.0,0.0,0.0,0.0,0.0,0.0,0.0,0.0,0.0,0.0,0.0,0.0,0.0,0.0,-2.9058,-3.0472,-3.2363,-3.3444,-3.3158,-3.3654,-3.4227,-3.4808,-3.563,-3.6604,-3.7722,-3.8315,-3.9403,-4.1094,-4.1141,-4.1686,-4.2794,-4.308,-4.3195,-4.3214,-4.3501,-4.3634,-4.3634,-4.3348,-4.3195,-4.3195,-4.2928,-4.2694,-4.2517,-4.2309,-4.1037,-3.9123,-3.8171,-3.7158,-3.6283,-3.6597,-3.6174,-3.5518,-3.6101,-3.5917,-3.5261,-3.4179,-3.3128,-3.2265,-3.2265,-3.2063,-3.1812,-3.1812,-3.2008,-3.2223,-3.2223,-3.2223,-3.2223,-3.2223,-3.2223,-3.2137,-3.1861,-3.1806,-3.1715,-3.1452,-2.9989,-2.8339,-2.6864,-2.6833,-2.6722,-2.5925,-2.6264,-2.641,-2.587,-2.5576,-2.5181,-2.4609,-2.4258,-2.4026,-2.3937,-2.3896,-2.3855,-2.3806,-2.3806,-2.3234,-2.1957,-2.147,-2.0452,-1.8751,-1.7175,-1.5546,-1.3838,0.0,0.0,0.0,0.0,0.0,0.0,0.0,0.0,0.0,0.0,0.0,0.0,0.0,0.0,0.0,0.0,0.0,0.0,0.0,0.0,0.0,0.0,0.0,-2.5382,-2.8243,-3.0663,-3.158,-3.3834,-3.5037,-3.43,-3.5706,-3.6672,-3.6691,-3.8983,-4.0377,-4.0377,-4.1915,-4.2813,-4.2832,-4.2832,-4.2851,-4.2889,-4.3643,-4.4045,-4.4045,-4.4895,-4.5307,-4.5269,-4.4437,-4.4045,-4.4006,-4.3214,-4.2889,-4.2889,-4.286,-4.2841,-4.2616,-4.0719,-3.9187,-3.8005,-3.7698,-3.707,-3.6376,-3.6376,-3.6358,-3.634,-3.634,-3.6321,-3.6303,-3.6303,-3.5701,-3.5041,-3.5041,-3.4472,-3.3862,-3.3844,-3.3844,-3.3825,-3.3807,-3.3807,-3.3587,-3.2803,-3.2638,-3.2399,-3.1635,-3.0834,-3.0008,-2.9189,-2.8393,-2.7603,-2.6796,-2.6675,0.0,-2.6638,-2.5962,-2.5466,-2.5429,-2.4704,-2.4188,-2.4042,-2.4014,-2.3937,-2.3806,-2.3806,-2.3469,-2.2735,-2.1938,-2.1151,-2.0318,-1.7954,-1.6342,-1.5542,0.0,0.0,0.0,0.0,0.0,0.0,0.0,0.0,0.0,0.0,0.0,0.0,0.0,0.0,0.0,0.0,0.0,0.0,0.0,0.0,0.0,0.0,-2.9045,-2.9669,-3.1606,-3.3708,-3.5744,-3.7158,-3.8343,-3.9336,-3.9852,-4.0387,-4.1017,-4.1724,-4.2106,-4.2106,-4.2545,-4.308,-4.3643,-4.3663,-4.3978,-4.4609,-4.4819,-4.4934,-4.4953,-4.5182,-4.5307,-4.5288,-4.5048,-4.4934,-4.4934,-4.4704,-4.4609,-4.4579,-4.4349,-4.3796,-4.3001,-4.2071,-4.1481,-4.1022,-3.9923,-3.8914,-3.8046,-3.8046,-3.7661,-3.718,-3.718,-3.6795,-3.6303,-3.6303,-3.6138,-3.5936,-3.5936,-3.5771,-3.5477,-3.4821,-3.4674,-3.4509,-3.3935,-3.3807,-3.3733,-3.3532,-3.3476,-3.3403,-3.3183,-3.2504,-3.15,-3.0106,-2.9696,-2.9274,-2.8455,-2.8345,0.0,-2.7548,-2.7284,-2.6895,-2.6266,-2.5478,-2.4943,-2.4819,-2.4262,-2.3896,-2.3806,-2.3806,-2.3469,-2.2735,-2.2481,-2.1721,-2.0336,-1.8497,-1.7175,0.0,0.0,0.0,0.0,0.0,0.0,0.0,0.0,0.0,0.0,0.0,0.0,0.0,0.0,0.0,0.0,0.0,0.0,0.0,0.0,0.0,0.0,-3.0586,-3.2458,-3.4369,-3.5171,-3.6222,-3.8037,-3.9317,-4.0425,-4.1399,-4.182,-4.224,-4.2756,-4.3119,-4.331,-4.331,-4.3654,-4.4055,-4.4532,-4.4551,-4.4781,-4.5307,-4.5307,-4.5307,-4.5307,-4.5307,-4.5307,-4.5307,-4.5307,-4.5307,-4.5307,-4.5307,-4.5307,-4.5277,-4.5098,-4.4637,0.0,0.0,0.0,0.0,0.0,-4.0237,-3.9646,-3.9331,-3.8891,-3.8447,-3.8102,-3.7679,-3.7312,-3.7312,-3.7074,-3.6813,-3.6813,-3.656,-3.6174,-3.5665,-3.5536,-3.5426,-3.4963,-3.4578,-3.4289,-3.4289,-3.4045,-3.3807,-3.3807,-3.3395,0.0,-3.1427,-3.065,-3.0044,-2.9574,-2.9225,-2.8822,-2.8356,-2.8007,-2.76,-2.7057,-2.6281,-2.5607,-2.5143,-2.4678,0.0,0.0,0.0,-2.3469,-2.2735,-2.2373,0.0,0.0,0.0,0.0,0.0,0.0,0.0,0.0,-1.5984,-1.5721,0.0,0.0,0.0,0.0,0.0,0.0,0.0,0.0,0.0,0.0,0.0,0.0,0.0,0.0,0.0,0.0,-3.3853,-3.5553,-3.882,-3.861,-3.8419,-3.9183,-4.0597,-4.1571,-4.1762,-4.2488,-4.2985,-4.3061,-4.3749,-4.414,-4.414,0.0,0.0,0.0,0.0,-4.5307,-4.5307,-4.5307,-4.5307,-4.5307,-4.5307,-4.5307,-4.5307,-4.5307,-4.5307,-4.5307,-4.5307,-4.5307,-4.5307,-4.5307,-4.5286,-4.5096,-4.3584,-4.2337,-4.138,-4.138,-4.1312,-4.1096,-4.0375,0.0,0.0,-3.9246,-3.894,-3.8836,-3.8836,-3.8267,-3.7639,-3.7639,-3.711,-3.6541,-3.645,-3.6431,-3.6413,-3.6321,-3.5701,-3.5151,-3.5151,-3.4509,-3.3935,-3.3935,-3.3808,-3.3488,-3.2845,-3.1463,-3.0399,-3.0228,-2.9592,-2.9097,-2.9005,-2.8374,-2.7912,-2.7844,0.0,0.0,-2.5336,-2.515,-2.4729,-2.386,-2.3806,-2.3506,-2.2843,-2.2138,-2.1731,-2.1631,-2.164,-2.1595,-2.1514,-2.1514,-2.155,-2.154,-1.7884,-1.7323,0.0,0.0,0.0,0.0,0.0,0.0,0.0,0.0,0.0,0.0,0.0,0.0,0.0,0.0,0.0,-3.5163,-3.6451,-3.7922,-4.0635,-4.0864,-4.0826,-4.0998,-4.1304,-4.203,-4.3395,-4.3663,-4.4074,-4.4762,-4.4953,-4.5048,-4.5048,-4.5201,-4.5307,-4.5307,-4.5307,-4.5307,-4.5307,-4.5307,-4.5307,-4.5307,0.0,0.0,-4.5307,-4.5307,-4.5307,-4.5307,-4.5307,-4.5307,-4.5307,-4.5307,-4.5132,-4.4891,-4.481,-4.4116,-4.3108,-4.3108,-4.2572,-4.1809,-4.164,-4.1432,-4.1145,-4.0997,-4.0372,-3.9662,-3.9662,-3.9111,0.0,-3.8469,-3.8358,-3.8083,-3.7437,-3.7272,-3.7107,-3.645,-3.6174,-3.6046,-3.6046,-3.5371,-3.4766,-3.4766,-3.4234,-3.3738,-3.3587,-3.2727,-3.1638,-3.0399,-3.0081,-2.9721,-2.9078,-2.8858,-2.8767,-2.8744,-2.8022,-2.7164,-2.622,-2.5543,-2.479,-2.386,-2.3806,-2.3741,-2.3596,-2.3433,-2.3071,-2.2481,-2.2463,-2.2156,-2.1514,-2.1514,-2.183,-2.2427,-2.0997,-2.0581,0.0,0.0,0.0,0.0,0.0,0.0,0.0,0.0,0.0,0.0,0.0,-2.8432,0.0,0.0,-3.4284,-3.7264,-3.8457,-3.9584,-4.1266,-4.1877,-4.2144,-4.2144,-4.2507,-4.308,-4.3911,-4.4388,-4.4838,-4.5269,-4.5307,-4.5307,-4.5307,-4.5307,-4.5307,-4.5307,-4.5307,-4.5307,-4.5307,-4.5307,-4.5307,-4.5307,-4.5307,-4.5307,-4.5307,-4.5307,-4.5307,-4.5307,-4.5307,-4.5307,-4.5307,-4.5307,-4.5194,-4.5045,-4.5045,-4.4536,-4.3796,-4.3796,-4.3352,-4.2701,-4.2292,-4.2038,-4.1828,-4.1437,-4.0943,-4.0432,-4.001,-3.9625,-3.9221,-3.8817,-3.8707,-3.8615,-3.8193,-3.8102,-3.7991,-3.7606,-3.7184,-3.6905,-3.6905,-3.6248,-3.5518,-3.5078,-3.4646,-3.4225,-3.3862,-3.341,-3.2692,-3.1541,-3.0637,-2.9948,-2.9552,-2.9149,-2.8912,-2.8912,-2.8546,-2.7949,-2.707,-2.586,-2.4751,-2.386,-2.3806,-2.3806,-2.3806,-2.3806,-2.3632,-2.327,-2.3252,-2.3053,-2.2654,-2.2654,-2.2854,-2.3234,-2.2835,-2.2654,0.0,0.0,0.0,0.0,0.0,0.0,0.0,0.0,-2.601,-2.9285,-3.0658,-3.2167,-3.5136,-3.5821,-3.6719,-3.9107,-4.0081,-4.0864,-4.1858,-4.2584,-4.31,-4.3271,-4.3701,-4.4064,-4.4236,-4.4895,-4.5307,-4.5307,-4.5307,-4.5307,-4.5307,-4.5307,-4.5307,-4.5307,-4.5307,-4.5307,-4.5307,-4.5307,-4.5307,-4.5307,-4.5307,-4.5307,-4.5307,-4.5307,-4.5307,-4.5307,-4.5307,-4.5307,-4.5307,-4.5307,-4.5256,-4.5173,-4.491,-4.4471,-4.402,-4.4064,-4.3923,-4.3588,-4.2924,-4.2673,-4.2515,-4.1871,-4.1509,-4.1205,-4.0561,-4.0249,-3.9974,-3.9166,-3.8927,-3.8909,-3.8744,-3.8707,-3.8707,-3.8707,-3.8193,-3.7716,-3.7701,-3.7059,-3.6274,-3.5567,-3.5121,-3.47,-3.4115,-3.3822,-3.3401,-3.2624,-3.1214,-3.0202,-3.0026,-2.929,-2.8798,-2.8798,-2.8798,-2.8469,-2.7638,-2.6034,-2.4791,-2.4077,-2.3896,-2.3806,-2.3806,-2.3806,-2.3806,-2.3806,-2.3806,-2.3806,-2.3806,-2.3806,-2.3806,-2.3806,-2.3806,-2.3806,-2.1629,-2.2093,-2.3241,-2.4843,-2.5348,-2.6696,0.0,0.0,-3.1205,-3.3928,-3.5166,-3.611,-3.7215,-3.8056,-3.9164,-4.0922,-4.1304,-4.1915,-4.3491,-4.3796,-4.414,-4.4934,-4.4418,-4.4293,-4.5067,-4.5239,-4.5307,-4.5307,-4.5307,-4.5307,-4.5307,-4.5307,-4.5307,-4.5307,-4.5307,-4.5307,-4.5307,-4.5307,-4.5307,-4.5307,-4.5307,-4.5307,-4.5307,-4.5307,-4.5307,-4.5307,-4.5307,-4.5307,-4.5307,-4.5307,-4.5121,-4.4856,-4.48,-4.4471,-4.4017,-4.4279,-4.4332,-4.4299,-4.4205,-4.4017,-4.3775,-4.3701,-4.2991,-4.2158,-4.2066,-4.1534,-4.0802,-3.9992,-3.9772,-3.9588,-3.8891,-3.8707,-3.8707,-3.8707,-3.8634,-3.8545,-3.8413,-3.776,-3.7141,-3.6973,-3.579,-3.4801,-3.4782,-3.4079,-3.329,-3.261,-3.1728,-3.0874,-3.0099,-2.929,-2.8798,-2.8798,-2.8798,-2.8458,-2.7591,-2.5959,-2.4983,-2.4864,-2.4194,-2.3806,-2.3806,-2.3806,-2.3806,-2.3806,-2.3806,-2.3806,-2.3806,-2.3806,-2.3806,-2.3806,-2.3806,-2.3806,-2.47,-2.543,-2.643,0.0,-2.8955,-3.0435,-3.32,-3.3688,-3.4159,-3.6233,-3.7349,-3.82,-3.9069,-3.989,-4.0673,0.0,-4.2316,-4.3204,-4.3892,-4.4437,-4.4704,-4.4571,-4.4666,-4.4895,-4.5258,-4.5307,-4.5307,-4.5307,-4.5307,-4.5307,-4.5307,-4.5307,-4.5307,-4.5307,-4.5307,-4.5307,-4.5307,-4.5307,-4.5307,-4.5307,-4.5307,-4.5307,-4.5307,-4.5307,-4.5307,-4.5307,-4.5307,-4.5307,-4.5307,-4.5307,-4.5224,-4.5057,-4.4868,-4.4559,-4.4236,-4.4177,-4.4042,-4.3871,-4.3871,-4.3793,-4.3716,-4.3716,-4.3395,-4.291,-4.2433,-4.2066,-4.1644,-4.0818,-4.0267,-3.9808,-3.9478,-3.9056,-3.8707,-3.8707,-3.8707,-3.8673,-3.8624,-3.8352,-3.7937,-3.7366,-3.6346,-3.5396,-3.4911,-3.412,-3.3454,-3.314,-3.2365,-3.1524,-3.068,-2.988,-2.9221,-2.8803,-2.8773,-2.8445,-2.7561,-2.6865,-2.6232,-2.5733,-2.4936,-2.4502,-2.4502,-2.4049,-2.3806,-2.3806,-2.3806,-2.3806,-2.3806,-2.3806,-2.3806,-2.3806,-2.3806,-2.3806,-2.6693,0.0,0.0,-3.0487,-3.2179,-3.3821,-3.4904,-3.5734,-3.6661,-3.8113,-3.8916,-3.9546,-4.0186,-4.0788,-4.1323,-4.1781,-4.2889,-4.3834,-4.4293,-4.4704,-4.4704,-4.4083,-4.4571,-4.4934,-4.4934,-4.5163,-4.5307,-4.5307,-4.5307,-4.5307,-4.5307,-4.5307,-4.5307,-4.5307,-4.5307,-4.5307,-4.5307,-4.5307,-4.5307,-4.5307,-4.5307,-4.5307,-4.5307,-4.5307,-4.5307,-4.5307,-4.5307,-4.5307,-4.5307,-4.5307,-4.5246,-4.5151,-4.4891,-4.4637,-4.4388,-4.4177,-4.386,-4.3515,-4.3515,-4.3515,-4.3515,-4.3515,-4.3515,-4.3404,-4.28,-4.2635,-4.2451,-4.1645,-4.102,-4.0469,-3.9978,-3.9447,-3.8936,-3.8682,-3.8627,-3.8611,-3.858,-3.8596,-3.8397,-3.7685,-3.69,-3.6097,-3.5253,-3.4422,-3.3789,-3.3528,-3.2962,-3.2234,-3.1419,-3.0437,-2.9507,-2.8747,-2.8712,-2.8488,-2.7852,-2.7598,-2.7193,-2.6566,-2.5787,-2.5226,-2.5009,-2.4429,-2.4031,-2.3795,-2.3806,-2.3806,-2.3806,-2.3806,-2.3806,-2.3806,-2.3806,-2.3806,0.0,0.0,-3.1495,-3.3161,-3.4985,-3.6816,-3.8467,-3.8849,-3.9145,-4.0034,-4.0244,-4.0263,-4.0301,-4.032,-4.0874,-4.2507,-4.2794,-4.3405,-4.5029,-4.4571,-4.4025,-4.4006,-4.4025,-4.4045,0.0,-4.48,-4.5307,-4.5307,-4.5307,-4.5307,-4.5307,-4.5307,-4.5307,-4.5307,-4.5307,-4.5307,-4.5307,-4.5307,-4.5307,-4.5307,-4.5307,-4.5307,-4.5307,-4.5307,-4.5307,-4.5307,-4.5307,-4.5307,-4.5307,-4.5307,-4.5109,-4.48,-4.48,-4.4637,-4.4397,-4.4402,-4.4008,-4.3515,-4.3515,-4.3515,-4.3515,-4.3515,-4.3515,-4.3515,-4.3478,-4.346,-4.3313,-4.2488,-4.2249,-4.1847,-4.0209,-3.979,-3.9536,-3.8615,-3.8399,-3.8401,-3.834,-3.8352,-3.8368,-3.8188,-3.7568,-3.6799,-3.6002,-3.5141,-3.4329,-3.3604,-3.3419,-3.3067,-3.227,-3.0781,-2.9494,-2.869,-2.86,-2.86,-2.8563,-2.7839,-2.7387,-2.7369,-2.6609,-2.5805,-2.5027,-2.4972,-2.4592,-2.3824,-2.3806,-2.3806,-2.3806,-2.3806,-2.3806,-2.3806,-2.3806,-2.3806,-2.972,0.0,-3.3415,-3.5774,-3.7257,-3.8457,-3.9594,-3.9862,-3.9766,-3.9508,-3.9451,-3.926,-3.8686,-3.9527,-4.0664,-4.1762,-4.287,-4.3997,-4.5144,-4.5048,-4.4647,-4.4064,-4.4513,0.0,0.0,0.0,0.0,-4.5307,-4.5307,-4.5307,-4.5307,-4.5307,-4.5307,-4.5307,-4.5307,-4.5307,-4.5307,-4.5307,-4.5307,-4.5307,-4.5307,-4.5307,-4.5307,-4.5307,-4.5307,-4.5307,-4.5307,-4.5307,-4.5307,-4.5307,-4.5235,-4.5121,-4.5121,-4.4838,-4.4397,-4.4397,-4.4008,-4.3565,-4.3965,-4.398,-4.383,-4.383,-4.3682,-4.3515,-4.3515,-4.3515,-4.3441,-4.3167,-4.2708,-4.2159,-4.1545,-4.0613,-3.9685,-3.9274,-3.88,-3.8382,-3.8368,-3.8366,-3.8385,-3.829,-3.7637,-3.7001,-3.6665,-3.5509,-3.4335,-3.3549,-3.2955,-3.2506,-3.2234,-3.127,-3.0292,-2.9481,-2.9391,-2.9174,-2.8654,-2.8346,-2.8201,-2.8201,-2.7441,-2.6862,-2.659,-2.6077,-2.5679,-2.5407,-2.5389,-2.5389,-2.5389,-2.5389,-2.5389,-2.5389,-2.5389,-2.5389,-3.1874,-3.3666,-3.5252,-3.758,-3.882,-3.9623,-4.0167,-4.0053,-3.9603,-3.8725,-3.8304,-3.7846,-3.6967,-3.7731,-3.9049,-4.0788,-4.1991,-4.3281,-4.5048,-4.5029,-4.4628,-4.4064,-4.4494,-4.4628,0.0,0.0,0.0,-4.5307,-4.5307,-4.5307,-4.5307,-4.5307,-4.5307,-4.5307,-4.5307,-4.5307,-4.5307,-4.5583,-4.5889,-4.6194,-4.6194,-4.6023,-4.5736,-4.5736,-4.5564,-4.5307,-4.5307,-4.5235,-4.5121,-4.5121,-4.5045,-4.4976,-4.4976,-4.4733,-4.4397,-4.4397,-4.4158,-4.3839,-4.4023,-4.3983,-4.383,-4.383,-4.3682,-4.3515,-4.3515,-4.3515,-4.3515,-4.3515,-4.313,-4.2655,-4.2294,-4.1401,-4.0419,-3.9733,-3.9155,-3.8684,-3.8393,-3.8336,-3.8336,-3.8274,-3.7873,-3.7419,-3.7065,-3.5675,-3.441,-3.3918,-3.314,-3.2524,-3.2234,-3.1745,-3.1125,-3.031,-2.9965,-2.9603,-2.9083,-2.8763,-2.86,-2.86,-2.8111,-2.7695,-2.7405,-2.6898,-2.6482,-2.6222,-2.6204,-2.6204,-2.6204,-2.6204,-2.6204,-2.6204,-2.6204,-2.6204,-3.3363,-3.5233,-3.7016,-3.8667,-3.9699,-4.0282,-4.0244,-3.9565,-3.8667,-3.7712,-3.6871,-3.6023,0.0,0.0,-3.629,-3.9632,-4.0301,-4.1571,-4.4838,-4.459,-4.4064,0.0,0.0,0.0,0.0,0.0,0.0,-4.5307,0.0,-4.5307,-4.5307,-4.5345,-4.5364,-4.5364,-4.5392,-4.543,-4.543,-4.6194,-4.6978,-4.7788,-4.7788,-4.7368,-4.6577,-4.6577,-4.6137,-4.5364,-4.5364,-4.5148,-4.4788,-4.4831,-4.465,-4.4397,-4.443,-4.4397,-4.4388,-4.4388,-4.4374,-4.4256,-4.3714,-4.3515,-4.3532,-4.3532,-4.3515,-4.3479,-4.3479,-4.3497,-4.3497,-4.3479,-4.3479,-4.3297,-4.2459,-4.2135,-4.1592,-3.9995,-3.9492,-3.9188,-3.8426,-3.8277,-3.8274,-3.8225,-3.8241,-3.802,-3.7156,-3.5729,-3.4682,-3.4624,-3.3954,-3.3176,-3.2361,-3.2252,-3.1944,-3.1161,-3.0382,-2.9911,-2.9857,-2.9119,-2.8654,-2.8654,-2.8618,-2.8256,-2.7495,-2.7459,-2.7097,-2.6337,-2.6331,-2.6331,-2.6331,-2.6331,-2.6331,-2.6331,-2.6331,-2.6331,-3.5828,-3.7385,-3.8629,-3.969,-4.0129,-4.0129,-3.9489,-3.8667,-3.7445,-3.537,-3.4254,-3.3215,0.0,0.0,0.0,-3.8018,-4.0501,0.0,-4.4991,-4.5105,0.0,-4.4972,0.0,-4.4972,-4.4972,-4.5163,0.0,0.0,-4.5307,-4.5307,-4.5307,-4.587,-4.6194,-4.6194,-4.6825,-4.7169,-4.7169,-4.7368,-4.7578,-4.7788,-4.7788,-4.7674,-4.7463,-4.7463,-4.6997,-4.6194,-4.6194,-4.5662,-4.4831,-4.5076,-4.4862,-4.4411,-4.4612,-4.4457,-4.4091,-4.4091,-4.3936,-4.3714,-4.3548,-4.3666,-4.3878,-4.3878,-4.3666,-4.3429,-4.3429,-4.3358,-4.3304,-4.3394,-4.3429,-4.3339,-4.3031,-4.2466,-4.1848,-4.1288,-4.0256,-3.9333,-3.9134,-3.8625,-3.8225,-3.8209,-3.8225,-3.7954,-3.714,-3.6669,-3.5983,-3.4787,-3.4443,-3.4009,-3.3194,-3.3085,-3.2795,-3.1981,-3.1709,-3.1361,-3.0745,-2.9965,-2.9481,-2.9481,-2.8925,-2.8509,-2.831,-2.8292,-2.8201,-2.7984,-2.7984,-2.7984,-2.7984,-2.7984,-2.7984,-2.7984,-2.7984,-2.7984,-3.7595,-3.8823,-3.9699,-4.0186,-4.0014,-3.9403,-3.8181,-3.6967,-3.5362,-3.2848,-3.1637,0.0,0.0,0.0,0.0,0.0,0.0,0.0,-4.4399,-4.5048,-4.5307,0.0,-4.5307,0.0,-4.5793,-4.5831,-4.5984,0.0,-4.6042,-4.5831,-4.5831,-4.6615,-4.7073,-4.7073,-4.754,-4.7979,-4.8372,-4.8372,-4.8544,-4.8907,-4.8907,-4.8716,-4.8372,-4.8372,-4.7895,-4.7043,0.0,-4.6062,-4.5362,-4.5163,-4.4807,-4.4397,-4.4443,-4.4265,-4.3989,-4.383,-4.3666,-4.3515,-4.3515,-4.3615,-4.3781,-4.3781,-4.3617,-4.3394,-4.3394,-4.3305,-4.3214,-4.3305,-4.3323,-4.3286,-4.3233,-4.2832,-4.2377,-4.1887,-4.1071,-4.0311,-3.9967,-3.926,-3.8608,-3.8281,-3.8209,-3.8064,-3.7611,-3.723,-3.6687,-3.5783,-3.5059,-3.4443,-3.3991,-3.3628,-3.323,-3.2777,-3.2415,-3.2017,-3.1564,-3.0799,-3.0183,-2.9821,-2.9373,-2.8974,-2.8618,-2.86,-2.86,-2.86,-2.86,-2.86,-2.86,-2.86,-2.86,-2.86,-2.86,-2.86,-3.8889,-3.9709,-4.0301,-4.0301,-3.9632,-3.8534,-3.6729,-3.5037,-3.307,-3.0414,0.0,-2.8325,-2.7529,-2.8924,-3.1255,-3.4503,0.0,-4.0177,-4.3529,-4.4647,-4.5163,-4.5288,-4.5307,-4.5621,-4.6424,-4.65,-4.6863,-4.7731,-4.7207,-4.6787,-4.6691,-4.7513,-4.8017,-4.8132,-4.8132,-4.8487,-4.9263,-4.9263,-4.9614,-5.0302,-5.0302,-4.992,-4.9263,-4.9263,-4.8793,-4.7922,-4.7054,-4.6443,-4.6038,-4.5197,-4.4676,-4.4388,-4.4177,-4.4064,-4.3974,-4.3666,-4.3513,-4.3497,-4.3497,-4.3497,-4.3497,-4.3497,-4.3445,-4.3394,-4.3394,-4.3287,-4.3196,-4.3196,-4.3196,-4.3196,-4.3196,-4.3142,-4.2923,-4.2196,-4.1869,-4.1506,-4.08,-4.0003,-3.9152,-3.8372,-3.8209,-3.8209,-3.8209,-3.7629,-3.7122,-3.7013,-3.5711,-3.4718,-3.4609,-3.39,-3.3393,-3.3393,-3.2777,-3.2361,-3.2361,-3.1618,-3.0871,-3.0165,-2.9911,-2.9481,-2.8781,-2.8654,-2.86,-2.86,-2.86,-2.86,-2.86,-2.86,-2.86,-2.86,-2.86,-2.86,-3.9776,-4.0186,-4.0301,-4.0301,-3.9632,-3.8381,-3.5974,-3.4132,0.0,0.0,-2.7434,-2.6593,-2.5778,-2.8147,-3.109,-3.3757,0.0,0.0,0.0,0.0,-4.4494,0.0,0.0,0.0,0.0,0.0,0.0,0.0,-4.8334,-4.8334,-4.7597,-4.8391,-4.9175,-4.9843,-4.9862,-4.9939,-5.0092,-5.0092,-5.0168,-5.0302,-5.0302,-5.0225,-5.0092,-5.0092,-4.9652,-4.8831,-4.7952,0.0,-4.605,-4.5471,-4.4887,-4.443,-4.4585,-4.4388,-4.3989,-4.3809,-4.3629,-4.3497,-4.3446,-4.3429,-4.3429,-4.348,-4.3445,-4.3394,-4.3269,-4.3178,-4.3123,-4.3123,-4.3123,-4.3123,-4.3123,-4.3104,-4.305,-4.2794,-4.2194,-4.165,-4.1524,-4.0401,-3.9152,-3.8372,-3.8209,-3.8209,-3.8209,-3.8082,-3.7774,-3.7104,-3.62,-3.5351,-3.4682,-3.39,-3.3393,-3.3393,-3.3284,-3.3194,-3.3194,-3.2451,-3.1926,-3.1781,-3.0545,-2.9748,-2.9603,-2.8944,-2.86,-2.86,-2.86,-2.86,-2.86,-2.86,-2.86,-2.86,-2.86,-2.86,-4.0034,-4.0301,-4.0301,-4.0301,-3.8983,-3.7035,-3.4475,0.0,0.0,0.0,-2.6064,-2.5663,-2.5268,0.0,0.0,0.0,0.0,0.0,0.0,0.0,0.0,0.0,0.0,0.0,0.0,0.0,0.0,0.0,-4.95,-4.9366,-4.8525,-4.927,-4.9901,-5.0283,-5.0302,-5.0302,-5.0302,-5.0302,-5.0302,-5.0302,-5.0302,-5.0302,-5.0302,-5.0302,-5.0092,-4.9652,-4.8372,-4.7484,-4.6896,-4.5769,-4.5129,-4.4862,-4.4819,-4.4552,-4.4136,-4.3886,-4.3612,-4.3339,-4.3304,-4.3305,-4.3286,-4.334,-4.3322,-4.3287,-4.3178,-4.3141,-4.3086,-4.303,-4.2994,-4.2994,-4.2994,-4.2994,-4.2975,-4.2919,-4.2611,-4.2212,-4.1795,-4.0782,-3.9749,-3.8971,-3.8499,-3.8209,-3.8209,-3.8209,-3.8082,-3.7683,-3.6941,-3.6127,-3.5315,-3.4519,-3.3864,-3.3447,-3.3393,-3.3393,-3.3393,-3.3049,-3.2651,-3.2234,-3.1473,-3.0871,-3.0437,-2.9644,-2.9228,-2.9228,-2.8799,-2.86,-2.86,-2.86,-2.8505,-2.8339,-2.8339,-2.8277,-3.9814,-4.0148,-4.0301,-4.0301,-3.8372,-3.5832,-3.3291,-3.0739,0.0,0.0,-2.5191,-2.5191,-2.5191,0.0,0.0,0.0,0.0,0.0,0.0,0.0,0.0,0.0,0.0,0.0,0.0,0.0,0.0,0.0,-5.0302,-5.0015,-4.9396,-4.9958,-5.0302,-5.0302,-5.0302,-5.0302,-5.0302,-5.0302,-5.0302,-5.0302,-5.0302,-5.0302,-5.0302,-5.0302,-5.0302,-5.0206,-4.8533,-4.7788,-4.7674,-4.5984,-4.5307,-4.5267,-4.5011,-4.4669,-4.426,-4.3958,-4.3577,-4.3196,-4.3178,-4.3178,-4.3178,-4.3178,-4.3196,-4.3196,-4.3123,-4.3104,-4.3068,-4.2938,-4.2901,-4.2901,-4.2901,-4.2901,-4.2901,-4.2901,-4.2901,-4.2683,-4.1868,-4.1071,-4.0275,-3.9532,-3.8752,-3.8209,-3.8209,-3.8209,-3.8209,-3.8209,-3.752,-3.6777,-3.6146,-3.5204,-3.4371,-3.3719,-3.3502,-3.3393,-3.3393,-3.3393,-3.314,-3.2488,-3.2288,-3.1908,-3.1274,-3.0491,-3.0056,-3.0056,-2.9264,-2.8853,-2.8853,-2.869,-2.8461,-2.8215,-2.8129,-2.7978,-3.9032,-3.9699,-4.0301,-4.0301,-3.8372,-3.5832,-3.3291,0.0,0.0,-2.5701,-2.5191,-2.5191,-2.5191,-2.5912,0.0,0.0,0.0,-3.4571,0.0,0.0,0.0,0.0,0.0,0.0,0.0,0.0,0.0,0.0,-5.0302,-5.0264,-5.0187,-5.0264,-5.0302,-5.0302,-5.0302,-5.0302,-5.0302,-5.0302,-5.0302,-5.0302,-5.0302,-5.0302,-5.0302,-5.0302,-5.0302,-5.0206,-4.8533,-4.7788,0.0,-4.5984,-4.5307,-4.5297,-4.5275,-4.485,-4.4289,-4.4136,-4.3705,-4.3196,-4.3123,-4.3104,-4.3104,-4.3104,-4.316,-4.3196,-4.3123,-4.3104,-4.3068,-4.2938,-4.2901,-4.2901,-4.2901,-4.2901,-4.2901,-4.2901,-4.2901,-4.2683,-4.1868,-4.1071,-4.0275,-3.9532,-3.8752,-3.8209,-3.8209,-3.8209,-3.8209,-3.8209,-3.752,-3.6977,-3.6904,-3.5548,-3.4555,-3.4516,-3.3846,-3.3393,-3.3393,-3.3393,-3.3375,-3.3284,-3.2596,-3.2162,-3.2089,-3.1324,-3.0889,-3.0889,-3.011,-2.9694,-2.9694,-2.8962,-2.8587,-2.8549,-2.8242,-2.8088,-3.8375,-3.9538,-4.0167,-3.9661,-3.7589,-3.5048,-3.2504,0.0,-2.7593,-2.5557,-2.5174,-2.5191,-2.5191,-2.5459,-2.6332,-2.837,-2.9268,-3.1286,-3.5859,0.0,0.0,0.0,0.0,0.0,0.0,0.0,0.0,-5.0109,-5.0243,-5.0267,-5.0302,-5.0302,-5.0302,-5.0302,-5.0302,-5.0278,-5.0243,-5.0243,-5.0243,-5.0243,-5.0243,-5.0243,-5.0243,-5.029,-5.0278,-5.0147,-4.8343,-4.7571,0.0,-4.5489,-4.4726,-4.4752,-4.4618,-4.4323,-4.3931,-4.3781,-4.3439,-4.3013,-4.2994,-4.2975,-4.2975,-4.2975,-4.2994,-4.3013,-4.2994,-4.303,-4.3068,-4.2938,-4.2901,-4.2901,-4.2901,-4.2901,-4.2901,-4.2901,-4.2901,-4.281,-4.2484,-4.1415,-4.0401,-4.013,-3.9043,-3.8209,-3.8209,-3.8209,-3.8209,-3.8209,-3.7937,-3.7557,-3.7067,-3.6451,-3.5675,-3.4715,-3.3882,-3.3393,-3.3393,-3.3393,-3.3393,-3.3393,-3.3103,-3.2922,-3.2922,-3.2144,-3.1709,-3.1709,-3.0926,-3.0527,-3.0527,-3.0188,-2.9679,-2.9017,-2.8872,-2.8617,-3.7119,-3.8585,-3.9374,-3.8763,-3.671,-3.423,0.0,0.0,-2.7179,-2.5456,-2.5143,-2.5191,-2.5191,-2.5191,-2.5663,-2.7071,-2.772,-2.944,-3.3398,0.0,0.0,0.0,0.0,0.0,0.0,0.0,0.0,-5.0087,-5.0175,-5.02,-5.0243,-5.0267,-5.0278,-5.0302,-5.0302,-5.0267,-5.02,-5.02,-5.0188,-5.0163,-5.0163,-5.0126,-5.0031,-4.9835,-4.9651,-4.9402,-4.7589,-4.6803,0.0,-4.4937,-4.427,-4.4294,-4.4161,-4.3906,-4.3642,-4.3539,-4.3248,-4.2901,-4.2901,-4.2901,-4.2901,-4.2901,-4.2901,-4.2901,-4.2901,-4.2975,-4.303,-4.2938,-4.2901,-4.2901,-4.2901,-4.2901,-4.2901,-4.2901,-4.2901,-4.2901,-4.2901,-4.1814,-4.0782,-4.0546,-3.9441,-3.848,-3.8245,-3.8209,-3.8209,-3.8209,-3.8209,-3.8009,-3.743,-3.7158,-3.6578,-3.5421,-3.4389,-3.3665,-3.3429,-3.3393,-3.3393,-3.3393,-3.3393,-3.3393,-3.3393,-3.285,-3.2542,-3.2542,-3.1763,-3.1347,-3.1347,-3.1125,-3.054,-2.9654,-2.9651,-2.9294,-3.4958,-3.647,-3.7712,-3.7712,-3.5796,-3.3473,0.0,-2.9429,-2.7134,-2.545,-2.5143,-2.5191,-2.5191,-2.5191,-2.5478,-2.6275,-2.7803,-3.0063,-3.3435,0.0,0.0,0.0,0.0,0.0,0.0,0.0,-5.0144,-5.0108,-5.0151,0.0,-5.0108,-5.0151,-5.0224,-5.0302,-5.0302,-5.0267,-5.02,-5.02,-5.017,-5.0108,-5.0108,-4.9933,-4.9579,-4.8777,-4.8186,-4.7751,-4.6109,-4.5417,0.0,-4.4472,-4.4098,-4.4098,-4.4098,-4.3859,-4.3505,-4.3505,-4.3248,-4.2901,-4.2901,-4.2901,-4.2901,-4.2901,-4.2901,-4.2901,-4.2901,-4.2901,-4.2901,-4.2901,-4.2901,-4.2901,-4.2901,-4.2901,-4.2901,-4.2901,-4.2901,-4.2901,-4.2901,-4.2266,-4.1451,-4.0637,-3.9894,-3.9115,-3.8354,-3.8209,-3.8209,-3.8209,-3.8209,-3.8209,-3.8191,-3.7502,-3.6995,-3.6977,-3.553,-3.428,-3.3465,-3.3393,-3.3393,-3.3393,-3.3393,-3.3393,-3.3393,-3.3393,-3.3393,-3.3393,-3.2596,-3.218,-3.218,-3.1397,-3.0818,-3.0484,-3.0493,-3.0121,-3.1768,-3.3345,-3.4491,-3.3336,-3.2093,-3.0712,-2.8992,-2.7621,-2.6383,-2.5253,-2.507,-2.5139,-2.5139,-2.5132,-2.5977,-2.8517,-2.9405,-3.0737,0.0,0.0,0.0,0.0,0.0,0.0,0.0,0.0,-4.9499,-5.0006,-5.0057,-5.0063,-5.0095,-4.955,-4.9537,-5.0139,-5.0219,-5.0194,-5.005,-5.005,-5.0038,-5.0031,-5.0031,-4.9688,-4.9045,-4.8602,-4.7971,-4.7177,-4.5693,-4.5071,-4.4965,-4.3875,-4.3441,-4.3475,-4.3318,-4.3249,-4.3214,-4.3124,-4.3014,-4.2901,-4.2901,-4.2901,-4.2901,-4.2901,-4.2901,-4.2901,-4.2901,-4.2901,-4.2901,-4.2901,-4.2901,-4.2901,-4.2901,-4.2901,-4.2901,-4.2901,-4.2901,-4.2901,-4.2901,-4.2266,-4.1451,-4.0655,-3.9894,-3.9134,-3.8354,-3.8209,-3.8209,-3.8209,-3.8209,-3.8209,-3.8209,-3.7991,-3.7611,-3.7049,-3.6542,-3.5693,-3.4353,-3.3719,-3.3393,-3.3393,-3.3393,-3.3393,-3.3393,-3.3393,-3.3393,-3.3393,-3.3158,-3.3013,-3.3013,-3.2484,-3.1782,-3.0904,-3.0623,-3.0387,0.0,-3.0788,-3.1713,-3.0734,-2.9928,-2.9015,-2.7676,-2.6814,-2.6045,-2.5189,-2.5057,-2.5101,-2.5095,-2.5095,-2.578,-2.7875,-2.8807,-3.0092,0.0,0.0,0.0,0.0,0.0,0.0,0.0,-4.7612,-4.8561,-4.8991,-4.9042,-4.9068,-4.9081,-4.8593,-4.8555,-4.9062,-4.9492,-4.9797,-5.0005,-4.9701,-4.9688,-4.9946,-4.932,-4.885,-4.8515,-4.7744,-4.6986,-4.6218,-4.4911,-4.4328,0.0,-4.3397,-4.305,-4.3068,-4.2957,-4.2938,-4.3012,-4.2938,-4.2901,-4.2901,-4.2901,-4.2901,-4.2901,-4.2901,-4.2901,-4.2901,-4.2901,-4.2901,-4.2901,-4.2901,-4.2901,-4.2901,-4.2901,-4.2901,-4.2901,-4.2901,-4.2901,-4.2901,-4.2901,-4.2502,-4.1832,-4.0709,-4.013,-3.946,-3.839,-3.8209,-3.8209,-3.8209,-3.8209,-3.8209,-3.8209,-3.8209,-3.8009,-3.7502,-3.7176,-3.6596,-3.5584,-3.4498,-3.3846,-3.3846,-3.3574,-3.3393,-3.3393,-3.3393,-3.3393,-3.3393,-3.3256,-3.3178,-3.3178,-3.2634,-3.2104,-3.1547,-3.1149,-3.0952,0.0,-2.8624,0.0,0.0,-2.8791,-2.8037,-2.7403,-2.6693,0.0,-2.5144,-2.5037,-2.5108,-2.5222,-2.5165,-2.5209,-2.5533,-2.6912,0.0,0.0,0.0,0.0,0.0,0.0,0.0,0.0,-4.6455,-4.7403,-4.7409,-4.746,-4.746,-4.7409,-4.7403,-4.7403,-4.7409,-4.8245,-4.9049,-4.9815,-4.9074,-4.9035,-4.9703,-4.8136,-4.7605,-4.7905,-4.6354,-4.5432,0.0,-4.3838,-4.3371,-4.3336,-4.3032,-4.2901,-4.2901,-4.2901,-4.2901,-4.2901,-4.2901,-4.2901,-4.2901,-4.2901,-4.2901,-4.2901,-4.2901,-4.2901,-4.2901,-4.2901,-4.2901,-4.2901,-4.2901,-4.2901,-4.2901,-4.2901,-4.2901,-4.2901,-4.2901,-4.2901,-4.2901,-4.2901,-4.2901,-4.2429,-4.089,-4.0528,-4.0039,-3.8536,-3.8245,-3.8209,-3.8209,-3.8209,-3.8209,-3.8209,-3.8209,-3.8209,-3.8209,-3.7538,-3.7085,-3.7085,-3.5602,-3.4682,-3.4682,-3.3936,-3.3502,-3.3502,-3.3429,-3.3393,-3.3393,-3.3003,-3.2779,-3.2715,-3.2039,-3.1878,-3.2214,-3.1841,-3.1658,-2.4829,0.0,-2.6066,-2.5443,-2.5245,-2.518,0.0,-2.4922,-2.4824,-2.4772,0.0,0.0,-2.6398,-2.575,-2.6231,-2.9867,-3.0444,-3.1526,0.0,0.0,0.0,0.0,0.0,0.0,0.0,-4.6272,-4.6759,-4.734,-4.7409,-4.7422,-4.7397,-4.6834,-4.6778,-4.7378,-4.7037,-4.7207,-4.7991,-4.782,-4.782,-4.7965,-4.7586,-4.7143,-4.6617,-4.5731,-4.4917,-4.4143,-4.3358,-4.3014,-4.2995,-4.2939,-4.2901,-4.2901,-4.2901,-4.2901,-4.2901,-4.2901,-4.2901,-4.2901,-4.2901,-4.2901,-4.2901,-4.2901,-4.2901,-4.2901,-4.2901,-4.2901,-4.2901,-4.2901,-4.2901,-4.2901,-4.2901,-4.2901,-4.2901,-4.2901,-4.2901,-4.2901,-4.2901,-4.2901,-4.2611,-4.1596,-4.0926,-4.022,-3.9278,-3.8625,-3.8209,-3.8209,-3.8209,-3.8209,-3.8209,-3.8209,-3.8209,-3.8209,-3.8028,-3.7919,-3.7919,-3.6435,-3.5514,-3.5514,-3.4754,-3.4317,-3.4317,-3.3737,-3.3393,-3.3393,-3.3003,-3.2517,-3.195,-3.1787,-3.162,-3.1466,-3.1351,-3.1329,-2.3847,-2.4467,-2.5026,-2.4644,-2.4626,-2.4734,-2.481,0.0,0.0,0.0,0.0,0.0,0.0,0.0,0.0,0.0,-3.1324,0.0,0.0,0.0,0.0,0.0,0.0,0.0,0.0,-4.5596,-4.5786,-4.6222,-4.6241,-4.6241,-4.6241,-4.5843,-4.5805,-4.6241,-4.5824,-4.6184,-4.7378,-4.7018,-4.7018,-4.7378,-4.662,-4.6139,-4.5946,-4.518,-4.4494,-4.3865,-4.3354,-4.3123,-4.3124,-4.2976,-4.2901,-4.2901,-4.2901,-4.2901,-4.2901,-4.2901,-4.2901,-4.2901,-4.2901,-4.2901,-4.2901,-4.2901,-4.2901,-4.2901,-4.2901,-4.2901,-4.2901,-4.2901,-4.2901,-4.2901,-4.2901,-4.2901,-4.2901,-4.2901,-4.2901,-4.2901,-4.2901,-4.2901,-4.2647,-4.185,-4.1343,-4.0691,-3.9586,-3.9025,-3.8644,-3.8263,-3.8209,-3.8209,-3.8209,-3.8209,-3.8209,-3.8209,-3.8209,-3.8209,-3.8209,-3.7395,-3.6743,-3.6363,-3.5602,-3.5152,-3.5152,-3.4389,-3.362,-3.2912,-3.2684,-3.2214,-3.1468,-3.1468,-3.137,-3.119,-3.119,-3.119,-2.394,-2.4664,-2.5325,-2.5124,-2.5165,-2.5271,-2.53,0.0,0.0,0.0,0.0,0.0,0.0,0.0,0.0,0.0,0.0,0.0,0.0,0.0,0.0,0.0,0.0,0.0,-4.4895,-4.4895,-4.4895,-4.4895,-4.4895,-4.4895,-4.4895,-4.4895,-4.4895,-4.4895,-4.4895,-4.5577,-4.6999,-4.6335,-4.6335,-4.6999,-4.554,-4.5059,-4.5467,-4.4636,-4.4076,-4.3802,0.0,0.0,-4.3301,-4.3014,-4.2901,-4.2901,-4.2901,-4.2901,-4.2901,-4.2901,-4.2901,-4.2901,-4.2901,-4.2901,-4.2901,-4.2901,-4.2901,-4.2901,-4.2901,-4.2901,-4.2901,-4.2901,-4.2901,-4.2901,-4.2901,-4.2901,-4.2901,-4.2901,-4.2901,-4.2901,-4.2901,-4.2901,-4.2701,-4.2012,-4.1777,-4.1288,-3.9985,-3.955,-3.9187,-3.8499,-3.8281,-3.8209,-3.8209,-3.8209,-3.8209,-3.8209,-3.8209,-3.8209,-3.8209,-3.8209,-3.7919,-3.723,-3.6435,-3.5931,-3.5804,-3.5025,-3.3966,-3.2596,-3.2387,-3.195,-3.1271,-3.123,-3.119,-3.119,-3.119,-3.119,-2.4628,-2.5914,-2.6548,-2.4526,-2.4537,-2.4882,-2.4216,0.0,0.0,0.0,0.0,0.0,0.0,0.0,0.0,0.0,0.0,0.0,0.0,0.0,0.0,0.0,0.0,-4.4895,-4.4895,-4.4895,-4.4895,-4.4895,-4.4895,-4.4895,-4.4895,-4.4895,-4.4895,-4.4895,-4.4895,-4.5028,-4.5274,-4.516,-4.516,-4.5274,-4.4742,-4.4532,-4.459,-4.3871,-4.3523,-4.3474,0.0,-4.2976,-4.2958,-4.292,-4.2901,-4.2901,-4.2901,-4.2901,-4.2901,-4.2901,-4.2901,-4.2901,-4.2901,-4.2901,-4.2901,-4.2901,-4.2901,-4.2901,-4.2901,-4.2901,-4.2901,-4.2901,-4.2901,-4.2901,-4.2901,-4.2901,-4.2901,-4.2901,-4.2901,-4.2901,-4.2901,-4.2901,-4.2846,-4.2737,-4.2176,-4.1614,-4.1379,-4.0256,-3.9351,-3.9224,-3.8644,-3.8209,-3.8209,-3.8209,-3.8209,-3.8209,-3.8209,-3.8209,-3.8209,-3.8209,-3.8154,-3.8028,-3.7267,-3.6508,-3.5822,-3.5025,-3.433,-3.3762,-3.2805,-3.2074,-3.162,-3.1349,-3.119,-3.119,-3.119,-3.119,-2.4248,-2.5208,-2.595,-2.5262,-2.6349,-2.7381,-2.6584,-2.6391,0.0,0.0,0.0,0.0,0.0,0.0,0.0,0.0,0.0,0.0,0.0,0.0,0.0,0.0,0.0,-4.4895,-4.4895,-4.4895,-4.4895,-4.4895,-4.4895,-4.4895,-4.4895,-4.4895,-4.4895,-4.4895,-4.4895,-4.4895,-4.4895,-4.4895,-4.4802,-4.4623,-4.4471,-4.4213,-4.3846,-4.354,-4.3301,-4.3105,0.0,-4.2901,-4.2901,-4.2901,-4.2901,-4.2901,-4.2901,-4.2901,-4.2901,-4.2901,-4.2901,-4.2901,-4.2901,-4.2901,-4.2901,-4.2901,-4.2901,-4.2901,-4.2901,-4.2901,-4.2901,-4.2901,-4.2901,-4.2901,-4.2901,-4.2901,-4.2901,-4.2901,-4.2901,-4.2901,-4.2901,-4.2901,-4.2901,-4.2901,-4.2592,-4.2212,-4.1759,-4.0745,-3.9858,-3.946,-3.8734,-3.8209,-3.8209,-3.8209,-3.8209,-3.8209,-3.8209,-3.8209,-3.8209,-3.8209,-3.8209,-3.8209,-3.7846,-3.7285,-3.6472,-3.6091,-3.5514,-3.4666,-3.4123,-3.3371,-3.2353,-3.2593,-3.2397,-3.1802,-3.1802,-3.1802,-2.3976,-2.452,-2.519,-2.6005,0.0,-2.8715,-2.8848,-2.8582,0.0,0.0,0.0,0.0,0.0,0.0,0.0,0.0,0.0,0.0,0.0,0.0,-4.4895,-4.4895,-4.4895,-4.4895,-4.4895,-4.4895,-4.4895,-4.4895,-4.4895,-4.4895,-4.4895,-4.4895,-4.4895,-4.4895,-4.4895,-4.4895,-4.4895,-4.4814,-4.4694,-4.453,-4.4355,-4.4001,-4.3507,-4.3354,-4.3142,-4.2901,-4.2901,-4.2901,-4.2901,-4.2901,-4.2901,-4.2901,-4.2901,-4.2901,-4.2901,-4.2901,-4.2901,-4.2901,-4.2901,-4.2901,-4.2901,-4.2901,-4.2901,-4.2901,-4.2901,-4.2901,-4.2901,-4.2901,-4.2901,-4.2901,-4.2901,-4.2901,-4.2901,-4.2901,-4.2901,-4.2901,-4.2901,-4.2901,-4.2901,-4.2901,-4.2901,-4.2701,-4.2103,-4.1307,-4.0546,-3.9767,-3.8989,-3.8408,-3.8227,-3.8209,-3.8209,-3.8209,-3.8209,-3.8209,-3.8209,-3.8209,-3.8209,-3.8209,-3.8209,-3.7919,-3.7303,-3.7104,-3.6573,-3.5625,-3.5343,-3.4571,-3.3299,-3.3775,-3.3502,-3.2564,-3.2564,-3.2564,-2.452,-2.4954,-2.519,-2.6005,-2.5769,-2.6113,-2.906,-2.8558,0.0,-3.0369,0.0,0.0,0.0,0.0,0.0,0.0,0.0,0.0,0.0,0.0,-4.4895,-4.4895,-4.4895,-4.4895,-4.4895,-4.4895,-4.4895,-4.4895,-4.4895,-4.4895,-4.4895,-4.4895,-4.4895,-4.4895,-4.4895,-4.4895,-4.4895,-4.4597,-4.4584,-4.4858,-4.4227,-4.3912,-4.3849,-4.3231,-4.292,-4.2901,-4.2901,-4.2901,-4.2901,-4.2901,-4.2901,-4.2901,-4.2901,-4.2901,-4.2901,-4.2901,-4.2901,-4.2901,-4.2901,-4.2901,-4.2901,-4.2901,-4.2901,-4.2901,-4.2901,-4.2901,-4.2901,-4.2901,-4.2901,-4.2901,-4.2901,-4.2901,-4.2901,-4.2901,-4.2901,-4.2901,-4.2901,-4.2901,-4.2901,-4.2901,-4.2901,-4.2883,-4.2829,-4.2158,-4.1343,-4.0528,-3.9786,-3.9025,-3.8299,-3.8209,-3.8209,-3.8209,-3.8209,-3.8209,-3.8209,-3.8209,-3.8209,-3.8209,-3.8209,-3.8172,-3.8118,-3.7393,-3.6961,-3.6872,-3.5783,-3.4959,-3.4474,-3.417,-3.3774,-3.3322,-3.3322,-3.3322,-2.3976,-2.461,-2.5316,-2.6609,-2.7079,0.0,0.0,-3.1238,-3.2415,-3.435,-3.5286,0.0,0.0,0.0,0.0,0.0,0.0,0.0,-4.4895,-4.4895,-4.4895,-4.4895,-4.4895,-4.4895,-4.4895,-4.4895,-4.4895,-4.4895,-4.4895,-4.4895,-4.4895,-4.4895,-4.4895,-4.4895,-4.4895,-4.4895,-4.4895,-4.4777,-4.4681,-4.4584,-4.3909,-4.3473,-4.3266,-4.3014,-4.2901,-4.2901,-4.2901,-4.2901,-4.2901,-4.2901,-4.2901,-4.2901,-4.2901,-4.2901,-4.2901,-4.2901,-4.2901,-4.2901,-4.2901,-4.2901,-4.2901,-4.2901,-4.2901,-4.2901,-4.2901,-4.2901,-4.2901,-4.2901,-4.2901,-4.2901,-4.2901,-4.2901,-4.2901,-4.2901,-4.2901,-4.2901,-4.2901,-4.2901,-4.2901,-4.2901,-4.2901,-4.2901,-4.2901,-4.223,-4.1433,-4.0619,-3.9876,-3.9097,-3.8299,-3.8209,-3.8209,-3.8209,-3.8209,-3.8209,-3.8209,-3.8209,-3.8209,-3.8209,-3.8209,-3.8209,-3.8209,-3.7919,-3.7756,-3.7756,-3.7297,-3.6487,-3.5356,-3.5659,-3.5206,-3.4083,-3.4083,-3.4083,-2.3324,-2.385,-2.4719,-2.6554,0.0,0.0,-3.16,-3.3411,-3.5204,-3.7321,-3.832,0.0,0.0,0.0,0.0,0.0,0.0,-4.4629,-4.472,-4.4732,-4.4777,-4.4883,-4.4895,-4.4895,-4.4895,-4.4895,-4.4895,-4.4895,-4.4895,-4.4895,-4.4895,-4.4895,-4.4895,-4.4895,-4.4895,-4.4895,-4.4895,-4.4789,-4.457,-4.4242,-4.3673,-4.3266,-4.305,-4.2957,-4.2901,-4.2901,-4.2901,-4.2901,-4.2901,-4.2901,-4.2901,-4.2901,-4.2901,-4.2901,-4.2901,-4.2901,-4.2901,-4.2901,-4.2901,-4.2901,-4.2901,-4.2901,-4.2901,-4.2901,-4.2901,-4.2901,-4.2901,-4.2901,-4.2901,-4.2901,-4.2901,-4.2901,-4.2901,-4.2901,-4.2901,-4.2901,-4.2901,-4.2901,-4.2901,-4.2901,-4.2901,-4.2901,-4.2901,-4.2448,-4.1795,-4.0999,-4.0456,-3.984,-3.9025,-3.8934,-3.8844,-3.8607,-3.8354,-3.8209,-3.8209,-3.8209,-3.8209,-3.8209,-3.8209,-3.8209,-3.8209,-3.8209,-3.8209,-3.8209,-3.8209,-3.7576,-3.6336,-3.6732,-3.6278,-3.5061,-3.491,-3.4844,-2.2717,-2.2717,-2.3296,0.0,0.0,0.0,-3.3719,-3.4643,-3.5548,-3.8771,-3.9423,-3.9641,-4.0383,0.0,0.0,-4.2064,-4.3153,-4.402,-4.4341,-4.4402,-4.453,-4.4858,-4.4883,-4.4883,-4.4883,-4.4883,-4.4883,-4.4883,-4.4895,-4.4895,-4.4895,-4.4895,-4.4895,-4.4895,-4.4895,-4.4895,-4.4895,-4.457,-4.4227,-4.3896,-4.3557,-4.3406,-4.3388,-4.305,-4.2901,-4.2901,-4.2901,-4.2901,-4.2901,-4.2901,-4.2901,-4.2901,-4.2901,-4.2901,-4.2901,-4.2901,-4.2901,-4.2901,-4.2901,-4.2901,-4.2901,-4.2901,-4.2901,-4.2901,-4.2901,-4.2901,-4.2901,-4.2901,-4.2901,-4.2901,-4.2901,-4.2901,-4.2901,-4.2901,-4.2901,-4.2901,-4.2901,-4.2901,-4.2901,-4.2901,-4.2901,-4.2901,-4.2901,-4.2901,-4.2629,-4.1813,-4.1705,-4.1415,-4.0583,-4.0492,-4.022,-3.946,-3.868,-3.8209,-3.8209,-3.8209,-3.8209,-3.8209,-3.8209,-3.8209,-3.8209,-3.8209,-3.8209,-3.8209,-3.8209,-3.7967,-3.7505,-3.7113,-3.6698,-3.6301,-3.5805,-3.56,-2.3324,-2.4302,0.0,0.0,0.0,0.0,0.0,-3.6725,0.0,0.0,-4.1415,-4.1071,-4.1288,0.0,0.0,-4.2156,-4.3153,-4.3943,-4.4035,-4.405,-4.4095,-4.4184,-4.4198,-4.4198,-4.4198,-4.4198,-4.4285,-4.4525,-4.4557,-4.4655,-4.4883,-4.4895,-4.4895,-4.4895,-4.4895,-4.4895,-4.4895,-4.457,-4.4227,-4.3896,-4.3557,-4.3284,-4.305,-4.2957,-4.2901,-4.2901,-4.2901,-4.2901,-4.2901,-4.2901,-4.2901,-4.2901,-4.2901,-4.2901,-4.2901,-4.2901,-4.2901,-4.2901,-4.2901,-4.2901,-4.2901,-4.2901,-4.2901,-4.2901,-4.2901,-4.2901,-4.2901,-4.2901,-4.2901,-4.2901,-4.2901,-4.2901,-4.2901,-4.2901,-4.2901,-4.2901,-4.2901,-4.2901,-4.2901,-4.2901,-4.2901,-4.2901,-4.2901,-4.2901,-4.2629,-4.1813,-4.1705,-4.1216,-3.9894,-3.9731,-3.9423,-3.8644,-3.8354,-3.8209,-3.8209,-3.8209,-3.8209,-3.8209,-3.8209,-3.8209,-3.8209,-3.8209,-3.8209,-3.8209,-3.8209,-3.7967,-3.7505,-3.7395,-3.6978,-3.6301,-3.6152,-3.5915,-2.3596,-2.4972,0.0,0.0,0.0,0.0,-3.8101,0.0,0.0,0.0,0.0,-4.1795,-4.2122,-4.2086,0.0,-4.2428,-4.3041,-4.354,-4.3689,-4.3705,-4.3754,-4.3881,-4.3896,-4.3896,-4.3896,-4.3896,-4.3989,-4.4184,-4.4327,-4.4484,-4.4694,-4.4833,-4.4895,-4.4895,-4.4895,-4.4895,-4.4895,-4.457,-4.4227,-4.3896,-4.3557,-4.3231,-4.2901,-4.2901,-4.2901,-4.2901,-4.2901,-4.2901,-4.2901,-4.2901,-4.2901,-4.2901,-4.2901,-4.2901,-4.2901,-4.2901,-4.2901,-4.2901,-4.2901,-4.2901,-4.2901,-4.2901,-4.2901,-4.2901,-4.2901,-4.2901,-4.2901,-4.2901,-4.2901,-4.2901,-4.2901,-4.2901,-4.2901,-4.2901,-4.2901,-4.2901,-4.2901,-4.2901,-4.2901,-4.2901,-4.2901,-4.2901,-4.2901,-4.2901,-4.2737,-4.2248,-4.2194,-4.185,-4.0908,-4.022,-3.9767,-3.9604,-3.8753,-3.8336,-3.8662,-3.839,-3.8209,-3.8209,-3.8209,-3.8209,-3.8209,-3.8209,-3.8209,-3.8209,-3.8209,-3.8054,-3.7774,-3.7432,-3.7017,-3.6516,-3.6178,-3.5871,-2.3777,0.0,0.0,0.0,0.0,0.0,0.0,0.0,0.0,0.0,0.0,-4.2012,-4.2755,-4.2303,-4.2049,-4.2774,-4.2901,-4.3013,-4.3301,-4.3354,-4.3474,-4.377,-4.3818,-4.3818,-4.3818,-4.3818,-4.3818,-4.3849,-4.4169,-4.4369,-4.4402,-4.4707,-4.4895,-4.4895,-4.487,-4.487,-4.4895,-4.4517,-4.4169,-4.3896,-4.3523,-4.3195,-4.2901,-4.2901,-4.2901,-4.2901,-4.2901,-4.2901,-4.2901,-4.2901,-4.2901,-4.2901,-4.2901,-4.2901,-4.2901,-4.2901,-4.2901,-4.2901,-4.2901,-4.2901,-4.2901,-4.2901,-4.2901,-4.2901,-4.2901,-4.2901,-4.2901,-4.2901,-4.2901,-4.2901,-4.2901,-4.2901,-4.2901,-4.2901,-4.2901,-4.2901,-4.2901,-4.2901,-4.2901,-4.2901,-4.2901,-4.2901,-4.2901,-4.2901,-4.2901,-4.2901,-4.2901,-4.2883,-4.2792,-4.1506,-4.0854,-4.1524,-3.9623,-3.8625,-3.9333,-3.8662,-3.8209,-3.8209,-3.8209,-3.8209,-3.8209,-3.8209,-3.8209,-3.8209,-3.8209,-3.8209,-3.8209,-3.7357,-3.6939,-3.688,-3.6049,-3.5644,0.0,-2.6862,0.0,0.0,0.0,0.0,0.0,0.0,0.0,0.0,0.0,0.0,-4.2883,-4.2755,-4.2701,-4.2883,-4.2901,-4.292,-4.3013,-4.3013,-4.3032,-4.3124,-4.3124,-4.3124,-4.3124,-4.3124,-4.3231,-4.3491,-4.3818,-4.4125,-4.4402,-4.4707,-4.4895,-4.4895,-4.4636,-4.4623,-4.4895,-4.405,-4.3721,-4.3896,-4.3284,-4.2976,-4.2901,-4.2901,-4.2901,-4.2901,-4.2901,-4.2901,-4.2901,-4.2901,-4.2901,-4.2901,-4.2901,-4.2901,-4.2901,-4.2901,-4.2901,-4.2901,-4.2901,-4.2901,-4.2901,-4.2901,-4.2901,-4.2901,-4.2901,-4.2901,-4.2901,-4.2901,-4.2901,-4.2901,-4.2901,-4.2901,-4.2901,-4.2901,-4.2901,-4.2901,-4.2901,-4.2901,-4.2901,-4.2901,-4.2901,-4.2901,-4.2901,-4.2901,-4.2901,-4.2901,-4.2901,-4.2665,-4.2049,-4.165,-4.127,-4.08,-3.9786,-3.9206,-3.9387,-3.8662,-3.8209,-3.8209,-3.8209,-3.8209,-3.8209,-3.8209,-3.8209,-3.8209,-3.8209,-3.8209,-3.8209,-3.7632,-3.7208,-3.688,-3.6388,-3.5958,0.0,0.0,0.0,0.0,0.0,0.0,0.0,0.0,0.0,0.0,0.0,0.0,-4.2901,-4.2901,-4.2901,-4.2901,-4.2901,-4.2901,-4.2901,-4.2901,-4.2901,-4.2901,-4.2901,-4.2901,-4.2901,-4.2901,-4.2958,-4.3142,-4.3456,-4.3738,-4.3909,-4.4242,-4.4484,-4.4668,-4.4484,-4.457,-4.4895,-4.4227,-4.3896,-4.3896,-4.3388,-4.305,-4.2901,-4.2901,-4.2901,-4.2901,-4.2901,-4.2901,-4.2901,-4.2901,-4.2901,-4.2901,-4.2901,-4.2901,-4.2901,-4.2901,-4.2901,-4.2901,-4.2901,-4.2901,-4.2901,-4.2901,-4.2901,-4.2901,-4.2901,-4.2901,-4.2901,-4.2901,-4.2901,-4.2901,-4.2901,-4.2901,-4.2901,-4.2901,-4.2901,-4.2901,-4.2901,-4.2901,-4.2901,-4.2901,-4.2901,-4.2901,-4.2901,-4.2901,-4.2901,-4.2901,-4.2901,-4.2737,-4.2339,-4.194,-4.1687,-4.1651,-4.0619,-4.0075,-4.0474,-3.9441,-3.8753,-3.8753,-3.8408,-3.8209,-3.8209,-3.8209,-3.8209,-3.8209,-3.8209,-3.8209,-3.8209,-3.7523,-3.7113,-3.688,-3.6262,-3.5827,0.0,0.0,0.0,0.0,0.0,0.0,0.0,0.0,0.0,0.0,0.0,0.0,-4.2901,-4.2901,-4.2901,-4.2901,-4.2901,-4.2901,-4.2901,-4.2901,-4.2901,-4.2901,-4.2901,-4.2901,-4.2901,-4.2901,-4.2901,-4.2901,-4.3213,-4.3406,-4.3406,-4.3721,-4.4035,-4.4299,-4.4256,-4.4402,-4.472,-4.4327,-4.4031,-4.3818,-4.3473,-4.3178,-4.2901,-4.2901,-4.2901,-4.2901,-4.2901,-4.2901,-4.2901,-4.2901,-4.2901,-4.2901,-4.2901,-4.2901,-4.2901,-4.2901,-4.2901,-4.2901,-4.2901,-4.2901,-4.2901,-4.2901,-4.2901,-4.2901,-4.2901,-4.2901,-4.2901,-4.2901,-4.2901,-4.2901,-4.2901,-4.2901,-4.2901,-4.2901,-4.2901,-4.2901,-4.2901,-4.2901,-4.2901,-4.2901,-4.2901,-4.2901,-4.2901,-4.2901,-4.2901,-4.2901,-4.2901,-4.2901,-4.2901,-4.2321,-4.2158,-4.2828,-4.1578,-4.0981,-4.1632,-4.0401,-3.9532,-3.9405,-3.8788,-3.8354,-3.8209,-3.8209,-3.8209,-3.8209,-3.8209,-3.8209,-3.8209,-3.732,-3.69,-3.688,-3.6006,-3.56,0.0,0.0,0.0,0.0,0.0,0.0,0.0,0.0,0.0,0.0,0.0,-4.2901,-4.2901,-4.2901,-4.2901,-4.2901,-4.2901,-4.2901,-4.2901,-4.2901,-4.2901,-4.2901,-4.2901,-4.2901,-4.2901,-4.2901,-4.2901,-4.2901,-4.3213,-4.3406,-4.3406,-4.3721,-4.3927,-4.3974,-4.3689,-4.3687,-4.4035,-4.3404,-4.3213,-4.3456,-4.3142,-4.2939,-4.2901,-4.2901,-4.2901,-4.2901,-4.2901,-4.2901,-4.2901,-4.2901,-4.2901,-4.2901,-4.2901,-4.2901,-4.2901,-4.2901,-4.2901,-4.2901,-4.2901,-4.2901,-4.2901,-4.2901,-4.2901,-4.2901,-4.2901,-4.2901,-4.2901,-4.2901,-4.2901,-4.2901,-4.2901,-4.2901,-4.2901,-4.2901,-4.2901,-4.2901,-4.2901,-4.2901,-4.2901,-4.2901,-4.2901,-4.2901,-4.2901,-4.2901,-4.2901,-4.2901,-4.2901,-4.2901,-4.2901,-4.281,-4.2774,-4.2901,-4.2085,-4.1578,-4.1687,-4.0872,-4.0093,-3.9441,-3.9297,-3.8933,-3.8227,-3.8209,-3.8209,-3.8209,-3.8209,-3.8209,-3.8209,-3.732,-3.69,-3.688,-3.6006,-3.56,-2.4918,0.0,0.0,0.0,0.0,0.0,0.0,0.0,0.0,0.0,0.0,-4.2901,-4.2901,-4.2901,-4.2901,-4.2901,-4.2901,-4.2901,-4.2901,-4.2901,-4.2901,-4.2901,-4.2901,-4.2901,-4.2901,-4.2901,-4.2901,-4.2901,-4.3032,-4.3105,-4.3105,-4.3248,-4.344,-4.3607,-4.3491,-4.3557,-4.3896,-4.3607,-4.344,-4.3406,-4.3069,-4.2901,-4.2901,-4.2901,-4.2901,-4.2901,-4.2901,-4.2901,-4.2901,-4.2901,-4.2901,-4.2901,-4.2901,-4.2901,-4.2901,-4.2901,-4.2901,-4.2901,-4.2901,-4.2901,-4.2901,-4.2901,-4.2901,-4.2901,-4.2901,-4.2901,-4.2901,-4.2901,-4.2901,-4.2901,-4.2901,-4.2901,-4.2901,-4.2901,-4.2901,-4.2901,-4.2901,-4.2901,-4.2901,-4.2901,-4.2901,-4.2901,-4.2901,-4.2901,-4.2901,-4.2901,-4.2901,-4.2901,-4.2901,-4.2901,-4.2901,-4.2901,-4.2574,-4.2375,-4.2375,-4.1614,-4.1035,-4.0709,-3.9876,-3.9224,-3.888,-3.8444,-3.8209,-3.8209,-3.8209,-3.8209,-3.8209,-3.732,-3.69,-3.688,-3.6006,-3.56,0.0,0.0,0.0,0.0,0.0,0.0,0.0,0.0,0.0,0.0,0.0,-4.2339,-4.2556,-4.2755,-4.2901,-4.2901,-4.2901,-4.2901,-4.2901,-4.2901,-4.2901,-4.2901,-4.2901,-4.2901,-4.2901,-4.2901,-4.2901,-4.2901,-4.2901,-4.2901,-4.2901,-4.2901,-4.3014,-4.3284,-4.3266,-4.3388,-4.364,-4.364,-4.3507,-4.3266,-4.3014,-4.2901,-4.2901,-4.2901,-4.2901,-4.2901,-4.2901,-4.2901,-4.2901,-4.2901,-4.2901,-4.2901,-4.2901,-4.2901,-4.2901,-4.2901,-4.2901,-4.2901,-4.2901,-4.2901,-4.2901,-4.2901,-4.2901,-4.2901,-4.2901,-4.2901,-4.2901,-4.2901,-4.2901,-4.2901,-4.2901,-4.2901,-4.2901,-4.2901,-4.2901,-4.2901,-4.2901,-4.2901,-4.2901,-4.2901,-4.2901,-4.2901,-4.2901,-4.2901,-4.2901,-4.2901,-4.2901,-4.2901,-4.2901,-4.2901,-4.2901,-4.2901,-4.2901,-4.2901,-4.2901,-4.2357,-4.1922,-4.1705,-4.0619,-3.9894,-3.9695,-3.8916,-3.8517,-3.8517,-3.8179,-3.802,-3.802,-3.7169,-3.6759,-3.6739,-3.5963,-3.56,0.0,0.0,0.0,0.0,0.0,0.0,0.0,0.0,0.0,0.0,-4.0601,-4.0854,-4.1614,-4.2393,-4.2901,-4.2901,-4.2901,-4.2901,-4.2901,-4.2901,-4.2901,-4.2901,-4.2901,-4.2901,-4.2901,-4.2901,-4.2901,-4.2901,-4.2901,-4.2901,-4.2901,-4.2901,-4.2901,-4.292,-4.292,-4.2939,-4.2957,-4.2957,-4.2939,-4.292,-4.2901,-4.2901,-4.2901,-4.2901,-4.2901,-4.2901,-4.2901,-4.2901,-4.2901,-4.2901,-4.2901,-4.2901,-4.2901,-4.2901,-4.2901,-4.2901,-4.2901,-4.2901,-4.2901,-4.2901,-4.2901,-4.2901,-4.2901,-4.2901,-4.2901,-4.2901,-4.2901,-4.2901,-4.2901,-4.2901,-4.2901,-4.2901,-4.2901,-4.2901,-4.2901,-4.2901,-4.2901,-4.2901,-4.2901,-4.2901,-4.2901,-4.2901,-4.2901,-4.2901,-4.2901,-4.2901,-4.2901,-4.2901,-4.2901,-4.2901,-4.2901,-4.2901,-4.2901,-4.2901,-4.2901,-4.2846,-4.2502,-4.1741,-4.1614,-4.1234,-4.0474,-3.9731,-3.9333,-3.9333,-3.8151,-3.7542,-3.7523,-3.6739,-3.6343,-3.6322,-3.5827,-3.56,0.0,0.0,0.0,0.0,0.0,0.0,0.0,0.0,0.0,0.0,-3.9822,-4.0583,-4.0872,-4.1578,-4.2303,-4.2829,-4.2901,-4.2901,-4.2901,-4.2901,-4.2901,-4.2901,-4.2901,-4.2901,-4.2901,-4.2901,-4.2901,-4.2901,-4.2901,-4.2901,-4.2901,-4.2901,-4.2901,-4.2901,-4.2901,-4.2901,-4.2901,-4.2901,-4.2901,-4.2901,-4.2901,-4.2901,-4.2901,-4.2901,-4.2901,-4.2901,-4.2901,-4.2901,-4.2901,-4.2901,-4.2901,-4.2901,-4.2901,-4.2901,-4.2901,-4.2901,-4.2901,-4.2901,-4.2901,-4.2901,-4.2901,-4.2901,-4.2901,-4.2901,-4.2901,-4.2901,-4.2901,-4.2901,-4.2901,-4.2901,-4.2901,-4.2901,-4.2901,-4.2901,-4.2901,-4.2901,-4.2901,-4.2901,-4.2901,-4.2901,-4.2901,-4.2901,-4.2901,-4.2901,-4.2901,-4.2901,-4.2901,-4.2901,-4.2901,-4.2901,-4.2901,-4.2901,-4.2901,-4.2901,-4.2901,-4.2901,-4.2774,-4.2484,-4.1976,-4.1578,-4.1288,-4.0075,-3.9387,-3.9387,-3.7897,-3.7246,-3.7505,-3.6698,-3.6301,-3.6301,-3.5805,-3.56,-2.1739,0.0,0.0,0.0,0.0,0.0,0.0,0.0,0.0,0.0,-3.8427,-3.9496,-4.0039,-4.0582,-4.127,-4.2321,-4.2502,-4.2592,-4.2846,-4.2901,-4.2901,-4.2901,-4.2901,-4.2901,-4.2901,-4.2901,-4.2901,-4.2901,-4.2901,0.0,-4.2901,-4.2901,-4.2901,-4.2901,-4.2901,-4.2901,-4.2901,-4.2901,-4.2901,-4.2901,-4.2901,-4.2901,-4.2901,-4.2901,-4.2901,-4.2901,-4.2901,-4.2901,-4.2901,-4.2901,-4.2901,-4.2901,-4.2901,-4.2901,-4.2901,-4.2901,-4.2901,-4.2901,-4.2901,-4.2901,-4.2901,-4.2901,-4.2901,-4.2901,-4.2901,-4.2901,-4.2901,-4.2901,-4.2901,-4.2901,-4.2901,-4.2901,-4.2901,-4.2901,-4.2901,-4.2901,-4.2901,-4.2901,-4.2901,-4.2901,-4.2901,-4.2901,-4.2901,-4.2901,-4.2901,-4.2901,-4.2901,-4.2901,-4.2901,-4.2901,-4.2901,-4.2901,-4.2901,-4.2901,-4.2901,-4.2901,-4.2901,-4.2901,-4.2393,-4.2103,-4.2103,-4.0709,-3.9878,-3.9767,-3.7985,-3.7126,-3.7302,-3.6474,-3.6067,-3.6067,-3.5756,-3.56,0.0,0.0,0.0,0.0,0.0,0.0,0.0,0.0,0.0,0.0,-3.6327,-3.7393,-3.9025,-3.9315,-3.9822,-4.1379,-4.165,-4.194,-4.2737,-4.2846,-4.2883,-4.2901,-4.2901,-4.2901,-4.2901,-4.2901,-4.2901,-4.2901,-4.2901,-4.2901,-4.2901,-4.2883,-4.2865,-4.2829,-4.2829,-4.2847,-4.2846,-4.2846,-4.2883,-4.2901,-4.2901,-4.2901,-4.2901,-4.2901,-4.2901,-4.2901,-4.2901,-4.2901,-4.2901,-4.2901,-4.2901,-4.2901,-4.2901,-4.2901,-4.2901,-4.2901,-4.2901,-4.2901,-4.2901,-4.2901,-4.2901,-4.2901,-4.2901,-4.2901,-4.2901,-4.2901,-4.2901,-4.2901,-4.2901,-4.2901,-4.2901,-4.2901,-4.2901,-4.2901,-4.2901,-4.2901,-4.2901,-4.2901,-4.2901,-4.2901,-4.2901,-4.2901,-4.2901,-4.2901,-4.2901,-4.2901,-4.2901,-4.2901,-4.2901,-4.2901,-4.2901,-4.2901,-4.2901,-4.2901,-4.2901,-4.2901,-4.2901,-4.2901,-4.2901,-4.2901,-4.2901,-4.1667,-4.0857,-4.0528,-3.85,-3.7272,-3.695,-3.6045,-3.56,-3.56,-3.56,-3.5616,-2.1332,0.0,0.0,0.0,0.0,0.0,0.0,0.0,0.0,0.0,-3.3846,-3.5059,-3.7267,-3.7665,-3.8191,-3.9786,-4.0492,-4.1107,-4.1922,-4.2012,-4.2248,-4.2828,-4.2901,-4.2901,-4.2901,-4.2901,-4.2901,0.0,-4.2901,-4.2901,-4.2901,-4.2357,-4.1778,-4.118,-4.1162,-4.1433,-4.2012,-4.2012,-4.2321,-4.2901,-4.2901,-4.2901,-4.2901,-4.2901,-4.2901,-4.2901,-4.2901,-4.2901,-4.2901,-4.2901,-4.2901,-4.2901,-4.2901,-4.2901,-4.2901,-4.2901,-4.2901,-4.2901,-4.2901,-4.2901,-4.2901,-4.2901,-4.2901,-4.2901,-4.2901,-4.2901,-4.2901,-4.2901,-4.2901,-4.2901,-4.2901,-4.2901,-4.2901,-4.2901,-4.2901,-4.2901,-4.2901,-4.2901,-4.2901,-4.2901,-4.2901,-4.2901,-4.2901,-4.2901,-4.2901,-4.2901,-4.2901,-4.2901,-4.2901,-4.2901,-4.2901,-4.2901,-4.2901,-4.2901,-4.2901,-4.2901,-4.2901,-4.2901,-4.2901,-4.2901,-4.2901,-4.1667,-4.0953,-4.0874,-3.9118,-3.8151,-3.8057,-3.6382,-3.56,-3.56,-3.56,-3.5904,0.0,0.0,0.0,0.0,0.0,0.0,0.0,-2.7526,0.0,0.0,0.0,-3.314,-3.5548,-3.5998,-3.6542,-3.8154,-3.8753,-3.955,-4.0999,-4.1198,-4.1361,-4.185,-4.1904,-4.1904,-4.1904,-4.1904,-4.1904,-4.1904,-4.1904,-4.1904,-4.1904,-4.1451,-4.0981,-4.051,-4.0492,-4.0727,-4.118,-4.1198,-4.1596,-4.2393,-4.2393,-4.2574,-4.2901,-4.2901,-4.2901,-4.2901,-4.2901,-4.2901,-4.2901,-4.2901,-4.2901,-4.2901,-4.2901,-4.2901,-4.2901,-4.2901,-4.2901,-4.2901,-4.2901,-4.2901,-4.2901,-4.2901,-4.2901,-4.2901,-4.2901,-4.2901,-4.2901,-4.2901,-4.2901,-4.2901,-4.2901,-4.2901,-4.2901,-4.2901,-4.2901,-4.2901,-4.2901,-4.2901,-4.2901,-4.2901,-4.2901,-4.2901,-4.2901,-4.2901,-4.2901,-4.2901,-4.2901,-4.2901,-4.2901,-4.2901,-4.2901,-4.2901,-4.2901,-4.2901,-4.2901,-4.2901,-4.2901,-4.2901,-4.2901,-4.2901,-4.2901,-4.1812,-4.1138,-4.1,-3.9485,-3.8561,-3.8253,-3.7108,-3.6546,-3.6546,-3.6546,-3.6823,0.0,0.0,0.0,0.0,0.0,0.0,-2.6446,-2.659,-2.6819,0.0,0.0,-3.1202,-3.3628,-3.4154,-3.4679,-3.6107,-3.656,-3.7593,-4.0021,-4.0383,-4.0401,-4.0492,-4.0492,-4.0492,-4.0492,-4.0492,-4.0492,-4.0492,-4.0492,-4.0456,-4.0383,-4.0383,-4.0329,-4.0239,-4.0239,-4.0275,-4.0383,-4.0383,-4.0782,-4.156,-4.156,-4.1995,-4.2755,-4.2755,-4.2829,-4.2901,-4.2901,-4.2901,-4.2901,-4.2901,-4.2901,-4.2901,-4.2901,-4.2901,-4.2901,-4.2901,-4.2901,-4.2901,-4.2901,-4.2901,-4.2901,-4.2901,-4.2901,-4.2901,-4.2901,-4.2901,-4.2901,-4.2901,-4.2901,-4.2901,-4.2901,-4.2901,-4.2901,-4.2901,-4.2901,-4.2901,-4.2901,-4.2901,-4.2901,-4.2901,-4.2901,-4.2901,-4.2901,-4.2901,-4.2901,-4.2901,-4.2901,-4.2901,-4.2901,-4.2901,-4.2901,-4.2901,-4.2901,-4.2901,-4.2901,-4.2901,-4.2901,-4.2901,-4.2901,-4.2901,-4.2901,-4.2056,-4.1403,-4.1045,-3.9761,-3.8802,-3.8142,-3.799,-3.7905,-3.7905,-3.7905,-3.7939,-2.5552,0.0,0.0,0.0,0.0,0.0,-2.4954,-2.5389,-2.6331,0.0,0.0,0.0,-3.0292,-3.127,-3.1813,-3.2121,-3.3791,-3.6127,-3.9188,-3.9604,-3.984,-4.042,-4.0492,-4.0492,-4.0492,-4.0492,-4.0492,-4.0492,-4.0492,-4.0256,-3.9641,-3.9604,-3.9315,-3.8663,-3.8645,-3.8952,-3.9604,-3.9604,-4.0003,-4.0727,-4.0727,-4.1162,-4.1922,-4.1922,-4.2303,-4.2901,-4.2901,-4.2901,-4.2901,-4.2901,-4.2901,-4.2901,-4.2901,-4.2901,-4.2901,-4.2901,-4.2901,-4.2901,-4.2901,-4.2901,-4.2901,-4.2901,-4.2901,-4.2901,-4.2901,-4.2901,-4.2901,-4.2901,-4.2901,-4.2901,-4.2901,-4.2901,-4.2901,-4.2901,-4.2901,-4.2901,-4.2901,-4.2901,-4.2901,-4.2901,-4.2901,-4.2901,-4.2901,-4.2901,-4.2901,-4.2901,-4.2901,-4.2901,-4.2901,-4.2901,-4.2901,-4.2901,-4.2901,-4.2901,-4.2901,-4.2901,-4.2901,-4.2901,-4.2901,-4.2901,-4.2901,-4.236,-4.186,-4.1423,-4.0388,-3.9808,-3.9673,-3.8481,-3.7905,-3.7905,-3.7905,-3.8227,0.0,0.0,0.0,-2.6312,0.0,0.0,0.0,-2.5009,-2.5335,-2.6554,-2.6168,0.0,0.0,0.0,-2.9608,-3.0799,-3.2017,-3.3502,-3.553,-3.6852,-3.7739,-3.8103,-3.8518,-3.8753,-3.8753,-3.9115,-3.9351,-3.9351,-3.9351,-3.9188,-3.8808,-3.8807,-3.8625,-3.8209,-3.8209,-3.839,-3.8807,-3.8807,-3.9188,-3.9948,-3.9948,-4.0582,-4.1705,-4.1705,-4.214,-4.2901,-4.2901,-4.2901,-4.2901,-4.2901,-4.2901,-4.2901,-4.2901,-4.2901,-4.2901,-4.2901,-4.2901,-4.2901,-4.2901,-4.2901,-4.2901,-4.2901,-4.2901,-4.2901,-4.2901,-4.2901,-4.2901,-4.2901,-4.2901,-4.2901,-4.2901,-4.2901,-4.2901,-4.2901,-4.2901,-4.2901,-4.2901,-4.2901,-4.2901,-4.2901,-4.2901,-4.2901,-4.2901,-4.2901,-4.2901,-4.2901,-4.2901,-4.2901,-4.2901,-4.2901,-4.2901,-4.2901,-4.2901,-4.2901,-4.2901,-4.2901,-4.2901,-4.2901,-4.2901,-4.2901,-4.2901,-4.2438,-4.1867,-4.1162,-4.0458,-4.0096,-4.0096,-3.9343,-3.8988,-3.8988,-3.8988,-3.9191,0.0,0.0,0.0,0.0,0.0,-2.6276,0.0,0.0,0.0,-2.6367,0.0,0.0,0.0,0.0,0.0,0.0,0.0,0.0,0.0,-3.3121,0.0,-3.5062,-3.5946,-3.6542,-3.6542,-3.6995,-3.7395,-3.7703,-3.7576,-3.7647,-3.7955,-3.8118,-3.8209,-3.8209,-3.8209,-3.8209,-3.8209,-3.8209,-3.8535,-3.9187,-3.9187,-3.9894,-4.1252,-4.1397,-4.1904,-4.2683,-4.2828,-4.2901,-4.2901,-4.2901,-4.2901,-4.2901,-4.2901,-4.2901,-4.2901,-4.2901,-4.2901,-4.2901,-4.2901,-4.2901,-4.2901,-4.2901,-4.2901,-4.2901,-4.2901,-4.2901,-4.2901,-4.2901,-4.2901,-4.2901,-4.2901,-4.2901,-4.2901,-4.2901,-4.2901,-4.2901,-4.2901,-4.2901,-4.2901,-4.2901,-4.2901,-4.2901,-4.2901,-4.2901,-4.2901,-4.2901,-4.2901,-4.2901,-4.2901,-4.2901,-4.2901,-4.2901,-4.2901,-4.2901,-4.2901,-4.2901,-4.2901,-4.2901,-4.2901,-4.2901,-4.2901,-4.236,-4.1674,-4.0825,-4.0353,-4.0096,-4.0096,-4.0096,-4.0096,-4.0096,-4.0096,-4.0096,0.0,0.0,0.0,0.0,-2.9934,0.0,0.0,0.0,-2.5606,-2.4447,0.0,0.0,0.0,0.0,0.0,0.0,0.0,0.0,-2.7073,-2.8956,-3.1016,-3.2433,-3.3954,-3.4878,-3.4878,-3.4317,-3.4534,-3.5967,-3.5406,-3.562,-3.7067,-3.781,-3.8209,-3.8209,-3.8209,-3.8209,-3.8209,-3.8209,-3.8263,-3.8354,-3.8354,-3.8807,-3.9677,-4.0347,-4.1071,-4.1868,-4.2592,-4.2901,-4.2901,-4.2901,-4.2901,-4.2901,-4.2901,-4.2901,-4.2901,-4.2901,-4.2901,-4.2901,-4.2901,-4.2901,-4.2901,-4.2901,-4.2901,-4.2901,-4.2901,-4.2901,-4.2901,-4.2901,-4.2901,-4.2901,-4.2901,-4.2901,-4.2901,-4.2901,-4.2901,-4.2901,-4.2901,-4.2901,-4.2901,-4.2901,-4.2901,-4.2901,-4.2901,-4.2901,-4.2901,-4.2901,-4.2901,-4.2901,-4.2901,-4.2901,-4.2901,-4.2901,-4.2901,-4.2901,-4.2901,-4.2901,-4.2901,-4.2901,-4.2901,-4.2901,-4.2901,-4.2056,-4.1326,-4.0802,-4.0353,-4.0096,-4.0096,-4.0096,-4.0096,-4.0096,-4.0096,-4.0096,0.0,0.0,0.0,0.0,0.0,0.0,-2.6041,0.0,-2.4882,0.0,0.0,0.0,0.0,0.0,0.0,0.0,-2.5624,0.0,0.0,0.0,-2.8304,0.0,0.0,0.0,-3.3121,-3.2904,-3.3176,-3.4317,-3.4099,-3.4606,-3.6218,-3.7085,-3.772,-3.8191,-3.8209,-3.8209,-3.8209,-3.8209,-3.8209,-3.8209,-3.8209,-3.8608,-3.9405,-3.9713,-4.0546,-4.1723,-4.2067,-4.2466,-4.2901,-4.2901,-4.2901,-4.2901,-4.2901,-4.2901,-4.2901,-4.2901,-4.2901,-4.2901,-4.2901,-4.2901,-4.2901,-4.2901,-4.2901,-4.2901,-4.2901,-4.2901,-4.2901,-4.2901,-4.2901,-4.2901,-4.2901,-4.2901,-4.2901,-4.2901,-4.2901,-4.2901,-4.2901,-4.2901,-4.2901,-4.2901,-4.2901,-4.2901,-4.2901,-4.2901,-4.2901,-4.2901,-4.2901,-4.2901,-4.2901,-4.2901,-4.2901,-4.2901,-4.2901,-4.2901,-4.2901,-4.2901,-4.2901,-4.2901,-4.2653,-4.2498,-4.2498,-4.1587,-4.0995,-4.0802,-4.0353,-4.0096,-4.0096,-4.0096,-4.0096,-4.0096,-4.0096,-4.0096,-3.515,0.0,0.0,0.0,0.0,0.0,0.0,0.0,0.0,0.0,0.0,0.0,0.0,0.0,0.0,0.0,0.0,-2.5425,0.0,0.0,0.0,0.0,0.0,0.0,0.0,-3.0803,-3.1075,-3.2325,-3.2216,-3.2977,-3.5025,-3.6109,-3.7049,-3.7846,-3.81,-3.8209,-3.8209,-3.8209,-3.8209,-3.8209,-3.8209,-3.8517,-3.9079,-3.9297,-4.013,-4.1379,-4.1596,-4.2158,-4.2901,-4.2901,-4.2901,-4.2901,-4.2901,-4.2901,-4.2901,-4.2901,-4.2901,-4.2901,-4.2901,-4.2901,-4.2901,-4.2901,-4.2901,-4.2901,-4.2901,-4.2901,-4.2901,-4.2901,-4.2901,-4.2901,-4.2901,-4.2901,-4.2901,-4.2901,-4.2901,-4.2901,-4.2901,-4.2901,-4.2901,-4.2901,-4.2901,-4.2901,-4.2901,-4.2901,-4.2901,-4.2901,-4.2901,-4.2901,-4.2901,-4.2901,-4.2901,-4.2901,-4.2901,-4.2901,-4.2901,-4.2901,-4.2901,-4.2901,-4.2458,-4.2136,-4.2015,-4.123,-4.0731,-4.0604,-4.0279,-4.0096,-4.0096,-4.0096,-4.0096,-4.0096,-4.0096,-4.0096,0.0,0.0,0.0,-3.2393,0.0,0.0,0.0,0.0,-2.7079,0.0,0.0,0.0,0.0,0.0,0.0,0.0,0.0,0.0,0.0,0.0,0.0,0.0,0.0,0.0,0.0,-2.7314,-2.7363,0.0,-2.9192,-3.0138,-3.3321,-3.4971,-3.6218,-3.7013,-3.7792,-3.8209,-3.8209,-3.8209,-3.8209,-3.8209,-3.8209,-3.8209,-3.8263,-3.9025,-3.9822,-4.0583,-4.1361,-4.2158,-4.2901,-4.2901,-4.2901,-4.2901,-4.2901,-4.2901,-4.2901,-4.2901,-4.2901,-4.2901,-4.2901,-4.2901,-4.2901,-4.2901,-4.2901,-4.2901,-4.2901,-4.2901,-4.2901,-4.2901,-4.2901,-4.2901,-4.2901,-4.2901,-4.2901,-4.2901,-4.2901,-4.2901,-4.2901,-4.2901,-4.2901,-4.2901,-4.2901,-4.2901,-4.2901,-4.2901,-4.2901,-4.2901,-4.2901,-4.2901,-4.2901,-4.2901,-4.2901,-4.2901,-4.2901,-4.2901,-4.2901,-4.2901,-4.2901,-4.2901,-4.2458,-4.2011,-4.1547,-4.1065,-4.058,-4.0121,-4.0096,-4.0096,-4.0096,-4.0096,-4.0096,-4.0096,-4.0096,-4.0096,0.0,0.0,-3.984,-3.5313,0.0,0.0,0.0,0.0,0.0,0.0,0.0,0.0,0.0,0.0,0.0,0.0,0.0,0.0,0.0,0.0,0.0,0.0,0.0,0.0,0.0,0.0,0.0,0.0,-2.7948,0.0,-3.2433,-3.3628,-3.5059,-3.6941,-3.7267,-3.7665,-3.8191,-3.8209,-3.8209,-3.8209,-3.8209,-3.8209,-3.8209,-3.848,-3.9297,-4.051,-4.0782,-4.1669,-4.2901,-4.2901,-4.2901,-4.2901,-4.2901,-4.2901,-4.2901,-4.2901,-4.2901,-4.2901,-4.2901,-4.2901,-4.2901,-4.2901,-4.2901,-4.2901,-4.2901,-4.2901,-4.2901,-4.2901,-4.2901,-4.2901,-4.2901,-4.2901,-4.2901,-4.2901,-4.2901,-4.2901,-4.2901,-4.2901,-4.2901,-4.2901,-4.2901,-4.2901,-4.2901,-4.2901,-4.2901,-4.2901,-4.2901,-4.2901,-4.2901,-4.2901,-4.2901,-4.2901,-4.2901,-4.2901,-4.2901,-4.2901,-4.2901,-4.2901,-4.2177,-4.1674,-4.1503,-4.0737,-4.0254,-4.0096,-4.0096,-4.0096,-4.0096,-4.0096,-4.0096,-4.0096,-4.0096,-4.0096,-4.0655,-4.1089,0.0,-3.7142,-3.5457,0.0,-2.9608,0.0,0.0,0.0,0.0,0.0,0.0,0.0,0.0,0.0,0.0,0.0,0.0,-2.3806,0.0,0.0,0.0,0.0,0.0,0.0,-2.4846,-2.6427,-2.6548,0.0,0.0,-3.2234,-3.3954,-3.6089,-3.6705,-3.7393,-3.8191,-3.8209,-3.8209,-3.8209,-3.8209,-3.8209,-3.8209,-3.8209,-3.9043,-4.0492,-4.0492,-4.1415,-4.2901,-4.2901,-4.2901,-4.2901,-4.2901,-4.2901,-4.2901,-4.2901,-4.2901,-4.2901,-4.2901,-4.2901,-4.2901,-4.2901,-4.2901,-4.2901,-4.2901,-4.2901,-4.2901,-4.2901,-4.2901,-4.2901,-4.2901,-4.2901,-4.2901,-4.2901,-4.2901,-4.2901,-4.2901,-4.2901,-4.2901,-4.2901,-4.2901,-4.2901,-4.2901,-4.2901,-4.2901,-4.2901,-4.2901,-4.2901,-4.2901,-4.2901,-4.2901,-4.2901,-4.2901,-4.2901,-4.2901,-4.2901,-4.2825,-4.2653,-4.1931,-4.1432,-4.1253,-4.0507,-4.0096,-4.0096,-4.0096,-4.0096,-4.0096,-4.0096,-4.0096,-4.0096,-4.0096,-4.0096]},{"header":{"parameterUnit":"m.s-1","parameterCategory":1,"la1":30.6,"la2":29.2853,"lo1":-89.7004,"lo2":-87.6739,"dy":0.0162,"dx":0.0183,"nx":112,"ny":82,"refTime":"2024-05-20T00:00:00:Z","depth":0,"parameterNumber":3,"parameterNumberName":"V-component_of_WINDS"},"data":[0.0,0.0,0.0,0.0,0.0,0.0,0.0,0.0,0.0,0.0,0.0,0.0,0.0,0.0,0.0,0.0,0.0,0.0,0.0,0.0,0.0,0.0,0.0,0.0,0.0,0.0,0.0,0.0,0.0,0.0,0.0,0.0,0.0,0.0,0.0,0.0,0.0,0.0,0.0,0.0,0.0,0.0,0.0,0.0,0.0,0.0,0.0,0.0,0.0,0.0,0.0,0.0,0.0,0.0,0.0,0.0,0.0,0.0,0.0,0.0,0.0,0.0,0.0,0.0,0.0,0.0,0.0,0.0,0.0,0.0,0.0,0.0,0.0,0.0,0.0,0.0,0.0,0.0,0.0,0.0,0.0,0.0,0.0,0.0,0.0,0.0,0.0,0.0,0.0,0.0,0.0,0.7652,0.9349,1.0505,1.0805,1.1428,1.112,0.9526,0.0,0.0,0.0,0.0,0.0,0.0,0.0,0.0,0.0,0.0,0.0,0.0,0.0,0.0,0.0,0.0,0.0,0.0,0.0,0.0,0.0,0.0,0.0,0.0,0.0,0.0,0.0,0.0,0.0,0.0,0.0,0.0,0.0,0.0,0.0,0.0,0.0,0.0,0.0,0.0,0.0,0.0,0.0,0.0,0.0,0.0,0.0,0.0,0.0,0.0,0.0,0.0,0.0,0.0,0.0,0.0,0.0,0.0,0.0,0.0,0.0,0.0,0.0,0.0,0.0,0.0,0.0,0.0,0.0,0.0,0.0,0.0,0.0,0.0,0.0,0.0,0.0,0.0,0.0,0.0,0.0,0.0,0.0,0.0,0.0,0.0,0.0,0.0,0.0,0.0,0.0,0.0,0.0,0.0,0.0,0.0,0.0,0.0,0.0,0.0,0.0,0.0,0.0,0.0,0.6598,0.8707,0.9828,1.0661,1.1315,1.1639,1.1287,1.005,0.0,0.0,0.0,0.0,0.0,0.0,0.0,0.0,0.0,0.0,0.0,0.0,0.0,0.0,0.0,0.0,0.0,0.0,0.0,0.0,0.0,0.0,0.0,0.0,0.0,0.0,0.0,0.0,0.0,0.0,0.0,0.0,0.0,0.0,0.0,0.0,0.0,0.0,0.0,0.0,0.0,0.0,0.0,0.0,0.0,0.0,0.0,0.0,0.0,0.0,0.0,0.0,0.0,0.0,0.0,0.0,0.0,0.0,0.0,0.0,0.0,0.0,0.0,0.0,0.0,0.0,0.0,0.0,0.0,0.0,0.0,0.0,0.0,0.0,0.0,0.0,0.0,0.0,0.0,0.0,0.0,0.0,0.0,0.0,0.0,0.0,0.0,0.0,0.0,0.0,0.0,0.0,0.0,0.0,0.0,0.0,0.0,0.0,0.0,0.0,0.0,0.0,0.0,0.65,0.7268,0.8811,0.9826,1.0576,1.099,1.1499,1.1306,1.0165,0.9311,0.0,0.0,0.0,0.0,0.0,0.0,0.0,0.0,0.0,0.0,0.0,0.0,0.0,0.0,0.0,0.0,0.0,0.0,0.0,0.0,0.0,0.0,0.0,0.0,0.0,0.0,0.0,0.0,0.0,0.0,0.0,0.0,0.0,0.0,0.0,0.0,0.0,0.0,0.0,0.0,0.0,0.0,0.0,0.0,0.0,0.0,0.0,0.0,0.0,0.0,0.0,0.0,0.0,0.0,0.0,0.0,0.0,0.0,0.0,0.0,0.0,0.0,0.0,0.0,0.0,0.0,0.0,0.0,0.0,0.0,0.0,0.0,0.0,0.0,0.0,0.0,0.0,0.0,0.0,0.0,0.0,0.0,0.0,0.0,0.0,0.0,0.0,0.0,0.0,0.0,0.0,0.0,0.0,0.0,0.0,0.0,0.0,0.0,0.0,0.0,0.0,0.0,0.7464,0.7889,0.8717,0.9788,1.0491,1.0644,1.1304,1.1255,1.0214,0.9127,0.0,0.0,0.0,0.0,0.0,0.0,0.0,0.0,0.0,0.0,0.0,0.0,0.0,0.0,0.0,0.0,0.0,0.0,0.0,0.0,0.0,0.0,0.0,0.0,0.0,0.0,0.0,0.0,0.0,0.0,0.0,0.0,0.0,0.0,0.0,0.0,0.0,0.0,0.0,0.0,0.0,0.0,0.0,0.0,0.0,0.0,0.0,0.0,0.0,0.0,0.0,0.0,0.0,0.0,0.0,0.0,0.0,0.0,0.0,0.0,0.0,0.0,0.0,0.0,0.0,0.0,0.0,0.0,0.0,0.0,0.0,0.0,0.0,0.0,0.0,0.0,0.0,0.0,0.0,0.0,0.0,0.0,0.0,0.0,0.0,0.0,0.0,0.0,0.0,0.0,0.0,0.0,0.0,0.0,0.0,0.0,0.0,0.0,0.0,0.0,0.0,0.0,0.7381,0.8105,0.8744,0.9865,1.0644,1.0762,1.1179,1.1101,1.0342,0.8881,0.0,0.0,0.0,0.0,0.0,0.0,0.0,0.0,0.0,0.0,0.0,0.0,0.0,0.0,0.0,0.0,0.0,0.0,0.0,0.0,0.0,0.0,0.0,0.0,0.0,0.0,0.0,0.0,0.0,0.0,0.0,0.0,0.0,0.0,0.0,0.0,0.0,0.0,0.0,0.0,0.0,0.0,0.0,0.0,0.0,0.0,0.0,0.0,0.0,0.0,0.0,0.0,0.0,0.0,0.0,0.0,0.0,0.0,0.0,0.0,0.0,0.0,0.0,0.0,0.0,0.0,0.0,0.0,0.0,0.0,0.0,0.0,0.0,0.0,0.0,0.0,0.0,0.0,0.0,0.0,0.0,0.0,0.0,0.0,0.0,0.0,0.0,0.0,0.0,0.0,0.0,0.0,0.0,0.0,0.0,0.0,0.0,0.0,0.0,0.0,0.0,0.0,0.7466,0.8132,0.0,0.9588,1.0287,1.0762,1.1083,1.1013,1.0332,0.0,0.0,0.0,0.0,0.0,0.0,0.0,0.0,0.0,0.0,0.0,0.0,0.0,0.0,0.0,0.0,0.0,0.0,0.0,0.0,0.0,0.0,0.0,0.0,0.0,0.0,0.0,0.0,0.0,0.0,0.0,0.0,0.0,0.0,0.0,0.0,0.0,0.0,0.0,0.0,0.0,0.0,0.0,0.0,0.0,0.0,0.0,0.0,0.0,0.0,0.0,0.0,0.0,0.0,0.0,0.0,0.0,0.0,0.0,0.0,0.0,0.0,0.0,0.0,0.0,0.0,0.0,0.0,0.0,0.0,0.0,0.0,0.0,0.0,0.0,0.0,0.0,0.0,0.0,0.0,0.0,0.0,0.0,0.0,0.0,0.0,0.0,0.0,0.0,0.0,0.0,0.0,0.0,0.0,0.0,0.0,0.0,0.0,0.0,0.0,0.0,0.0,0.686,0.7612,0.8257,0.0,0.9614,1.0312,1.0813,1.101,1.0804,1.0127,0.0,0.0,0.0,0.0,0.0,0.0,0.0,0.0,0.0,0.0,0.0,0.0,0.0,0.0,0.0,0.0,0.0,0.0,0.0,0.0,0.0,0.0,0.0,0.0,0.0,0.0,0.0,0.0,0.0,0.0,0.0,0.0,0.0,0.0,0.0,0.0,0.0,0.0,0.0,0.0,0.0,0.0,0.0,0.0,0.0,0.0,0.0,0.0,0.0,0.0,0.0,0.0,0.0,0.0,0.0,0.0,0.0,0.0,0.0,0.0,0.0,0.0,0.0,0.0,0.0,0.0,0.0,0.0,0.0,0.0,0.0,0.0,0.0,0.0,0.0,0.0,0.0,0.0,0.0,0.0,0.0,0.0,0.0,0.0,0.0,0.0,0.0,0.0,0.0,0.0,0.0,0.0,0.0,0.0,0.0,0.0,0.0,0.0,0.0,0.0,0.0,0.0,0.6886,0.7816,0.856,0.8955,1.0064,1.0838,1.099,1.0921,1.0527,0.0,0.0,0.0,0.0,0.0,0.0,0.0,0.0,0.0,0.0,0.0,0.0,0.0,0.0,0.0,0.0,0.0,0.0,0.0,0.0,0.0,0.0,0.0,0.0,0.0,0.0,0.0,0.0,0.0,0.0,0.0,0.0,0.0,0.0,0.0,0.0,0.0,0.0,0.0,0.0,0.0,0.0,0.0,0.0,0.0,0.0,0.0,0.0,0.0,0.0,0.0,0.0,0.0,0.0,0.0,0.0,0.0,0.0,0.0,0.0,0.0,0.0,0.0,0.0,0.0,0.0,0.0,0.0,0.0,0.0,0.0,0.0,0.0,0.0,0.0,0.0,0.0,0.0,0.0,0.0,0.0,0.0,0.0,0.0,0.0,0.0,0.0,0.0,0.0,0.0,0.0,0.0,0.0,0.0,0.0,0.0,0.0,0.0,0.0,0.0,0.0,0.0,0.0,0.6913,0.7989,0.8737,0.885,0.9263,0.9736,1.0236,1.0179,0.9954,0.9557,0.0,0.0,0.0,0.0,0.0,0.0,0.0,0.0,0.0,0.0,0.0,0.0,0.0,0.0,0.0,0.0,0.0,0.0,0.0,0.0,0.0,0.0,0.0,0.0,0.0,0.0,0.0,0.0,0.0,0.0,0.0,0.0,0.0,0.0,0.0,0.0,0.0,0.0,0.0,0.0,0.0,0.0,0.0,0.0,0.0,0.0,0.0,0.0,0.0,0.0,0.0,0.0,0.0,0.0,0.0,0.0,0.0,0.0,0.0,0.0,0.0,0.0,0.0,0.0,0.0,0.0,0.0,0.0,0.0,0.0,0.0,0.0,0.0,0.0,0.0,0.0,0.0,0.0,0.0,0.0,0.0,0.0,0.0,0.0,0.0,0.0,0.0,0.0,0.0,0.0,0.0,0.0,0.0,0.0,0.0,0.0,0.0,0.0,0.0,0.0,0.0,0.0,0.6926,0.8045,0.8831,0.8962,0.9211,0.9621,1.0131,1.0334,1.0096,0.9277,0.0,0.0,0.0,0.0,0.0,0.0,0.0,0.0,0.0,0.0,0.0,0.0,0.0,0.0,0.0,0.0,0.0,0.0,0.0,0.0,0.0,0.0,0.0,0.0,0.0,0.0,0.0,0.0,0.0,0.0,0.0,0.0,0.0,0.0,0.0,0.0,0.0,0.0,0.0,0.0,0.0,0.0,0.0,0.0,0.0,0.0,0.0,0.0,0.0,0.0,0.0,0.0,0.0,0.0,0.0,0.0,0.0,0.0,0.0,0.0,0.0,0.0,0.0,0.0,0.0,0.0,0.0,0.0,0.0,0.0,0.0,0.0,0.0,0.0,0.0,0.0,0.0,0.0,0.0,0.0,0.0,0.0,0.0,0.0,0.0,0.0,0.0,0.0,0.0,0.0,0.0,0.0,0.0,0.0,0.0,0.0,0.0,0.0,0.0,0.0,0.0,0.0,0.6926,0.8045,0.8883,0.9133,0.9614,0.9994,1.0267,1.0908,1.0602,0.8948,0.0,0.0,0.0,0.0,0.0,0.0,0.0,0.0,0.0,0.0,0.0,0.0,0.0,0.0,0.0,0.0,0.0,0.0,0.0,0.0,0.0,0.0,0.0,0.0,0.0,0.0,0.0,0.0,0.0,0.0,0.0,0.0,0.0,0.0,0.0,0.0,0.0,0.0,0.0,0.0,0.0,0.0,0.0,0.0,0.0,0.0,0.0,0.0,0.0,0.0,0.0,0.0,0.0,0.0,0.0,0.0,0.0,0.0,0.0,0.0,0.5511,0.0,0.0,0.0,0.0,0.0,0.0,0.0,0.0,0.0,0.0,0.0,0.0,0.0,0.0,0.0,0.0,0.0,0.0,0.0,0.0,0.0,0.0,0.0,0.0,0.0,0.0,0.0,0.0,0.0,0.0,0.0,0.0,0.0,0.0,0.0,0.0,0.0,0.0,0.0,0.0,0.0,0.6926,0.8045,0.8831,0.8883,0.9087,0.929,0.9446,1.0162,1.0214,0.9262,0.8986,0.0,0.0,0.0,0.0,0.0,0.0,0.0,0.0,0.0,0.0,0.0,0.0,0.0,0.0,0.0,0.0,0.0,0.0,0.0,0.0,0.0,0.0,0.0,0.0,0.0,0.0,0.0,0.0,0.0,0.0,0.0,0.0,0.0,0.0,0.0,0.0,0.0,0.0,0.0,0.0,0.0,0.0,0.0,0.0,0.0,0.0,0.0,0.0,0.0,0.0,0.0,0.0,0.0,0.0,0.0,0.0,0.0,0.0,0.0,0.0,0.6274,0.0,0.0,0.0,0.0,0.0,0.0,0.0,0.0,0.0,0.0,0.0,0.0,0.0,0.0,0.0,0.0,0.0,0.0,0.0,0.0,0.0,0.0,0.0,0.0,0.0,0.0,0.0,0.0,0.0,0.0,0.0,0.0,0.0,0.0,0.0,0.0,0.0,0.0,0.0,0.0,0.7161,0.8156,0.8831,0.8883,0.9008,0.9159,0.929,0.9969,1.018,0.9673,0.9396,0.0,0.0,0.0,0.0,0.0,0.0,0.0,0.0,0.0,0.0,0.0,0.0,0.0,0.0,0.0,0.0,0.0,0.0,0.0,0.0,0.0,0.0,0.0,0.0,0.0,0.0,0.0,0.0,0.0,0.0,0.0,0.0,0.0,0.0,0.0,0.0,0.0,0.0,0.0,0.0,0.0,0.0,0.0,0.0,0.0,0.0,0.0,0.0,0.0,0.0,0.0,0.0,0.0,0.5793,0.6002,0.6124,0.6152,0.6497,0.7057,0.6666,0.6899,0.7497,0.7366,0.0,0.0,0.0,0.0,0.0,0.0,0.0,0.0,0.0,0.0,0.0,0.0,0.0,0.0,0.0,0.0,0.0,0.0,0.0,0.0,0.0,0.0,0.0,0.0,0.8568,0.8623,0.7845,0.0,0.0,0.0,0.0,0.0,0.0,0.0,0.0,0.0,0.0,0.0,0.7491,0.8283,0.8831,0.8956,0.9087,0.9211,0.9361,0.9984,1.0243,0.9981,0.9807,0.9345,0.0,0.0,0.0,0.0,0.0,0.0,0.0,0.0,0.0,0.0,0.0,0.0,0.0,0.0,0.0,0.0,0.0,0.0,0.0,0.0,0.0,0.0,0.0,0.0,0.0,0.0,0.0,0.0,0.0,0.0,0.0,0.0,0.3559,0.409,0.0,0.0,0.0,0.0,0.0,0.0,0.0,0.0,0.0,0.0,0.0,0.0,0.0,0.562,0.5963,0.6482,0.6673,0.6505,0.7001,0.7171,0.7017,0.7204,0.736,0.7414,0.7356,0.0,0.8374,0.8737,0.0,0.0,0.0,0.0,0.0,0.0,0.0,0.0,0.0,0.0,0.0,0.0,0.0,0.0,0.0,0.0,0.0,0.0,0.0,0.0,0.0,0.0,0.9316,0.9715,0.9784,0.9699,0.0,0.8407,0.7196,0.6587,0.6446,0.0,0.0,0.0,0.0,0.0,0.0,0.0,0.7766,0.8417,0.8811,0.8831,0.8936,0.9087,0.9211,0.984,1.0105,0.9834,1.0334,1.0049,0.8793,0.8349,0.0,0.0,0.0,0.0,0.0,0.0,0.0,0.0,0.0,0.0,0.0,0.0,0.0,0.0,0.0,0.0,0.0,0.0,0.0,0.0,0.0,0.0,0.0,0.0,0.0,0.0,0.0,0.0,0.0,0.363,0.4145,0.4375,0.4424,0.4399,0.0,0.0,0.0,0.0,0.0,0.0,0.0,0.0,0.0,0.591,0.6221,0.6522,0.6749,0.7118,0.7298,0.7326,0.7563,0.7646,0.7671,0.7744,0.778,0.782,0.8259,0.8855,0.9443,0.9186,0.8848,0.8493,0.0,0.0,0.0,0.0,0.8738,0.8784,0.9221,0.9228,0.9031,0.8666,0.0,0.0,0.0,0.0,0.0,0.0,0.0,0.0,0.0,0.0,0.9645,1.003,0.994,0.9843,0.9975,0.9341,0.8516,0.0,0.7269,0.6827,0.629,0.0,0.0,0.0,0.0,0.7666,0.8123,0.8544,0.8804,0.8804,0.8982,0.9133,0.9185,0.9614,0.9933,1.0124,1.0212,0.9928,0.9215,0.883,0.7957,0.0,0.0,0.0,0.0,0.0,0.0,0.0,0.0,0.0,0.0,0.0,0.0,0.0,0.0,0.0,0.0,0.0,0.0,0.0,0.0,0.0,0.0,0.0,0.0,0.0,0.0,0.0,0.0,0.4173,0.4598,0.4694,0.488,0.4917,0.0,0.0,0.0,0.0,0.0,0.0,0.5929,0.6132,0.6396,0.6749,0.7057,0.7282,0.7389,0.7646,0.7869,0.8008,0.8102,0.817,0.8288,0.8239,0.8219,0.8215,0.8798,0.9319,0.9711,0.9553,0.9428,0.9384,1.0128,0.9982,0.9382,1.0089,1.0207,1.011,1.0672,1.0679,1.0428,1.0032,0.9689,0.9262,0.8508,0.0,0.0,0.0,0.0,0.9564,0.9637,0.9853,1.0094,1.0381,1.0287,1.0167,1.0307,1.0045,0.9577,0.0,0.8279,0.7759,0.7247,0.0,0.0,0.0,0.0,0.815,0.8469,0.8671,0.8804,0.8804,0.8982,0.914,0.9185,0.9387,0.9692,1.0164,1.0042,0.9843,0.9576,0.92,0.8357,0.7031,0.0,0.0,0.0,0.0,0.0,0.0,0.0,0.0,0.0,0.0,0.0,0.0,0.0,0.0,0.0,0.0,0.0,0.0,0.0,0.0,0.0,0.0,0.0,0.0,0.0,0.0,0.0,0.0,0.0,0.5217,0.5438,0.0,0.0,0.0,0.0,0.5819,0.6148,0.6497,0.6902,0.7058,0.7322,0.7722,0.7747,0.7841,0.7971,0.8333,0.8563,0.8575,0.8869,0.9035,0.9039,0.8861,0.8779,0.8771,0.8653,0.8564,0.851,1.0153,1.0663,1.0491,1.1084,1.0625,0.9706,1.06,1.0942,1.0929,1.0995,1.0995,1.0989,1.1236,1.0968,1.0492,1.0452,1.0221,0.0,0.0,1.0241,1.0586,1.0835,1.0915,1.1002,1.1255,1.1315,1.1269,1.1009,1.0436,0.9917,0.0,0.9619,0.9391,0.8804,0.0,0.8624,0.8375,0.8362,0.8482,0.8751,0.8798,0.8804,0.8804,0.8804,0.8936,0.9185,0.9211,0.9335,0.9614,1.0097,1.018,0.9794,0.9578,0.9045,0.814,0.7106,0.0,0.0,0.0,0.0,0.0,0.0,0.0,0.0,0.0,0.0,0.0,0.0,0.0,0.0,0.0,0.0,0.0,0.0,0.0,0.0,0.0,0.0,0.0,0.0,0.0,0.0,0.0,0.0,0.5967,0.6294,0.0,0.6388,0.6473,0.655,0.6737,0.6832,0.7094,0.7494,0.7571,0.7829,0.8306,0.8322,0.8461,0.8706,0.8844,0.8909,0.8909,0.9035,0.9096,0.9096,0.9031,0.8999,0.8995,0.8934,0.9228,0.9813,1.1062,1.0848,0.979,1.1142,1.1284,1.0875,1.2005,1.2291,1.2187,1.2351,1.2291,1.2114,1.1839,1.1316,1.0868,1.0868,1.0762,1.0681,1.0681,1.0889,1.1142,1.1243,1.1269,1.1296,1.1369,1.1389,1.1362,1.1289,1.1066,1.0867,1.0797,0.9999,0.9267,0.9075,0.9245,0.9272,0.8951,0.9098,0.9185,0.9071,0.9058,0.9011,0.893,0.9008,0.9133,0.9309,0.9413,0.9484,0.9588,0.9769,0.964,0.9107,0.9266,0.8805,0.7586,0.7396,0.6727,0.0,0.0,0.0,0.0,0.0,0.0,0.0,0.0,0.0,0.0,0.0,0.0,0.0,0.0,0.0,0.0,0.0,0.0,0.0,0.0,0.0,0.0,0.0,0.0,0.0,0.0,0.6176,0.6477,0.6879,0.7147,0.7086,0.7192,0.7314,0.7399,0.7573,0.778,0.8061,0.8188,0.842,0.8735,0.8792,0.8861,0.9096,0.9157,0.9181,0.9185,0.9246,0.9275,0.9275,0.9214,0.9181,0.9181,0.9125,0.9465,1.006,1.0745,1.0279,0.9393,1.1761,1.2298,1.1833,1.2915,1.3166,1.2971,1.314,1.3073,1.2878,1.2482,1.2058,1.1744,1.1744,1.167,1.1618,1.1618,1.165,1.1688,1.1688,1.1688,1.1688,1.1688,1.1688,1.1697,1.1597,1.1577,1.1543,1.1409,1.0509,0.9723,0.9678,0.9766,0.9726,0.9404,0.9559,0.9613,0.9384,0.9277,0.9165,0.9079,0.907,0.9133,0.9309,0.9413,0.9517,0.9588,0.9588,0.9387,0.8899,0.9003,0.8602,0.7552,0.7423,0.686,0.5838,0.0,0.0,0.0,0.0,0.0,0.0,0.0,0.0,0.0,0.0,0.0,0.0,0.0,0.0,0.0,0.0,0.0,0.0,0.0,0.0,0.0,0.0,0.0,0.5337,0.5971,0.6518,0.6712,0.7192,0.7447,0.7252,0.759,0.7837,0.7841,0.8331,0.8629,0.8629,0.8909,0.91,0.9104,0.9104,0.9108,0.9116,0.9326,0.9412,0.9412,0.9543,0.9579,0.9571,0.9445,0.9412,0.9404,0.9185,0.9116,0.9116,0.9159,0.9155,0.9545,1.3034,1.3493,1.2349,1.3257,1.3447,1.324,1.324,1.3233,1.3227,1.3227,1.322,1.3213,1.3213,1.3038,1.2797,1.2797,1.2589,1.2325,1.2318,1.2318,1.2311,1.2305,1.2305,1.2225,1.198,1.1919,1.1832,1.1475,1.1223,1.0922,1.066,1.0334,1.0047,0.9753,0.9742,0.0,0.9729,0.9417,0.9237,0.9224,0.8991,0.8923,0.9199,0.9218,0.9309,0.9588,0.9588,0.9482,0.9214,0.8892,0.8546,0.8209,0.7231,0.6582,0.6319,0.0,0.0,0.0,0.0,0.0,0.0,0.0,0.0,0.0,0.0,0.0,0.0,0.0,0.0,0.0,0.0,0.0,0.0,0.0,0.0,0.0,0.0,0.6141,0.6306,0.6682,0.7126,0.7598,0.7898,0.815,0.8361,0.8471,0.8584,0.8718,0.8869,0.895,0.895,0.9043,0.9157,0.9326,0.9331,0.9348,0.9482,0.9527,0.9551,0.9555,0.9604,0.9579,0.9575,0.9575,0.9551,0.9551,0.9502,0.9482,0.9526,1.029,1.092,1.1422,1.1569,1.1358,1.1184,1.2636,1.3447,1.3848,1.3848,1.3707,1.3487,1.3487,1.3347,1.3213,1.3213,1.3153,1.308,1.308,1.3019,1.2913,1.2717,1.2663,1.2603,1.2351,1.2305,1.2278,1.2204,1.2184,1.2158,1.2078,1.183,1.1504,1.0995,1.0808,1.0655,1.0392,1.0352,0.0,1.0027,0.9897,0.9822,0.9723,0.9431,0.9357,0.9683,0.9496,0.9413,0.9588,0.9588,0.9482,0.9214,0.9112,0.8804,0.8216,0.745,0.6917,0.0,0.0,0.0,0.0,0.0,0.0,0.0,0.0,0.0,0.0,0.0,0.0,0.0,0.0,0.0,0.0,0.0,0.0,0.0,0.0,0.0,0.0,0.6501,0.6899,0.7305,0.7476,0.7699,0.8085,0.8357,0.8593,0.88,0.8889,0.8978,0.9088,0.9165,0.9206,0.9206,0.9279,0.9364,0.9466,0.947,0.9518,0.9579,0.9579,0.9579,0.9579,0.9579,0.9579,0.9579,0.9579,0.9579,0.9579,0.9579,0.9579,0.9624,1.0256,1.0768,0.0,0.0,0.0,0.0,0.0,1.4101,1.4479,1.4315,1.4155,1.3946,1.3868,1.3714,1.3581,1.3581,1.3494,1.3353,1.3353,1.3307,1.3166,1.3025,1.2978,1.2938,1.2726,1.2585,1.2522,1.2522,1.2392,1.2305,1.2305,1.2237,0.0,1.1477,1.1156,1.0935,1.0801,1.0673,1.0526,1.0321,1.0194,1.0114,1.0116,0.9794,0.9701,0.9872,0.9721,0.0,0.0,0.0,0.9482,0.9214,0.9068,0.0,0.0,0.0,0.0,0.0,0.0,0.0,0.0,0.6682,0.6552,0.0,0.0,0.0,0.0,0.0,0.0,0.0,0.0,0.0,0.0,0.0,0.0,0.0,0.0,0.0,0.0,0.7196,0.7557,0.8251,0.8207,0.8166,0.8329,0.8629,0.8836,0.8877,0.9031,0.9137,0.9153,0.9299,0.9433,0.9433,0.0,0.0,0.0,0.0,0.9579,0.9579,0.9579,0.9579,0.9579,0.9579,0.9579,0.9579,0.9579,0.9579,0.9579,0.9579,0.9579,0.9579,0.9579,0.9677,0.9998,1.2395,1.3807,1.4501,1.4501,1.4579,1.4603,1.4298,0.0,0.0,1.4091,1.4077,1.4135,1.4135,1.3928,1.3653,1.3653,1.3507,1.33,1.3267,1.326,1.3253,1.322,1.3038,1.2837,1.2837,1.2603,1.2351,1.2351,1.2472,1.2437,1.2036,1.1491,1.1102,1.1002,1.0807,1.0626,1.0593,1.0327,1.0228,1.041,0.0,0.0,0.9916,0.9907,0.9803,0.961,0.9588,0.9497,0.9258,0.8972,0.878,0.8767,0.8743,0.8752,0.8692,0.8692,0.8707,0.873,0.7248,0.7021,0.0,0.0,0.0,0.0,0.0,0.0,0.0,0.0,0.0,0.0,0.0,0.0,0.0,0.0,0.0,0.7514,0.7748,0.8061,0.8637,0.8686,0.8678,0.8714,0.8779,0.8934,0.9273,0.9331,0.9368,0.9514,0.9555,0.9575,0.9575,0.9608,0.9579,0.9579,0.9579,0.9579,0.9579,0.9579,0.9579,0.9579,0.0,0.0,0.9579,0.9579,0.9579,0.9579,0.9579,0.9579,0.9579,0.9579,1.0109,1.0881,1.0551,1.0846,1.1551,1.1551,1.1956,1.2484,1.2433,1.2915,1.3617,1.3568,1.3951,1.4436,1.4436,1.4235,0.0,1.4001,1.3961,1.3861,1.358,1.352,1.346,1.3267,1.3166,1.312,1.312,1.2918,1.2697,1.2697,1.2502,1.2321,1.2225,1.2074,1.175,1.1102,1.0949,1.0854,1.062,1.0539,1.0506,1.0568,1.0268,1.0055,1.0065,0.9869,0.9703,0.961,0.9588,0.9592,0.9533,0.9468,0.9321,0.9112,0.9104,0.898,0.8692,0.8692,0.8848,0.909,0.851,0.8341,0.0,0.0,0.0,0.0,0.0,0.0,0.0,0.0,0.0,0.0,0.0,0.6564,0.0,0.0,0.7326,0.7963,0.8174,0.8414,0.8771,0.8901,0.8958,0.8958,0.9035,0.9157,0.9384,0.9486,0.9531,0.9571,0.9579,0.9579,0.9579,0.9579,0.9579,0.9579,0.9579,0.9579,0.9579,0.9579,0.9579,0.9579,0.9579,0.9579,0.9579,0.9579,0.9579,0.9579,0.9579,0.9579,0.9579,0.9579,0.9916,1.04,1.04,1.1259,1.2507,1.2507,1.3048,1.3823,1.3691,1.3964,1.4403,1.4217,1.4449,1.4716,1.4563,1.4422,1.4275,1.4128,1.4088,1.4055,1.3901,1.3868,1.3828,1.3687,1.3534,1.3387,1.3387,1.3193,1.2971,1.2811,1.2739,1.2584,1.2325,1.2367,1.2223,1.1675,1.1417,1.1197,1.1086,1.0935,1.0846,1.0846,1.0708,1.0519,1.0358,1.0024,0.9749,0.961,0.9588,0.9588,0.9588,0.9588,0.9548,0.9402,0.9394,0.9314,0.9153,0.9153,0.9233,0.9387,0.9226,0.9153,0.0,0.0,0.0,0.0,0.0,0.0,0.0,0.0,0.6606,0.6862,0.7078,0.7316,0.7548,0.7614,0.7805,0.8312,0.8519,0.8686,0.8897,0.9051,0.9161,0.9198,0.9339,0.9416,0.9453,0.9543,0.9579,0.9579,0.9579,0.9579,0.9579,0.9579,0.9579,0.9579,0.9579,0.9579,0.9579,0.9579,0.9579,0.9579,0.9579,0.9579,0.9579,0.9579,0.9579,0.9579,0.9579,0.9579,0.9579,0.9579,0.9723,1.0015,1.0886,1.249,1.425,1.4052,1.4484,1.5168,1.4937,1.5006,1.516,1.493,1.4955,1.5048,1.4763,1.4649,1.4549,1.4255,1.4168,1.4162,1.4102,1.4088,1.4088,1.4088,1.3901,1.3728,1.3769,1.3534,1.3292,1.3121,1.3088,1.2931,1.2543,1.2603,1.2613,1.2238,1.1826,1.1518,1.1488,1.128,1.109,1.109,1.109,1.0964,1.0678,1.0222,0.9859,0.9697,0.9624,0.9588,0.9588,0.9588,0.9588,0.9588,0.9588,0.9588,0.9588,0.9588,0.9588,0.9588,0.9588,0.9588,0.7846,0.7526,0.7217,0.7036,0.697,0.6997,0.0,0.0,0.7312,0.7405,0.7595,0.7758,0.791,0.8089,0.8325,0.8698,0.8779,0.8909,0.9294,0.9359,0.9433,0.9551,0.9441,0.9465,0.9579,0.9616,0.9579,0.9579,0.9579,0.9579,0.9579,0.9579,0.9579,0.9579,0.9579,0.9579,0.9579,0.9579,0.9579,0.9579,0.9579,0.9579,0.9579,0.9579,0.9579,0.9579,0.9579,0.9579,0.9579,0.9579,1.0158,1.1028,1.117,1.249,1.4196,1.3221,1.2974,1.3017,1.2989,1.3615,1.4435,1.441,1.4803,1.5344,1.5311,1.5117,1.4901,1.4556,1.4476,1.4409,1.4155,1.4088,1.4088,1.4088,1.4062,1.4077,1.4266,1.4118,1.3933,1.41,1.3694,1.3272,1.3048,1.3082,1.2904,1.2274,1.1902,1.162,1.1516,1.128,1.109,1.109,1.109,1.0995,1.0799,1.0357,1.0062,1.0046,0.9775,0.9588,0.9588,0.9588,0.9588,0.9588,0.9588,0.9588,0.9588,0.9588,0.9588,0.9588,0.9588,0.9588,0.8414,0.8263,0.8144,0.0,0.7623,0.7588,0.7703,0.7584,0.7534,0.7743,0.7939,0.8163,0.8304,0.8479,0.8645,0.0,0.8995,0.9233,0.938,0.9445,0.9502,0.9474,0.9494,0.9543,0.962,0.9579,0.9579,0.9579,0.9579,0.9579,0.9579,0.9579,0.9579,0.9579,0.9579,0.9579,0.9579,0.9579,0.9579,0.9579,0.9579,0.9579,0.9579,0.9579,0.9579,0.9579,0.9579,0.9579,0.9579,0.9579,0.9871,1.035,1.0979,1.2096,1.3366,1.3559,1.3992,1.4519,1.4519,1.4813,1.5159,1.5159,1.5367,1.5618,1.5444,1.5311,1.5157,1.4856,1.4656,1.4489,1.4369,1.4215,1.4088,1.4088,1.4088,1.4124,1.4201,1.4149,1.409,1.411,1.377,1.341,1.3314,1.314,1.2967,1.2804,1.2586,1.2378,1.2124,1.1808,1.151,1.1237,1.1153,1.1026,1.0822,1.0616,1.0465,1.0397,1.0075,0.9899,0.9899,0.9716,0.9588,0.9588,0.9588,0.9588,0.9588,0.9588,0.9588,0.9588,0.9588,0.9588,0.8673,0.0,0.0,0.8169,0.8023,0.7964,0.8138,0.7922,0.7793,0.8101,0.8272,0.8406,0.8588,0.867,0.8783,0.8881,0.9116,0.9367,0.9465,0.9502,0.9502,0.942,0.9474,0.9551,0.9551,0.96,0.9579,0.9579,0.9579,0.9579,0.9579,0.9579,0.9579,0.9579,0.9579,0.9579,0.9579,0.9579,0.9579,0.9579,0.9579,0.9579,0.9579,0.9579,0.9579,0.9579,0.9579,0.9579,0.9579,0.9579,0.9772,1.0113,1.0881,1.1804,1.278,1.3559,1.4675,1.5784,1.5784,1.5784,1.5784,1.5784,1.5784,1.5744,1.5578,1.5518,1.5451,1.5209,1.493,1.473,1.465,1.4455,1.4316,1.4271,1.425,1.4292,1.4377,1.4334,1.4308,1.4371,1.4072,1.3766,1.3621,1.3386,1.3182,1.3207,1.315,1.3023,1.2694,1.2259,1.1847,1.1433,1.131,1.1186,1.1041,1.0941,1.0849,1.0733,1.0419,1.0192,1.0104,0.987,0.9709,0.9614,0.9588,0.9588,0.9588,0.9588,0.9588,0.9588,0.9588,0.9588,0.0,0.0,0.778,0.8038,0.7957,0.7909,0.822,0.8302,0.8321,0.8555,0.86,0.8604,0.8612,0.8616,0.8735,0.9035,0.9096,0.9226,0.9571,0.9474,0.9408,0.9404,0.9408,0.9412,0.0,0.9522,0.9579,0.9579,0.9579,0.9579,0.9579,0.9579,0.9579,0.9579,0.9579,0.9579,0.9579,0.9579,0.9579,0.9579,0.9579,0.9579,0.9579,0.9579,0.9579,0.9579,0.9579,0.9579,0.9579,0.9579,1.0207,1.117,1.117,1.1804,1.2678,1.2732,1.4034,1.5784,1.5784,1.5784,1.5784,1.5784,1.5784,1.5784,1.5771,1.5764,1.5711,1.5464,1.5378,1.5283,1.4984,1.4877,1.4831,1.4726,1.4692,1.4741,1.5006,1.4866,1.4824,1.5284,1.4941,1.4495,1.4227,1.4064,1.3783,1.3279,1.3375,1.336,1.3038,1.2397,1.1879,1.1628,1.1591,1.1591,1.1577,1.1283,1.11,1.1092,1.0784,1.0426,1.0111,1.0089,0.9936,0.9595,0.9588,0.9588,0.9588,0.9588,0.9588,0.9588,0.9588,0.9588,0.8803,0.0,0.7984,0.8013,0.8089,0.8174,0.8461,0.8518,0.8498,0.8398,0.8385,0.8345,0.8223,0.8402,0.869,0.8877,0.9112,0.9352,0.9596,0.9575,0.949,0.9416,0.9462,0.0,0.0,0.0,0.0,0.9579,0.9579,0.9579,0.9579,0.9579,0.9579,0.9579,0.9579,0.9579,0.9579,0.9579,0.9579,0.9579,0.9579,0.9579,0.9579,0.9579,0.9579,0.9579,0.9579,0.9579,0.9579,0.9579,0.9821,1.0158,1.0158,1.1179,1.2678,1.2678,1.4034,1.5588,1.4232,1.4184,1.4825,1.4825,1.5255,1.5784,1.5784,1.5784,1.5758,1.5712,1.5545,1.5397,1.5481,1.5185,1.4936,1.5027,1.4845,1.4734,1.4824,1.4776,1.4783,1.5131,1.4873,1.4622,1.4674,1.4302,1.3872,1.347,1.3273,1.3133,1.3023,1.2594,1.22,1.1911,1.1875,1.1787,1.1613,1.1489,1.143,1.143,1.1122,1.0887,1.0777,1.0536,1.0375,1.0265,1.0258,1.0258,1.0258,1.0258,1.0258,1.0258,1.0258,1.0258,0.8652,0.8355,0.8017,0.8074,0.8251,0.8422,0.8584,0.8559,0.8418,0.8231,0.8142,0.8044,0.7858,0.802,0.83,0.867,0.8926,0.9249,0.9575,0.9571,0.9486,0.9416,0.9458,0.9486,0.0,0.0,0.0,0.9579,0.9579,0.9579,0.9579,0.9579,0.9579,0.9579,0.9579,0.9579,0.9579,0.9689,0.9754,0.9819,0.9819,0.9782,0.9721,0.9721,0.9685,0.9579,0.9579,0.9821,1.0158,1.0158,1.04,1.0694,1.0694,1.1517,1.2678,1.2678,1.3553,1.4615,1.3986,1.4238,1.4825,1.4825,1.5255,1.5784,1.5784,1.5784,1.5784,1.5784,1.5698,1.5578,1.5708,1.5531,1.5313,1.5302,1.5227,1.5092,1.4978,1.4908,1.4908,1.5173,1.4966,1.4787,1.4881,1.4414,1.3946,1.3704,1.3389,1.314,1.3023,1.2826,1.2536,1.2207,1.2069,1.1923,1.175,1.1657,1.1591,1.1591,1.1393,1.1224,1.1107,1.0902,1.0733,1.0594,1.0587,1.0587,1.0587,1.0587,1.0587,1.0587,1.0587,1.0587,0.828,0.8013,0.791,0.8219,0.8438,0.8608,0.86,0.841,0.8219,0.8016,0.7837,0.7698,0.0,0.0,0.7755,0.8469,0.8612,0.8836,0.9531,0.9478,0.9416,0.0,0.0,0.0,0.0,0.0,0.0,0.9579,0.0,0.9579,0.9579,0.9587,0.9591,0.9591,0.9648,0.9657,0.9657,0.9819,0.9985,1.0212,1.0212,1.0122,0.99,0.99,0.9807,0.9591,0.9591,1.0216,1.1219,1.1126,1.1755,1.2678,1.2635,1.2678,1.278,1.278,1.2829,1.3162,1.5105,1.5784,1.5737,1.5737,1.5784,1.5825,1.5825,1.5832,1.5832,1.5825,1.5825,1.5812,1.5769,1.5911,1.6018,1.5654,1.5756,1.5833,1.5476,1.5271,1.5173,1.5347,1.5257,1.5072,1.4918,1.4435,1.4056,1.3989,1.3718,1.3404,1.3075,1.3031,1.2906,1.255,1.2237,1.2047,1.2025,1.1765,1.1613,1.1613,1.1599,1.1452,1.1144,1.1129,1.0982,1.0674,1.0638,1.0638,1.0638,1.0638,1.0638,1.0638,1.0638,1.0638,0.8726,0.8502,0.8211,0.8482,0.8575,0.8575,0.8394,0.8219,0.7959,0.7478,0.7281,0.7098,0.0,0.0,0.0,0.8081,0.8609,0.0,0.9563,0.9587,0.0,0.9559,0.0,0.9559,0.9559,0.96,0.0,0.0,0.9579,0.9579,0.9579,0.975,0.9819,0.9819,0.9953,1.0026,1.0026,1.0122,1.0167,1.0212,1.0212,1.0188,1.0143,1.0143,0.9989,0.9819,0.9819,1.0332,1.1126,1.0355,1.1082,1.263,1.1901,1.2538,1.3902,1.3902,1.4382,1.5105,1.5635,1.5302,1.4682,1.4682,1.5302,1.6076,1.6076,1.6265,1.6353,1.617,1.6076,1.615,1.6303,1.6248,1.6169,1.6472,1.6213,1.5891,1.5811,1.5557,1.5347,1.5389,1.5347,1.5238,1.4958,1.4769,1.4538,1.4055,1.3916,1.374,1.3411,1.3367,1.325,1.2921,1.2811,1.2631,1.2383,1.2069,1.1911,1.1911,1.1723,1.1555,1.1474,1.1467,1.143,1.1342,1.1342,1.1342,1.1342,1.1342,1.1342,1.1342,1.1342,1.1342,0.8723,0.8607,0.8438,0.8588,0.8551,0.842,0.8159,0.7858,0.7516,0.6945,0.6725,0.0,0.0,0.0,0.0,0.0,0.0,0.0,0.9437,0.9575,0.9579,0.0,0.9579,0.0,0.9734,0.9742,0.9774,0.0,0.9786,0.9742,0.9742,0.9908,1.0006,1.0006,1.0159,1.0253,1.0282,1.0282,1.0318,1.0396,1.0396,1.0355,1.0282,1.0282,1.018,1.0053,0.0,1.0423,1.1258,1.0583,1.1224,1.2678,1.2587,1.327,1.4346,1.4825,1.5302,1.5784,1.5784,1.5445,1.4968,1.4968,1.5499,1.6224,1.6224,1.6407,1.6588,1.6407,1.6359,1.64,1.6541,1.6549,1.6533,1.6711,1.6542,1.6287,1.6148,1.5862,1.5599,1.5418,1.5389,1.533,1.5148,1.4995,1.4776,1.4457,1.4165,1.3916,1.3733,1.3587,1.3426,1.3243,1.3097,1.2936,1.2753,1.2404,1.2156,1.201,1.1867,1.1706,1.1599,1.1591,1.1591,1.1591,1.1591,1.1591,1.1591,1.1591,1.1591,1.1591,1.1591,1.1591,0.8488,0.8486,0.8612,0.8612,0.8469,0.8191,0.7849,0.7447,0.7029,0.6465,0.0,0.6053,0.5852,0.6148,0.6643,0.7334,0.0,0.854,0.9302,0.949,0.96,0.9575,0.9579,0.9697,0.9868,0.9884,0.9961,1.02,1.0034,0.9945,0.9925,1.0099,1.0261,1.0286,1.0286,1.0306,1.0415,1.0415,1.0546,1.0692,1.0692,1.0611,1.0415,1.0415,1.0371,1.0241,1.0002,1.0509,1.1372,1.1112,1.1658,1.278,1.3559,1.4052,1.4394,1.5302,1.573,1.5832,1.5832,1.5832,1.5832,1.5832,1.5974,1.6224,1.6224,1.6454,1.6636,1.6636,1.6636,1.6636,1.6636,1.6831,1.6908,1.6675,1.6757,1.6822,1.6536,1.6162,1.5818,1.5455,1.5389,1.5389,1.5389,1.5155,1.4951,1.4907,1.4428,1.4071,1.4027,1.3697,1.3492,1.3492,1.3243,1.3075,1.3075,1.2775,1.2434,1.2149,1.2047,1.1911,1.1665,1.1613,1.1591,1.1591,1.1591,1.1591,1.1591,1.1591,1.1591,1.1591,1.1591,1.1591,0.8727,0.8588,0.8612,0.8612,0.8469,0.8158,0.7646,0.7294,0.0,0.0,0.5831,0.5653,0.545,0.5951,0.6573,0.7175,0.0,0.0,0.0,0.0,0.9458,0.0,0.0,0.0,0.0,0.0,0.0,0.0,1.0274,1.0274,1.0171,1.0286,1.0452,1.0595,1.0599,1.0615,1.0647,1.0647,1.0664,1.0692,1.0692,1.0676,1.0647,1.0647,1.0554,1.0379,1.0193,0.0,1.1322,1.0289,1.0984,1.2635,1.1999,1.278,1.4346,1.4765,1.5289,1.5832,1.6028,1.613,1.6076,1.5879,1.5974,1.6224,1.6447,1.6737,1.6932,1.6932,1.6932,1.6932,1.6932,1.6979,1.7012,1.7127,1.7047,1.6881,1.6829,1.6323,1.5818,1.5455,1.5389,1.5389,1.5389,1.5338,1.5214,1.4944,1.4626,1.4328,1.4056,1.3697,1.3492,1.3492,1.3448,1.3411,1.3411,1.3111,1.2899,1.284,1.2302,1.1981,1.1923,1.1731,1.1591,1.1591,1.1591,1.1591,1.1591,1.1591,1.1591,1.1591,1.1591,1.1591,0.8646,0.8612,0.8612,0.8612,0.8331,0.7914,0.7367,0.0,0.0,0.0,0.551,0.5426,0.5313,0.0,0.0,0.0,0.0,0.0,0.0,0.0,0.0,0.0,0.0,0.0,0.0,0.0,0.0,0.0,1.0521,1.0493,1.0314,1.0473,1.0607,1.0688,1.0692,1.0692,1.0692,1.0692,1.0692,1.0692,1.0692,1.0692,1.0692,1.0692,1.0647,1.0554,1.0282,1.0418,1.0719,0.9938,1.0212,1.1082,1.1175,1.2198,1.3757,1.4472,1.5337,1.6204,1.6353,1.6407,1.64,1.6258,1.6305,1.6454,1.6737,1.6885,1.7026,1.7113,1.7153,1.7153,1.7153,1.7153,1.72,1.7286,1.7216,1.7055,1.6939,1.6529,1.606,1.5745,1.5506,1.5389,1.5389,1.5389,1.5338,1.5177,1.4878,1.4596,1.4313,1.399,1.3682,1.3514,1.3492,1.3492,1.3492,1.3353,1.3192,1.3023,1.2716,1.2434,1.2259,1.1977,1.1809,1.1809,1.1672,1.1591,1.1591,1.1591,1.1771,1.2066,1.2066,1.2259,0.8554,0.858,0.8612,0.8612,0.82,0.7657,0.7114,0.6534,0.0,0.0,0.5297,0.5297,0.5297,0.0,0.0,0.0,0.0,0.0,0.0,0.0,0.0,0.0,0.0,0.0,0.0,0.0,0.0,0.0,1.0692,1.0631,1.0443,1.0619,1.0692,1.0692,1.0692,1.0692,1.0692,1.0692,1.0692,1.0692,1.0692,1.0692,1.0692,1.0692,1.0692,1.0672,1.0371,1.0212,1.0188,0.9774,0.9579,0.9673,1.0547,1.176,1.3216,1.4124,1.5378,1.6636,1.6683,1.6683,1.6683,1.6683,1.6636,1.6636,1.6932,1.6979,1.7019,1.7239,1.7279,1.7279,1.7279,1.7279,1.7279,1.7279,1.7279,1.7245,1.6969,1.6646,1.6323,1.5972,1.5608,1.5389,1.5389,1.5389,1.5389,1.5389,1.5112,1.4812,1.4604,1.4223,1.3887,1.3623,1.3536,1.3492,1.3492,1.3492,1.3389,1.3126,1.3045,1.2892,1.2636,1.228,1.2105,1.2105,1.1823,1.1694,1.1694,1.1628,1.1825,1.2305,1.2451,1.2787,0.8564,0.8438,0.8612,0.8612,0.82,0.7657,0.7114,0.0,0.0,0.5434,0.5297,0.5297,0.5297,0.5478,0.0,0.0,0.0,0.7388,0.0,0.0,0.0,0.0,0.0,0.0,0.0,0.0,0.0,0.0,1.0692,1.0684,1.0668,1.0684,1.0692,1.0692,1.0692,1.0692,1.0692,1.0692,1.0692,1.0692,1.0692,1.0692,1.0692,1.0692,1.0692,1.0672,1.0371,1.0212,0.0,0.9774,0.9579,0.9628,0.9727,1.113,1.3119,1.3494,1.4889,1.6636,1.6878,1.6979,1.6979,1.6979,1.6784,1.6636,1.6932,1.6979,1.7019,1.7239,1.7279,1.7279,1.7279,1.7279,1.7279,1.7279,1.7279,1.7245,1.6969,1.6646,1.6323,1.5972,1.5608,1.5389,1.5389,1.5389,1.5389,1.5389,1.5112,1.4893,1.4863,1.4362,1.4005,1.3945,1.3675,1.3492,1.3492,1.3492,1.3484,1.3448,1.317,1.2994,1.2965,1.2616,1.2441,1.2441,1.2127,1.1959,1.1959,1.1738,1.1622,1.1716,1.2243,1.2543,0.8992,0.8811,0.8584,0.843,0.8033,0.749,0.7057,0.0,0.5928,0.5549,0.538,0.5297,0.5297,0.5353,0.5567,0.603,0.6221,0.6686,0.7622,0.0,0.0,0.0,0.0,0.0,0.0,0.0,0.0,1.0937,1.0966,1.0857,1.0692,1.0692,1.0692,1.0692,1.0692,1.0802,1.0966,1.0966,1.0966,1.0966,1.0966,1.0966,1.0966,1.0747,1.0802,1.0945,1.105,1.1092,0.0,1.1553,1.1619,1.1521,1.1799,1.2866,1.4274,1.4543,1.565,1.7052,1.7153,1.72,1.72,1.72,1.7099,1.7052,1.7153,1.7113,1.7019,1.7239,1.7279,1.7279,1.7279,1.7279,1.7279,1.7279,1.7279,1.7296,1.7165,1.6733,1.6375,1.6213,1.5774,1.5389,1.5389,1.5389,1.5389,1.5389,1.5279,1.5126,1.4929,1.4681,1.4414,1.4026,1.3689,1.3492,1.3492,1.3492,1.3492,1.3492,1.3375,1.3301,1.3301,1.2987,1.2811,1.2811,1.2456,1.2295,1.2295,1.2197,1.2255,1.2467,1.2704,1.3268,0.8783,0.8687,0.8369,0.8239,0.7845,0.7393,0.0,0.0,0.5901,0.5643,0.543,0.5297,0.5297,0.5297,0.5426,0.5754,0.5892,0.6258,0.7175,0.0,0.0,0.0,0.0,0.0,0.0,0.0,0.0,1.1219,1.1181,1.1072,1.0966,1.0857,1.0802,1.0692,1.0692,1.0857,1.1072,1.1072,1.1126,1.1236,1.1236,1.14,1.1723,1.1448,1.1634,1.2089,1.2252,1.2322,0.0,1.2992,1.3113,1.2963,1.3343,1.416,1.5134,1.5311,1.6224,1.7279,1.7279,1.7279,1.7279,1.7279,1.7279,1.7279,1.7279,1.72,1.7113,1.7239,1.7279,1.7279,1.7279,1.7279,1.7279,1.7279,1.7279,1.7279,1.7279,1.6894,1.6529,1.6433,1.5935,1.5498,1.5403,1.5389,1.5389,1.5389,1.5389,1.5309,1.5075,1.4966,1.4732,1.4311,1.3894,1.3601,1.3506,1.3492,1.3492,1.3492,1.3492,1.3492,1.3492,1.3272,1.3148,1.3148,1.2833,1.2665,1.2665,1.2536,1.2728,1.3203,1.3163,1.3894,0.763,0.7752,0.8016,0.8016,0.7731,0.7382,0.0,0.6491,0.6015,0.5671,0.543,0.5297,0.5297,0.5297,0.5357,0.5555,0.5878,0.6424,0.7374,0.0,0.0,0.0,0.0,0.0,0.0,0.0,1.1232,1.1568,1.1291,0.0,1.1568,1.1291,1.0962,1.0692,1.0692,1.0857,1.1072,1.1072,1.1295,1.1568,1.1568,1.2219,1.3285,1.2956,1.342,1.4428,1.3987,1.3777,0.0,1.3596,1.3482,1.3482,1.3482,1.4304,1.5406,1.5406,1.6224,1.7279,1.7279,1.7279,1.7279,1.7279,1.7279,1.7279,1.7279,1.7279,1.7279,1.7279,1.7279,1.7279,1.7279,1.7279,1.7279,1.7279,1.7279,1.7279,1.7279,1.7077,1.68,1.647,1.6118,1.5804,1.5447,1.5389,1.5389,1.5389,1.5389,1.5389,1.5382,1.5104,1.49,1.4893,1.4355,1.385,1.3521,1.3492,1.3492,1.3492,1.3492,1.3492,1.3492,1.3492,1.3492,1.3492,1.317,1.3001,1.3001,1.2645,1.2923,1.3692,1.3576,1.4246,0.9034,0.8896,0.868,0.8466,0.7964,0.7444,0.7161,0.6599,0.6061,0.5917,0.5759,0.5631,0.5631,0.5572,0.5729,0.6453,0.6418,0.6638,0.0,0.0,0.0,0.0,0.0,0.0,0.0,0.0,1.1428,1.1832,1.1787,1.1673,1.1623,1.1553,1.1436,1.1345,1.1076,1.1185,1.1728,1.1728,1.1782,1.1896,1.1896,1.1986,1.2228,1.2626,1.3022,1.3472,1.4407,1.4808,1.4881,1.5591,1.5758,1.5663,1.5981,1.6278,1.6534,1.6662,1.6943,1.7279,1.7279,1.7279,1.7279,1.7279,1.7279,1.7279,1.7279,1.7279,1.7279,1.7279,1.7279,1.7279,1.7279,1.7279,1.7279,1.7279,1.7279,1.7279,1.7279,1.7077,1.68,1.6477,1.6118,1.5811,1.5447,1.5389,1.5389,1.5389,1.5389,1.5389,1.5389,1.5301,1.5148,1.4922,1.4718,1.4421,1.3879,1.3623,1.3492,1.3492,1.3492,1.3492,1.3492,1.3492,1.3492,1.3492,1.3397,1.3338,1.3338,1.3747,1.4234,1.4782,1.5268,1.5734,0.0,0.9047,0.8795,0.8379,0.7914,0.747,0.7029,0.653,0.6133,0.6018,0.59,0.5795,0.5736,0.565,0.5804,0.6371,0.632,0.6568,0.0,0.0,0.0,0.0,0.0,0.0,0.0,1.1431,1.1491,1.1875,1.1831,1.1724,1.167,1.161,1.1601,1.1666,1.1369,1.1439,1.2005,1.1932,1.1986,1.2164,1.2012,1.2123,1.2491,1.2737,1.3141,1.369,1.4918,1.548,0.0,1.6658,1.7012,1.6911,1.7192,1.7239,1.7106,1.7239,1.7279,1.7279,1.7279,1.7279,1.7279,1.7279,1.7279,1.7279,1.7279,1.7279,1.7279,1.7279,1.7279,1.7279,1.7279,1.7279,1.7279,1.7279,1.7279,1.7279,1.7279,1.7172,1.6901,1.6499,1.6213,1.5943,1.5462,1.5389,1.5389,1.5389,1.5389,1.5389,1.5389,1.5389,1.5309,1.5104,1.4973,1.4739,1.4377,1.3938,1.3675,1.3675,1.3565,1.3492,1.3492,1.3492,1.3492,1.3492,1.3775,1.3912,1.3912,1.4958,1.5442,1.5472,1.6215,1.6588,0.0,0.8445,0.0,0.0,0.7782,0.7578,0.6832,0.6532,0.0,0.6124,0.5982,0.5854,0.5794,0.5694,0.5675,0.5836,0.5935,0.0,0.0,0.0,0.0,0.0,0.0,0.0,0.0,1.1314,1.1545,1.1766,1.1559,1.1559,1.1766,1.1545,1.1545,1.1766,1.1471,1.155,1.1959,1.1782,1.1942,1.2335,1.2002,1.2422,1.3624,1.3292,1.3728,0.0,1.5578,1.5893,1.5988,1.6897,1.7279,1.7279,1.7279,1.7279,1.7279,1.7279,1.7279,1.7279,1.7279,1.7279,1.7279,1.7279,1.7279,1.7279,1.7279,1.7279,1.7279,1.7279,1.7279,1.7279,1.7279,1.7279,1.7279,1.7279,1.7279,1.7279,1.7279,1.7279,1.7143,1.6573,1.6426,1.6177,1.557,1.5403,1.5389,1.5389,1.5389,1.5389,1.5389,1.5389,1.5389,1.5389,1.5119,1.4936,1.4936,1.4384,1.4056,1.4056,1.3711,1.3536,1.3536,1.3506,1.3492,1.3492,1.4222,1.4637,1.478,1.6193,1.655,1.5886,1.662,1.6966,0.916,0.0,0.9359,0.9072,0.8692,0.8334,0.0,0.7798,0.7383,0.6928,0.0,0.0,0.7352,0.6599,0.6449,0.8143,0.7555,0.7315,0.0,0.0,0.0,0.0,0.0,0.0,0.0,1.1483,1.155,1.1803,1.1766,1.1714,1.1817,1.1569,1.1555,1.1813,1.1564,1.1606,1.1854,1.1812,1.1812,1.1959,1.1865,1.1863,1.211,1.3546,1.427,1.4503,1.6211,1.6943,1.699,1.7185,1.7279,1.7279,1.7279,1.7279,1.7279,1.7279,1.7279,1.7279,1.7279,1.7279,1.7279,1.7279,1.7279,1.7279,1.7279,1.7279,1.7279,1.7279,1.7279,1.7279,1.7279,1.7279,1.7279,1.7279,1.7279,1.7279,1.7279,1.7279,1.7216,1.6859,1.6587,1.625,1.587,1.5557,1.5389,1.5389,1.5389,1.5389,1.5389,1.5389,1.5389,1.5389,1.5316,1.5272,1.5272,1.4721,1.4394,1.4394,1.4086,1.3865,1.3865,1.3631,1.3492,1.3492,1.4222,1.5163,1.6367,1.6724,1.7079,1.7442,1.7647,1.7725,0.9484,0.9669,0.9795,0.9429,0.9146,0.885,0.8573,0.0,0.0,0.0,0.0,0.0,0.0,0.0,0.0,0.0,0.7737,0.0,0.0,0.0,0.0,0.0,0.0,0.0,0.0,1.1368,1.1416,1.1524,1.1529,1.1529,1.1529,1.143,1.142,1.1529,1.1425,1.1515,1.1813,1.1723,1.1723,1.1813,1.1624,1.1771,1.2204,1.3276,1.3922,1.4411,1.594,1.6608,1.6662,1.7091,1.7279,1.7279,1.7279,1.7279,1.7279,1.7279,1.7279,1.7279,1.7279,1.7279,1.7279,1.7279,1.7279,1.7279,1.7279,1.7279,1.7279,1.7279,1.7279,1.7279,1.7279,1.7279,1.7279,1.7279,1.7279,1.7279,1.7279,1.7279,1.723,1.6961,1.6756,1.6492,1.5994,1.5767,1.5564,1.5411,1.5389,1.5389,1.5389,1.5389,1.5389,1.5389,1.5389,1.5389,1.5389,1.5109,1.4845,1.4692,1.4384,1.4247,1.4247,1.3894,1.3969,1.4482,1.4895,1.5842,1.7398,1.7398,1.7613,1.8008,1.8008,1.8008,0.9672,0.9965,1.0103,0.9487,0.9378,0.926,0.8711,0.0,0.0,0.0,0.0,0.0,0.0,0.0,0.0,0.0,0.0,0.0,0.0,0.0,0.0,0.0,0.0,0.0,1.1194,1.1194,1.1194,1.1194,1.1194,1.1194,1.1194,1.1194,1.1194,1.1194,1.1194,1.1364,1.1718,1.1553,1.1553,1.1718,1.1513,1.1968,1.2984,1.3116,1.3686,1.4603,0.0,0.0,1.6082,1.6943,1.7279,1.7279,1.7279,1.7279,1.7279,1.7279,1.7279,1.7279,1.7279,1.7279,1.7279,1.7279,1.7279,1.7279,1.7279,1.7279,1.7279,1.7279,1.7279,1.7279,1.7279,1.7279,1.7279,1.7279,1.7279,1.7279,1.7279,1.7279,1.7252,1.7027,1.6932,1.6734,1.6155,1.5979,1.5783,1.5506,1.5418,1.5389,1.5389,1.5389,1.5389,1.5389,1.5389,1.5389,1.5389,1.5389,1.5272,1.4995,1.4721,1.4562,1.4511,1.4196,1.4505,1.5591,1.5665,1.6411,1.7828,1.794,1.8008,1.8008,1.8008,1.8008,0.995,1.047,1.0726,0.9785,0.9758,0.9895,0.9508,0.0,0.0,0.0,0.0,0.0,0.0,0.0,0.0,0.0,0.0,0.0,0.0,0.0,0.0,0.0,0.0,1.1194,1.1194,1.1194,1.1194,1.1194,1.1194,1.1194,1.1194,1.1194,1.1194,1.1194,1.1194,1.1227,1.1288,1.126,1.126,1.1288,1.2093,1.2559,1.2786,1.4519,1.5412,1.5609,0.0,1.7091,1.7084,1.7232,1.7279,1.7279,1.7279,1.7279,1.7279,1.7279,1.7279,1.7279,1.7279,1.7279,1.7279,1.7279,1.7279,1.7279,1.7279,1.7279,1.7279,1.7279,1.7279,1.7279,1.7279,1.7279,1.7279,1.7279,1.7279,1.7279,1.7279,1.7279,1.7311,1.7267,1.704,1.6866,1.6771,1.6265,1.5899,1.5848,1.5564,1.5389,1.5389,1.5389,1.5389,1.5389,1.5389,1.5389,1.5389,1.5389,1.5367,1.5316,1.5009,1.475,1.4518,1.4196,1.4396,1.5165,1.5516,1.6167,1.7079,1.7691,1.8008,1.8008,1.8008,1.8008,0.9797,1.0185,1.0485,1.0207,1.0646,1.1063,1.0741,1.0696,0.0,0.0,0.0,0.0,0.0,0.0,0.0,0.0,0.0,0.0,0.0,0.0,0.0,0.0,0.0,1.1194,1.1194,1.1194,1.1194,1.1194,1.1194,1.1194,1.1194,1.1194,1.1194,1.1194,1.1194,1.1194,1.1194,1.1194,1.1482,1.2009,1.249,1.3307,1.4405,1.5365,1.6082,1.6655,0.0,1.7279,1.7279,1.7279,1.7279,1.7279,1.7279,1.7279,1.7279,1.7279,1.7279,1.7279,1.7279,1.7279,1.7279,1.7279,1.7279,1.7279,1.7279,1.7279,1.7279,1.7279,1.7279,1.7279,1.7279,1.7279,1.7279,1.7279,1.7279,1.7279,1.7279,1.7279,1.7279,1.7279,1.7208,1.7055,1.6925,1.6514,1.6104,1.5943,1.56,1.5389,1.5389,1.5389,1.5389,1.5389,1.5389,1.5389,1.5389,1.5389,1.5389,1.5389,1.5243,1.5017,1.4735,1.4582,1.4756,1.5344,1.5551,1.6141,1.7157,1.7743,1.8097,1.8315,1.8315,1.8315,0.9687,0.9907,1.0177,1.0507,0.0,1.1565,1.1655,1.1584,0.0,0.0,0.0,0.0,0.0,0.0,0.0,0.0,0.0,0.0,0.0,0.0,1.1194,1.1194,1.1194,1.1194,1.1194,1.1194,1.1194,1.1194,1.1194,1.1194,1.1194,1.1194,1.1194,1.1194,1.1194,1.1194,1.1194,1.1433,1.1819,1.2349,1.2823,1.3926,1.546,1.594,1.656,1.7279,1.7279,1.7279,1.7279,1.7279,1.7279,1.7279,1.7279,1.7279,1.7279,1.7279,1.7279,1.7279,1.7279,1.7279,1.7279,1.7279,1.7279,1.7279,1.7279,1.7279,1.7279,1.7279,1.7279,1.7279,1.7279,1.7279,1.7279,1.7279,1.7279,1.7279,1.7279,1.7279,1.7279,1.7279,1.7279,1.7252,1.7011,1.6741,1.6382,1.6067,1.5752,1.5469,1.5396,1.5389,1.5389,1.5389,1.5389,1.5389,1.5389,1.5389,1.5389,1.5389,1.5389,1.5272,1.5024,1.4944,1.5056,1.5444,1.5551,1.6167,1.7288,1.777,1.8238,1.8754,1.8754,1.8754,0.9907,1.0082,1.0177,1.0507,1.0411,1.055,1.1704,1.1538,0.0,1.227,0.0,0.0,0.0,0.0,0.0,0.0,0.0,0.0,0.0,0.0,1.1194,1.1194,1.1194,1.1194,1.1194,1.1194,1.1194,1.1194,1.1194,1.1194,1.1194,1.1194,1.1194,1.1194,1.1194,1.1194,1.1194,1.2106,1.2155,1.134,1.3258,1.4268,1.4459,1.6325,1.7232,1.7279,1.7279,1.7279,1.7279,1.7279,1.7279,1.7279,1.7279,1.7279,1.7279,1.7279,1.7279,1.7279,1.7279,1.7279,1.7279,1.7279,1.7279,1.7279,1.7279,1.7279,1.7279,1.7279,1.7279,1.7279,1.7279,1.7279,1.7279,1.7279,1.7279,1.7279,1.7279,1.7279,1.7279,1.7279,1.7279,1.7271,1.725,1.7033,1.6756,1.6426,1.6074,1.5767,1.5425,1.5389,1.5389,1.5389,1.5389,1.5389,1.5389,1.5389,1.5389,1.5389,1.5389,1.5374,1.5352,1.5061,1.4933,1.4944,1.5373,1.6024,1.6954,1.7646,1.8433,1.9238,1.9238,1.9238,0.9687,0.9943,1.0228,1.0784,1.0975,0.0,0.0,1.2621,1.3097,1.3835,1.3589,0.0,0.0,0.0,0.0,0.0,0.0,0.0,1.1194,1.1194,1.1194,1.1194,1.1194,1.1194,1.1194,1.1194,1.1194,1.1194,1.1194,1.1194,1.1194,1.1194,1.1194,1.1194,1.1194,1.1194,1.1194,1.158,1.1868,1.2155,1.4214,1.5555,1.6177,1.6943,1.7279,1.7279,1.7279,1.7279,1.7279,1.7279,1.7279,1.7279,1.7279,1.7279,1.7279,1.7279,1.7279,1.7279,1.7279,1.7279,1.7279,1.7279,1.7279,1.7279,1.7279,1.7279,1.7279,1.7279,1.7279,1.7279,1.7279,1.7279,1.7279,1.7279,1.7279,1.7279,1.7279,1.7279,1.7279,1.7279,1.7279,1.7279,1.7279,1.7062,1.6793,1.6463,1.6111,1.5796,1.5425,1.5389,1.5389,1.5389,1.5389,1.5389,1.5389,1.5389,1.5389,1.5389,1.5389,1.5389,1.5389,1.5272,1.5206,1.5206,1.5401,1.6055,1.7197,1.7731,1.8572,1.9678,1.9678,1.9678,0.9424,0.9636,0.9987,1.0762,0.0,0.0,1.2767,1.3499,1.4223,1.5031,1.495,0.0,0.0,0.0,0.0,0.0,0.0,1.2063,1.1722,1.1673,1.158,1.1243,1.1194,1.1194,1.1194,1.1194,1.1194,1.1194,1.1194,1.1194,1.1194,1.1194,1.1194,1.1194,1.1194,1.1194,1.1194,1.1531,1.2204,1.321,1.4984,1.6177,1.685,1.7138,1.7279,1.7279,1.7279,1.7279,1.7279,1.7279,1.7279,1.7279,1.7279,1.7279,1.7279,1.7279,1.7279,1.7279,1.7279,1.7279,1.7279,1.7279,1.7279,1.7279,1.7279,1.7279,1.7279,1.7279,1.7279,1.7279,1.7279,1.7279,1.7279,1.7279,1.7279,1.7279,1.7279,1.7279,1.7279,1.7279,1.7279,1.7279,1.7279,1.715,1.6939,1.6617,1.6345,1.6096,1.5767,1.5731,1.5694,1.5549,1.5447,1.5389,1.5389,1.5389,1.5389,1.5389,1.5389,1.5389,1.5389,1.5389,1.5389,1.5389,1.5389,1.5998,1.7186,1.7717,1.8585,1.9736,2.0003,2.0117,0.9207,0.9207,0.9442,0.0,0.0,0.0,1.3623,1.3996,1.4362,1.5665,1.5928,1.6016,1.6316,0.0,0.0,1.5258,1.4754,1.3932,1.2872,1.2732,1.2349,1.134,1.1243,1.1243,1.1243,1.1243,1.1243,1.1243,1.1194,1.1194,1.1194,1.1194,1.1194,1.1194,1.1194,1.1194,1.1194,1.2204,1.3258,1.4316,1.5317,1.5798,1.5846,1.685,1.7279,1.7279,1.7279,1.7279,1.7279,1.7279,1.7279,1.7279,1.7279,1.7279,1.7279,1.7279,1.7279,1.7279,1.7279,1.7279,1.7279,1.7279,1.7279,1.7279,1.7279,1.7279,1.7279,1.7279,1.7279,1.7279,1.7279,1.7279,1.7279,1.7279,1.7279,1.7279,1.7279,1.7279,1.7279,1.7279,1.7279,1.7279,1.7279,1.7279,1.7223,1.6947,1.6903,1.6785,1.6448,1.6411,1.625,1.5943,1.5579,1.5389,1.5389,1.5389,1.5389,1.5389,1.5389,1.5389,1.5389,1.5389,1.5389,1.5389,1.5389,1.5824,1.6698,1.7553,1.8447,1.9301,2.0206,2.0605,0.9424,0.9819,0.0,0.0,0.0,0.0,0.0,1.4838,0.0,0.0,1.6733,1.6646,1.6734,0.0,0.0,1.5291,1.4754,1.4172,1.3884,1.3836,1.3692,1.3403,1.3355,1.3355,1.3355,1.3355,1.3065,1.2296,1.2252,1.1965,1.1243,1.1194,1.1194,1.1194,1.1194,1.1194,1.1194,1.2204,1.3258,1.4316,1.5317,1.6183,1.685,1.7138,1.7279,1.7279,1.7279,1.7279,1.7279,1.7279,1.7279,1.7279,1.7279,1.7279,1.7279,1.7279,1.7279,1.7279,1.7279,1.7279,1.7279,1.7279,1.7279,1.7279,1.7279,1.7279,1.7279,1.7279,1.7279,1.7279,1.7279,1.7279,1.7279,1.7279,1.7279,1.7279,1.7279,1.7279,1.7279,1.7279,1.7279,1.7279,1.7279,1.7279,1.7223,1.6947,1.6903,1.6705,1.6118,1.6052,1.5928,1.5564,1.5447,1.5389,1.5389,1.5389,1.5389,1.5389,1.5389,1.5389,1.5389,1.5389,1.5389,1.5389,1.5389,1.5824,1.6698,1.6944,1.7836,1.9301,1.9578,2.001,0.9533,1.0089,0.0,0.0,0.0,0.0,1.5394,0.0,0.0,0.0,0.0,1.6939,1.7018,1.6419,0.0,1.6075,1.5772,1.5365,1.4937,1.4889,1.4746,1.4364,1.4316,1.4316,1.4316,1.4316,1.4028,1.3403,1.292,1.2441,1.1819,1.1438,1.1194,1.1194,1.1194,1.1194,1.1194,1.2204,1.3258,1.4316,1.5317,1.6325,1.7279,1.7279,1.7279,1.7279,1.7279,1.7279,1.7279,1.7279,1.7279,1.7279,1.7279,1.7279,1.7279,1.7279,1.7279,1.7279,1.7279,1.7279,1.7279,1.7279,1.7279,1.7279,1.7279,1.7279,1.7279,1.7279,1.7279,1.7279,1.7279,1.7279,1.7279,1.7279,1.7279,1.7279,1.7279,1.7279,1.7279,1.7279,1.7279,1.7279,1.7279,1.7279,1.7267,1.7069,1.7047,1.6908,1.6528,1.625,1.6067,1.6001,1.5657,1.544,1.5571,1.5462,1.5389,1.5389,1.5389,1.5389,1.5389,1.5389,1.5389,1.5389,1.5389,1.5665,1.618,1.6862,1.7755,1.8807,1.949,2.0089,0.9607,0.0,0.0,0.0,0.0,0.0,0.0,0.0,0.0,0.0,0.0,1.7027,1.7274,1.7091,1.7042,1.7282,1.7279,1.6998,1.6082,1.594,1.5609,1.4698,1.4555,1.4555,1.4555,1.4555,1.4555,1.4459,1.3451,1.2775,1.2732,1.177,1.1194,1.1194,1.1292,1.1292,1.1194,1.2398,1.3451,1.4316,1.5412,1.6419,1.7279,1.7279,1.7279,1.7279,1.7279,1.7279,1.7279,1.7279,1.7279,1.7279,1.7279,1.7279,1.7279,1.7279,1.7279,1.7279,1.7279,1.7279,1.7279,1.7279,1.7279,1.7279,1.7279,1.7279,1.7279,1.7279,1.7279,1.7279,1.7279,1.7279,1.7279,1.7279,1.7279,1.7279,1.7279,1.7279,1.7279,1.7279,1.7279,1.7279,1.7279,1.7279,1.7279,1.7279,1.7279,1.7271,1.7289,1.6769,1.6558,1.6829,1.6009,1.5557,1.5891,1.5571,1.5389,1.5389,1.5389,1.5389,1.5389,1.5389,1.5389,1.5389,1.5389,1.5389,1.5389,1.7074,1.7917,1.8037,1.9726,2.0527,0.0,1.0887,0.0,0.0,0.0,0.0,0.0,0.0,0.0,0.0,0.0,0.0,1.7271,1.7274,1.7252,1.7271,1.7279,1.7232,1.6998,1.6998,1.6897,1.6662,1.6662,1.6662,1.6662,1.6662,1.6325,1.5561,1.4555,1.3596,1.2732,1.177,1.1194,1.1194,1.196,1.2009,1.1194,1.3836,1.4841,1.4316,1.6129,1.7091,1.7279,1.7279,1.7279,1.7279,1.7279,1.7279,1.7279,1.7279,1.7279,1.7279,1.7279,1.7279,1.7279,1.7279,1.7279,1.7279,1.7279,1.7279,1.7279,1.7279,1.7279,1.7279,1.7279,1.7279,1.7279,1.7279,1.7279,1.7279,1.7279,1.7279,1.7279,1.7279,1.7279,1.7279,1.7279,1.7279,1.7279,1.7279,1.7279,1.7279,1.7279,1.7279,1.7279,1.7279,1.7279,1.7238,1.6989,1.6881,1.6727,1.6536,1.6074,1.584,1.5913,1.5571,1.5389,1.5389,1.5389,1.5389,1.5389,1.5389,1.5389,1.5389,1.5389,1.5389,1.5389,1.646,1.735,1.8037,1.9094,1.9932,0.0,0.0,0.0,0.0,0.0,0.0,0.0,0.0,0.0,0.0,0.0,0.0,1.7279,1.7279,1.7279,1.7279,1.7279,1.7279,1.7279,1.7279,1.7279,1.7279,1.7279,1.7279,1.7279,1.7279,1.7084,1.656,1.5602,1.4794,1.4214,1.321,1.2441,1.1917,1.2441,1.2204,1.1194,1.3258,1.4316,1.4316,1.5846,1.685,1.7279,1.7279,1.7279,1.7279,1.7279,1.7279,1.7279,1.7279,1.7279,1.7279,1.7279,1.7279,1.7279,1.7279,1.7279,1.7279,1.7279,1.7279,1.7279,1.7279,1.7279,1.7279,1.7279,1.7279,1.7279,1.7279,1.7279,1.7279,1.7279,1.7279,1.7279,1.7279,1.7279,1.7279,1.7279,1.7279,1.7279,1.7279,1.7279,1.7279,1.7279,1.7279,1.7279,1.7279,1.7279,1.7267,1.7106,1.6998,1.6895,1.6828,1.6411,1.6191,1.6352,1.5935,1.5657,1.5657,1.5469,1.5389,1.5389,1.5389,1.5389,1.5389,1.5389,1.5389,1.5389,1.6706,1.7553,1.8037,1.9332,2.0167,0.0,0.0,0.0,0.0,0.0,0.0,0.0,0.0,0.0,0.0,0.0,0.0,1.7279,1.7279,1.7279,1.7279,1.7279,1.7279,1.7279,1.7279,1.7279,1.7279,1.7279,1.7279,1.7279,1.7279,1.7279,1.7279,1.6372,1.5798,1.5798,1.4841,1.3884,1.3017,1.3162,1.2732,1.1722,1.292,1.383,1.4555,1.5555,1.6466,1.7279,1.7279,1.7279,1.7279,1.7279,1.7279,1.7279,1.7279,1.7279,1.7279,1.7279,1.7279,1.7279,1.7279,1.7279,1.7279,1.7279,1.7279,1.7279,1.7279,1.7279,1.7279,1.7279,1.7279,1.7279,1.7279,1.7279,1.7279,1.7279,1.7279,1.7279,1.7279,1.7279,1.7279,1.7279,1.7279,1.7279,1.7279,1.7279,1.7279,1.7279,1.7279,1.7279,1.7279,1.7279,1.7279,1.7279,1.7099,1.7033,1.7304,1.6799,1.6609,1.6873,1.6323,1.5972,1.5921,1.5622,1.5447,1.5389,1.5389,1.5389,1.5389,1.5389,1.5389,1.5389,1.7155,1.7997,1.8037,1.9805,2.0605,0.0,0.0,0.0,0.0,0.0,0.0,0.0,0.0,0.0,0.0,0.0,1.7279,1.7279,1.7279,1.7279,1.7279,1.7279,1.7279,1.7279,1.7279,1.7279,1.7279,1.7279,1.7279,1.7279,1.7279,1.7279,1.7279,1.6372,1.5798,1.5798,1.4841,1.422,1.4076,1.4937,1.4883,1.3884,1.5744,1.6318,1.5602,1.6615,1.7185,1.7279,1.7279,1.7279,1.7279,1.7279,1.7279,1.7279,1.7279,1.7279,1.7279,1.7279,1.7279,1.7279,1.7279,1.7279,1.7279,1.7279,1.7279,1.7279,1.7279,1.7279,1.7279,1.7279,1.7279,1.7279,1.7279,1.7279,1.7279,1.7279,1.7279,1.7279,1.7279,1.7279,1.7279,1.7279,1.7279,1.7279,1.7279,1.7279,1.7279,1.7279,1.7279,1.7279,1.7279,1.7279,1.7279,1.7279,1.7296,1.7282,1.7279,1.7004,1.6851,1.6895,1.6565,1.6199,1.5935,1.5877,1.5681,1.5396,1.5389,1.5389,1.5389,1.5389,1.5389,1.5389,1.7155,1.7997,1.8037,1.9805,2.0605,1.0068,0.0,0.0,0.0,0.0,0.0,0.0,0.0,0.0,0.0,0.0,1.7279,1.7279,1.7279,1.7279,1.7279,1.7279,1.7279,1.7279,1.7279,1.7279,1.7279,1.7279,1.7279,1.7279,1.7279,1.7279,1.7279,1.6897,1.6655,1.6655,1.6224,1.5704,1.5175,1.5561,1.5317,1.4316,1.5175,1.5704,1.5798,1.6803,1.7279,1.7279,1.7279,1.7279,1.7279,1.7279,1.7279,1.7279,1.7279,1.7279,1.7279,1.7279,1.7279,1.7279,1.7279,1.7279,1.7279,1.7279,1.7279,1.7279,1.7279,1.7279,1.7279,1.7279,1.7279,1.7279,1.7279,1.7279,1.7279,1.7279,1.7279,1.7279,1.7279,1.7279,1.7279,1.7279,1.7279,1.7279,1.7279,1.7279,1.7279,1.7279,1.7279,1.7279,1.7279,1.7279,1.7279,1.7279,1.7279,1.7279,1.7279,1.7201,1.7121,1.7121,1.6866,1.6631,1.6448,1.6111,1.5848,1.5709,1.5484,1.5389,1.5389,1.5389,1.5389,1.5389,1.7155,1.7997,1.8037,1.9805,2.0605,0.0,0.0,0.0,0.0,0.0,0.0,0.0,0.0,0.0,0.0,0.0,1.7106,1.7194,1.7274,1.7279,1.7279,1.7279,1.7279,1.7279,1.7279,1.7279,1.7279,1.7279,1.7279,1.7279,1.7279,1.7279,1.7279,1.7279,1.7279,1.7279,1.7279,1.6943,1.6183,1.6177,1.5846,1.508,1.508,1.546,1.6177,1.6943,1.7279,1.7279,1.7279,1.7279,1.7279,1.7279,1.7279,1.7279,1.7279,1.7279,1.7279,1.7279,1.7279,1.7279,1.7279,1.7279,1.7279,1.7279,1.7279,1.7279,1.7279,1.7279,1.7279,1.7279,1.7279,1.7279,1.7279,1.7279,1.7279,1.7279,1.7279,1.7279,1.7279,1.7279,1.7279,1.7279,1.7279,1.7279,1.7279,1.7279,1.7279,1.7279,1.7279,1.7279,1.7279,1.7279,1.7279,1.7279,1.7279,1.7279,1.7279,1.7279,1.7279,1.7279,1.7113,1.6991,1.6903,1.6411,1.6118,1.6038,1.5723,1.5513,1.5513,1.5668,1.5748,1.5748,1.748,1.8327,1.8367,1.9883,2.0605,0.0,0.0,0.0,0.0,0.0,0.0,0.0,0.0,0.0,0.0,1.6455,1.6558,1.6866,1.7128,1.7279,1.7279,1.7279,1.7279,1.7279,1.7279,1.7279,1.7279,1.7279,1.7279,1.7279,1.7279,1.7279,1.7279,1.7279,1.7279,1.7279,1.7279,1.7279,1.7232,1.7232,1.7185,1.7138,1.7138,1.7185,1.7232,1.7279,1.7279,1.7279,1.7279,1.7279,1.7279,1.7279,1.7279,1.7279,1.7279,1.7279,1.7279,1.7279,1.7279,1.7279,1.7279,1.7279,1.7279,1.7279,1.7279,1.7279,1.7279,1.7279,1.7279,1.7279,1.7279,1.7279,1.7279,1.7279,1.7279,1.7279,1.7279,1.7279,1.7279,1.7279,1.7279,1.7279,1.7279,1.7279,1.7279,1.7279,1.7279,1.7279,1.7279,1.7279,1.7279,1.7279,1.7279,1.7279,1.7279,1.7279,1.7279,1.7279,1.7279,1.7279,1.7311,1.7172,1.6917,1.6866,1.6712,1.6404,1.6052,1.5891,1.5891,1.6391,1.6617,1.6657,1.8367,1.9222,1.9262,2.0167,2.0605,0.0,0.0,0.0,0.0,0.0,0.0,0.0,0.0,0.0,0.0,1.6089,1.6448,1.6565,1.6851,1.7091,1.725,1.7279,1.7279,1.7279,1.7279,1.7279,1.7279,1.7279,1.7279,1.7279,1.7279,1.7279,1.7279,1.7279,1.7279,1.7279,1.7279,1.7279,1.7279,1.7279,1.7279,1.7279,1.7279,1.7279,1.7279,1.7279,1.7279,1.7279,1.7279,1.7279,1.7279,1.7279,1.7279,1.7279,1.7279,1.7279,1.7279,1.7279,1.7279,1.7279,1.7279,1.7279,1.7279,1.7279,1.7279,1.7279,1.7279,1.7279,1.7279,1.7279,1.7279,1.7279,1.7279,1.7279,1.7279,1.7279,1.7279,1.7279,1.7279,1.7279,1.7279,1.7279,1.7279,1.7279,1.7279,1.7279,1.7279,1.7279,1.7279,1.7279,1.7279,1.7279,1.7279,1.7279,1.7279,1.7279,1.7279,1.7279,1.7279,1.7279,1.7279,1.7282,1.7165,1.7013,1.6851,1.6734,1.6191,1.5913,1.5913,1.6972,1.7269,1.6698,1.8447,1.9301,1.9301,2.0206,2.0605,0.8811,0.0,0.0,0.0,0.0,0.0,0.0,0.0,0.0,0.0,1.5526,1.5957,1.6177,1.6396,1.6674,1.7099,1.7172,1.7208,1.7311,1.7279,1.7279,1.7279,1.7279,1.7279,1.7279,1.7279,1.7279,1.7279,1.7279,0.0,1.7279,1.7279,1.7279,1.7279,1.7279,1.7279,1.7279,1.7279,1.7279,1.7279,1.7279,1.7279,1.7279,1.7279,1.7279,1.7279,1.7279,1.7279,1.7279,1.7279,1.7279,1.7279,1.7279,1.7279,1.7279,1.7279,1.7279,1.7279,1.7279,1.7279,1.7279,1.7279,1.7279,1.7279,1.7279,1.7279,1.7279,1.7279,1.7279,1.7279,1.7279,1.7279,1.7279,1.7279,1.7279,1.7279,1.7279,1.7279,1.7279,1.7279,1.7279,1.7279,1.7279,1.7279,1.7279,1.7279,1.7279,1.7279,1.7279,1.7279,1.7279,1.7279,1.7279,1.7279,1.7279,1.7279,1.7279,1.7279,1.7128,1.7011,1.7011,1.681,1.6518,1.6067,1.7763,1.8158,1.7147,1.8886,1.9736,1.9736,2.0333,2.0605,0.0,0.0,0.0,0.0,0.0,0.0,0.0,0.0,0.0,0.0,1.4677,1.5061,1.5767,1.5884,1.6089,1.6771,1.6881,1.6998,1.7267,1.7311,1.7271,1.7279,1.7279,1.7279,1.7279,1.7279,1.7279,1.7279,1.7279,1.7279,1.7279,1.7271,1.7264,1.725,1.725,1.7257,1.7311,1.7311,1.7271,1.7279,1.7279,1.7279,1.7279,1.7279,1.7279,1.7279,1.7279,1.7279,1.7279,1.7279,1.7279,1.7279,1.7279,1.7279,1.7279,1.7279,1.7279,1.7279,1.7279,1.7279,1.7279,1.7279,1.7279,1.7279,1.7279,1.7279,1.7279,1.7279,1.7279,1.7279,1.7279,1.7279,1.7279,1.7279,1.7279,1.7279,1.7279,1.7279,1.7279,1.7279,1.7279,1.7279,1.7279,1.7279,1.7279,1.7279,1.7279,1.7279,1.7279,1.7279,1.7279,1.7279,1.7279,1.7279,1.7279,1.7279,1.7279,1.7279,1.7279,1.7279,1.7279,1.7955,1.7712,1.6477,1.8726,1.93,1.8072,1.9775,2.0605,2.0605,2.0605,2.0615,0.8619,0.0,0.0,0.0,0.0,0.0,0.0,0.0,0.0,0.0,1.3675,1.4165,1.5009,1.517,1.5382,1.6074,1.636,1.6661,1.6991,1.7027,1.7069,1.7304,1.7279,1.7279,1.7279,1.7279,1.7279,0.0,1.7279,1.7279,1.7279,1.7113,1.6879,1.6638,1.663,1.6793,1.7027,1.7027,1.7099,1.7279,1.7279,1.7279,1.7279,1.7279,1.7279,1.7279,1.7279,1.7279,1.7279,1.7279,1.7279,1.7279,1.7279,1.7279,1.7279,1.7279,1.7279,1.7279,1.7279,1.7279,1.7279,1.7279,1.7279,1.7279,1.7279,1.7279,1.7279,1.7279,1.7279,1.7279,1.7279,1.7279,1.7279,1.7279,1.7279,1.7279,1.7279,1.7279,1.7279,1.7279,1.7279,1.7279,1.7279,1.7279,1.7279,1.7279,1.7279,1.7279,1.7279,1.7279,1.7279,1.7279,1.7279,1.7279,1.7279,1.7279,1.7279,1.7279,1.7279,1.7279,1.7279,1.7955,1.8126,1.7772,1.9504,2.0232,1.9864,2.0375,2.0605,2.0605,2.0605,2.0781,0.0,0.0,0.0,0.0,0.0,0.0,0.0,1.1121,0.0,0.0,0.0,1.3389,1.4362,1.4499,1.4718,1.5367,1.5657,1.5979,1.6617,1.6697,1.6763,1.6908,1.693,1.693,1.693,1.693,1.693,1.693,1.693,1.693,1.693,1.68,1.6609,1.6419,1.6411,1.6507,1.669,1.6697,1.6859,1.7128,1.7128,1.7201,1.7279,1.7279,1.7279,1.7279,1.7279,1.7279,1.7279,1.7279,1.7279,1.7279,1.7279,1.7279,1.7279,1.7279,1.7279,1.7279,1.7279,1.7279,1.7279,1.7279,1.7279,1.7279,1.7279,1.7279,1.7279,1.7279,1.7279,1.7279,1.7279,1.7279,1.7279,1.7279,1.7279,1.7279,1.7279,1.7279,1.7279,1.7279,1.7279,1.7279,1.7279,1.7279,1.7279,1.7279,1.7279,1.7279,1.7279,1.7279,1.7279,1.7279,1.7279,1.7279,1.7279,1.7279,1.7279,1.7279,1.7279,1.7279,1.7279,1.8452,1.8856,1.8308,2.0336,2.132,2.115,2.1155,2.1153,2.1153,2.1153,2.126,0.0,0.0,0.0,0.0,0.0,0.0,1.0718,1.0777,1.0836,0.0,0.0,1.2606,1.3587,1.3799,1.4011,1.4542,1.4725,1.5141,1.622,1.6316,1.6375,1.6411,1.6411,1.6411,1.6411,1.6411,1.6411,1.6411,1.6411,1.6397,1.6367,1.6316,1.6345,1.6309,1.6309,1.6323,1.6316,1.6316,1.6529,1.6844,1.6844,1.6967,1.7274,1.7274,1.725,1.7279,1.7279,1.7279,1.7279,1.7279,1.7279,1.7279,1.7279,1.7279,1.7279,1.7279,1.7279,1.7279,1.7279,1.7279,1.7279,1.7279,1.7279,1.7279,1.7279,1.7279,1.7279,1.7279,1.7279,1.7279,1.7279,1.7279,1.7279,1.7279,1.7279,1.7279,1.7279,1.7279,1.7279,1.7279,1.7279,1.7279,1.7279,1.7279,1.7279,1.7279,1.7279,1.7279,1.7279,1.7279,1.7279,1.7279,1.7279,1.7279,1.7279,1.7279,1.7279,1.7279,1.7279,1.7279,1.7279,1.9055,1.9582,1.8543,2.1197,2.2402,2.2021,2.1934,2.1885,2.1885,2.1885,2.1904,1.0324,0.0,0.0,0.0,0.0,0.0,1.0082,1.0258,1.0638,0.0,0.0,0.0,1.22,1.2594,1.2813,1.2937,1.3653,1.4596,1.5833,1.6001,1.6096,1.6382,1.6411,1.6411,1.6411,1.6411,1.6411,1.6411,1.6411,1.6265,1.6016,1.6001,1.5884,1.5621,1.5613,1.5738,1.6001,1.6001,1.6162,1.6507,1.6507,1.6683,1.6991,1.6991,1.7091,1.7279,1.7279,1.7279,1.7279,1.7279,1.7279,1.7279,1.7279,1.7279,1.7279,1.7279,1.7279,1.7279,1.7279,1.7279,1.7279,1.7279,1.7279,1.7279,1.7279,1.7279,1.7279,1.7279,1.7279,1.7279,1.7279,1.7279,1.7279,1.7279,1.7279,1.7279,1.7279,1.7279,1.7279,1.7279,1.7279,1.7279,1.7279,1.7279,1.7279,1.7279,1.7279,1.7279,1.7279,1.7279,1.7279,1.7279,1.7279,1.7279,1.7279,1.7279,1.7279,1.7279,1.7279,1.7279,1.7279,1.8419,1.9298,1.9813,2.1929,2.2925,2.2847,2.2217,2.1885,2.1885,2.1885,2.207,0.0,0.0,0.0,1.0631,0.0,0.0,0.0,1.0104,1.0236,1.0762,1.0572,0.0,0.0,0.0,1.1963,1.2404,1.2936,1.3536,1.4355,1.4889,1.5248,1.5443,1.5562,1.5657,1.5657,1.5804,1.5899,1.5899,1.5899,1.5833,1.5679,1.563,1.5557,1.5389,1.5389,1.5462,1.563,1.563,1.5833,1.614,1.614,1.6396,1.6903,1.6903,1.7026,1.7279,1.7279,1.7279,1.7279,1.7279,1.7279,1.7279,1.7279,1.7279,1.7279,1.7279,1.7279,1.7279,1.7279,1.7279,1.7279,1.7279,1.7279,1.7279,1.7279,1.7279,1.7279,1.7279,1.7279,1.7279,1.7279,1.7279,1.7279,1.7279,1.7279,1.7279,1.7279,1.7279,1.7279,1.7279,1.7279,1.7279,1.7279,1.7279,1.7279,1.7279,1.7279,1.7279,1.7279,1.7279,1.7279,1.7279,1.7279,1.7279,1.7279,1.7279,1.7279,1.7279,1.7279,1.7279,1.7279,1.8288,1.9467,2.0917,2.2369,2.3091,2.3091,2.2715,2.251,2.251,2.251,2.2627,0.0,0.0,0.0,0.0,0.0,1.0616,0.0,0.0,0.0,1.0653,0.0,0.0,0.0,0.0,0.0,0.0,0.0,0.0,0.0,1.3382,0.0,1.421,1.4523,1.4718,1.4718,1.49,1.5109,1.5233,1.5182,1.5163,1.5287,1.5352,1.5389,1.5389,1.5389,1.5389,1.5389,1.5389,1.552,1.5783,1.5783,1.6118,1.6719,1.6778,1.6983,1.7245,1.7304,1.7279,1.7279,1.7279,1.7279,1.7279,1.7279,1.7279,1.7279,1.7279,1.7279,1.7279,1.7279,1.7279,1.7279,1.7279,1.7279,1.7279,1.7279,1.7279,1.7279,1.7279,1.7279,1.7279,1.7279,1.7279,1.7279,1.7279,1.7279,1.7279,1.7279,1.7279,1.7279,1.7279,1.7279,1.7279,1.7279,1.7279,1.7279,1.7279,1.7279,1.7279,1.7279,1.7279,1.7279,1.7279,1.7279,1.7279,1.7279,1.7279,1.7279,1.7279,1.7279,1.7279,1.7279,1.8419,1.9877,2.165,2.2599,2.3091,2.3091,2.3091,2.3091,2.3091,2.3091,2.3091,0.0,0.0,0.0,0.0,1.2094,0.0,0.0,0.0,1.0346,0.9877,0.0,0.0,0.0,0.0,0.0,0.0,0.0,0.0,1.0938,1.1699,1.2492,1.3104,1.3718,1.4092,1.4092,1.3865,1.3953,1.4577,1.435,1.4392,1.4929,1.5228,1.5389,1.5389,1.5389,1.5389,1.5389,1.5389,1.5411,1.5447,1.5447,1.563,1.603,1.6301,1.6646,1.6969,1.7208,1.7279,1.7279,1.7279,1.7279,1.7279,1.7279,1.7279,1.7279,1.7279,1.7279,1.7279,1.7279,1.7279,1.7279,1.7279,1.7279,1.7279,1.7279,1.7279,1.7279,1.7279,1.7279,1.7279,1.7279,1.7279,1.7279,1.7279,1.7279,1.7279,1.7279,1.7279,1.7279,1.7279,1.7279,1.7279,1.7279,1.7279,1.7279,1.7279,1.7279,1.7279,1.7279,1.7279,1.7279,1.7279,1.7279,1.7279,1.7279,1.7279,1.7279,1.7279,1.7279,1.7279,1.7279,1.9055,2.0548,2.1695,2.2599,2.3091,2.3091,2.3091,2.3091,2.3091,2.3091,2.3091,0.0,0.0,0.0,0.0,0.0,0.0,1.0521,0.0,1.0053,0.0,0.0,0.0,0.0,0.0,0.0,0.0,1.0353,0.0,0.0,0.0,1.1436,0.0,0.0,0.0,1.3382,1.3294,1.3404,1.3865,1.3777,1.3982,1.4633,1.4936,1.5192,1.5382,1.5389,1.5389,1.5389,1.5389,1.5389,1.5389,1.5389,1.5599,1.5921,1.6045,1.6382,1.691,1.6996,1.7157,1.7279,1.7279,1.7279,1.7279,1.7279,1.7279,1.7279,1.7279,1.7279,1.7279,1.7279,1.7279,1.7279,1.7279,1.7279,1.7279,1.7279,1.7279,1.7279,1.7279,1.7279,1.7279,1.7279,1.7279,1.7279,1.7279,1.7279,1.7279,1.7279,1.7279,1.7279,1.7279,1.7279,1.7279,1.7279,1.7279,1.7279,1.7279,1.7279,1.7279,1.7279,1.7279,1.7279,1.7279,1.7279,1.7279,1.7279,1.7279,1.7279,1.7279,1.7831,1.8149,1.8149,2.0059,2.1284,2.1695,2.2599,2.3091,2.3091,2.3091,2.3091,2.3091,2.3091,2.3091,1.4201,0.0,0.0,0.0,0.0,0.0,0.0,0.0,0.0,0.0,0.0,0.0,0.0,0.0,0.0,0.0,0.0,1.0272,0.0,0.0,0.0,0.0,0.0,0.0,0.0,1.2445,1.2555,1.306,1.3016,1.3323,1.4196,1.4589,1.4922,1.5243,1.5345,1.5389,1.5389,1.5389,1.5389,1.5389,1.5389,1.5513,1.5789,1.5877,1.6213,1.6771,1.6859,1.7033,1.7279,1.7279,1.7279,1.7279,1.7279,1.7279,1.7279,1.7279,1.7279,1.7279,1.7279,1.7279,1.7279,1.7279,1.7279,1.7279,1.7279,1.7279,1.7279,1.7279,1.7279,1.7279,1.7279,1.7279,1.7279,1.7279,1.7279,1.7279,1.7279,1.7279,1.7279,1.7279,1.7279,1.7279,1.7279,1.7279,1.7279,1.7279,1.7279,1.7279,1.7279,1.7279,1.7279,1.7279,1.7279,1.7279,1.7279,1.7279,1.7279,1.7279,1.8241,1.8926,1.9147,2.0782,2.1828,2.2104,2.2731,2.3091,2.3091,2.3091,2.3091,2.3091,2.3091,2.3091,0.0,0.0,0.0,1.3047,0.0,0.0,0.0,0.0,1.0975,0.0,0.0,0.0,0.0,0.0,0.0,0.0,0.0,0.0,0.0,0.0,0.0,0.0,0.0,0.0,0.0,1.107,1.1055,0.0,1.1794,1.2215,1.3462,1.4174,1.4633,1.4907,1.5221,1.5389,1.5389,1.5389,1.5389,1.5389,1.5389,1.5389,1.5411,1.5767,1.6089,1.6448,1.6763,1.7033,1.7279,1.7279,1.7279,1.7279,1.7279,1.7279,1.7279,1.7279,1.7279,1.7279,1.7279,1.7279,1.7279,1.7279,1.7279,1.7279,1.7279,1.7279,1.7279,1.7279,1.7279,1.7279,1.7279,1.7279,1.7279,1.7279,1.7279,1.7279,1.7279,1.7279,1.7279,1.7279,1.7279,1.7279,1.7279,1.7279,1.7279,1.7279,1.7279,1.7279,1.7279,1.7279,1.7279,1.7279,1.7279,1.7279,1.7279,1.7279,1.7279,1.7279,1.8241,1.9201,2.0096,2.115,2.2148,2.3047,2.3091,2.3091,2.3091,2.3091,2.3091,2.3091,2.3091,2.3091,0.0,0.0,1.6096,1.4267,0.0,0.0,0.0,0.0,0.0,0.0,0.0,0.0,0.0,0.0,0.0,0.0,0.0,0.0,0.0,0.0,0.0,0.0,0.0,0.0,0.0,0.0,0.0,0.0,1.1327,0.0,1.3104,1.3587,1.4165,1.4878,1.5009,1.517,1.5382,1.5389,1.5389,1.5389,1.5389,1.5389,1.5389,1.5498,1.5877,1.6419,1.6529,1.6835,1.7279,1.7279,1.7279,1.7279,1.7279,1.7279,1.7279,1.7279,1.7279,1.7279,1.7279,1.7279,1.7279,1.7279,1.7279,1.7279,1.7279,1.7279,1.7279,1.7279,1.7279,1.7279,1.7279,1.7279,1.7279,1.7279,1.7279,1.7279,1.7279,1.7279,1.7279,1.7279,1.7279,1.7279,1.7279,1.7279,1.7279,1.7279,1.7279,1.7279,1.7279,1.7279,1.7279,1.7279,1.7279,1.7279,1.7279,1.7279,1.7279,1.7279,1.8834,1.9877,2.0187,2.1774,2.2775,2.3091,2.3091,2.3091,2.3091,2.3091,2.3091,2.3091,2.3091,2.3091,1.6477,1.6653,0.0,1.5006,1.4326,0.0,1.1963,0.0,0.0,0.0,0.0,0.0,0.0,0.0,0.0,0.0,0.0,0.0,0.0,0.9588,0.0,0.0,0.0,0.0,0.0,0.0,1.0038,1.0711,1.0726,0.0,0.0,1.3023,1.3718,1.4535,1.4783,1.5061,1.5382,1.5389,1.5389,1.5389,1.5389,1.5389,1.5389,1.5389,1.5774,1.6411,1.6411,1.6733,1.7279,1.7279,1.7279,1.7279,1.7279,1.7279,1.7279,1.7279,1.7279,1.7279,1.7279,1.7279,1.7279,1.7279,1.7279,1.7279,1.7279,1.7279,1.7279,1.7279,1.7279,1.7279,1.7279,1.7279,1.7279,1.7279,1.7279,1.7279,1.7279,1.7279,1.7279,1.7279,1.7279,1.7279,1.7279,1.7279,1.7279,1.7279,1.7279,1.7279,1.7279,1.7279,1.7279,1.7279,1.7279,1.7279,1.7279,1.7279,1.7466,1.7831,1.933,2.0376,2.0737,2.228,2.3091,2.3091,2.3091,2.3091,2.3091,2.3091,2.3091,2.3091,2.3091,2.3091]}]]